Date StartTime U_cm/s V_cm/s W_cm/s Ustd_cm/s Vstd_cm/s Wstd_cm/s Uvar_(cm/s)^2 Vvar_(cm/s)^2 Wvar_(cm/s)^2 KE_(m/s)^2 TurbulentKE_(m/s)^2 HorizWindSpeed_cm/s FrictionSpeec_cm/s DragCoef SpeedOfSound_m/s SonicTemperature_C Pressure_mb 
07/23/2014  00:00:00     -153.172     -132.939       -2.714      101.232       71.111       41.863    10247.915     5056.721     1752.512        2.910        0.853      202.817       35.129        0.030      344.580       21.496      864.385
07/23/2014  00:01:00     -221.779     -116.033       -0.487       82.023       60.462       38.204     6727.696     3655.658     1459.524        3.724        0.592      250.299       42.057        0.028      344.528       21.407      864.373
07/23/2014  00:02:00     -209.546      -97.223       -1.096      101.075       70.145       47.210    10216.190     4920.390     2228.747        3.536        0.868      231.001       45.329        0.039      344.509       21.374      864.355
07/23/2014  00:03:00      -79.081      -61.235       -3.160       61.483       62.776       28.475     3780.216     3940.779      810.806        0.927        0.427      100.017       26.208        0.069      344.510       21.380      864.347
07/23/2014  00:04:00     -138.544      -95.523        2.916       72.789       63.662       35.211     5298.200     4052.896     1239.786        1.946        0.530      168.283       36.390        0.047      344.461       21.295      864.366
07/23/2014  00:05:00     -109.729      -40.802       12.724       79.302       55.406       30.846     6288.773     3069.785      951.499        1.209        0.516      117.070       40.326        0.119      344.441       21.260      864.392
07/23/2014  00:06:00     -101.313     -133.399      -12.660       39.819       43.436       26.568     1585.574     1886.645      705.868        1.620        0.209      167.510       18.310        0.012      344.484       21.335      864.421
07/23/2014  00:07:00     -121.523     -166.293       -7.339       56.492       59.053       35.872     3191.345     3487.264     1286.823        2.522        0.398      205.964       30.117        0.021      344.507       21.371      864.433
07/23/2014  00:08:00     -105.169     -103.331       -4.338       63.378       60.180       27.595     4016.763     3621.669      761.497        1.508        0.420      147.437       27.806        0.036      344.489       21.342      864.446
07/23/2014  00:09:00     -145.179      -86.787       -1.180       51.951       51.934       30.519     2698.920     2697.103      931.424        1.747        0.316      169.142       23.674        0.020      344.458       21.290      864.455
07/23/2014  00:10:00      -97.200     -113.298       -8.122       69.430       72.137       28.676     4820.501     5203.803      822.341        1.660        0.542      149.279       33.976        0.052      344.491       21.346      864.450
07/23/2014  00:11:00     -111.525     -140.139        4.363       63.343       78.236       36.590     4012.309     6120.947     1338.836        2.178        0.574      179.099       33.225        0.034      344.513       21.384      864.456
07/23/2014  00:12:00     -110.177      -66.260        4.344       55.938       52.461       29.496     3129.049     2752.189      870.021        1.165        0.338      128.567       24.484        0.036      344.442       21.262      864.480
07/23/2014  00:13:00     -179.436      -99.003        7.259       96.126       68.762       50.708     9240.148     4728.241     2571.254        2.929        0.827      204.936       49.157        0.058      344.410       21.206      864.486
07/23/2014  00:14:00     -174.895      -80.180        0.474       77.807       54.234       39.335     6053.994     2941.331     1547.230        2.378        0.527      192.398       40.371        0.044      344.392       21.177      864.478
07/23/2014  00:15:00     -231.123      -83.324       -2.482       77.767       57.007       34.993     6047.775     3249.812     1224.523        3.544        0.526      245.684       32.273        0.017      344.372       21.139      864.453
07/23/2014  00:16:00     -255.559      -73.666       -0.390      103.166       84.429       52.418    10643.195     7128.310     2747.641        4.562        1.026      265.964       53.010        0.040      344.397       21.181      864.408
07/23/2014  00:17:00     -222.869      -92.458        3.247       84.480       75.464       47.029     7136.867     5694.789     2211.717        3.663        0.752      241.286       43.919        0.033      344.363       21.124      864.390
07/23/2014  00:18:00     -174.091      -87.341        5.692       83.809       83.034       43.426     7023.964     6894.638     1885.777        2.688        0.790      194.772       43.648        0.050      344.296       21.011      864.399
07/23/2014  00:19:00     -131.310      -41.351       13.322       79.438       66.956       44.560     6310.392     4483.062     1985.588        1.595        0.639      137.667       46.898        0.116      344.192       20.836      864.412
07/23/2014  00:20:00     -119.974      -87.515       -0.560       70.356       77.932       35.383     4949.971     6073.391     1251.964        1.716        0.614      148.501       41.269        0.077      344.197       20.843      864.441
07/23/2014  00:21:00      -34.385      -81.528        6.267       39.255       40.620       20.929     1540.941     1649.984      438.017        0.575        0.181       88.483       16.199        0.034      344.262       20.956      864.504
07/23/2014  00:22:00      -75.282     -107.472        1.407       60.505       48.638       33.837     3660.866     2365.631     1144.927        1.219        0.359      131.216       26.147        0.040      344.316       21.048      864.529
07/23/2014  00:23:00      -43.756      -59.276        3.222       55.970       44.469       25.309     3132.639     1977.486      640.567        0.559        0.288       73.676       24.306        0.109      344.280       20.988      864.515
07/23/2014  00:24:00      -12.555      -58.740        4.300       54.181       52.537       27.230     2935.621     2760.123      741.482        0.503        0.322       60.067       23.860        0.158      344.286       20.996      864.497
07/23/2014  00:25:00     -113.053      -58.741        1.401       47.685       65.972       32.658     2273.899     4352.354     1066.574        1.196        0.385      127.403       32.423        0.065      344.308       21.032      864.472
07/23/2014  00:26:00     -126.897      -69.427       -9.921       55.170       52.041       28.578     3043.762     2708.246      816.679        1.379        0.328      144.648       27.176        0.035      344.328       21.068      864.447
07/23/2014  00:27:00     -101.617      -56.446        1.303       40.912       44.353       24.028     1673.776     1967.177      577.347        0.887        0.211      116.242       22.270        0.037      344.345       21.098      864.427
07/23/2014  00:28:00      -36.715      -40.522       10.643       41.910       61.798       30.691     1756.420     3819.041      941.937        0.481        0.326       54.681       32.150        0.346      344.263       20.955      864.401
07/23/2014  00:29:00      -54.096       -8.034        9.216       51.314       40.916       26.674     2633.133     1674.106      711.520        0.405        0.251       54.689       26.915        0.242      344.219       20.883      864.386
07/23/2014  00:30:00      -36.246      -85.826       -1.531       35.383       39.964       20.879     1251.971     1597.126      435.930        0.598        0.164       93.166       15.540        0.028      344.339       21.085      864.405
07/23/2014  00:31:00      -19.139     -104.257        0.964       27.504       32.102       17.786      756.494     1030.508      316.327        0.667        0.105      105.999       17.397        0.027      344.347       21.100      864.460
07/23/2014  00:32:00       -7.477      -22.842       -1.227       26.894       39.397       12.303      723.301     1552.100      151.352        0.150        0.121       24.035       17.398        0.524      344.292       21.007      864.457
07/23/2014  00:33:00       -0.482       23.619       22.641       22.955       23.021       14.913      526.953      529.970      222.388        0.117        0.064       23.624       14.049        0.354      344.166       20.793      864.430
07/23/2014  00:34:00        5.298       30.382        0.225       18.680       18.095       22.167      348.940      327.415      491.358        0.106        0.058       30.841       17.472        0.321      344.152       20.769      864.425
07/23/2014  00:35:00      -36.090       15.697       -6.602       26.923       20.784       13.348      724.835      431.991      178.179        0.146        0.067       39.356       14.033        0.127      344.215       20.874      864.442
07/23/2014  00:36:00      -26.815      -53.174       10.842       25.490       72.970       16.544      649.763     5324.639      273.702        0.495        0.312       59.552       23.123        0.151      344.286       20.996      864.460
07/23/2014  00:37:00      -54.142     -122.061       -2.919       26.103       24.731       17.838      681.355      611.602      318.205        0.972        0.081      133.530       15.703        0.014      344.338       21.087      864.472
07/23/2014  00:38:00      -77.787      -94.727        0.767       46.945       27.293       25.175     2203.838      744.921      633.795        0.930        0.179      122.572       15.500        0.016      344.299       21.018      864.460
07/23/2014  00:39:00     -111.704      -89.105       -9.784       40.097       44.932       23.303     1607.805     2018.841      543.035        1.234        0.208      142.890       18.545        0.017      344.315       21.048      864.442
07/23/2014  00:40:00     -129.529      -82.256        1.156       53.547       55.641       31.625     2867.236     3095.904     1000.151        1.525        0.348      153.440       31.942        0.043      344.291       21.006      864.451
07/23/2014  00:41:00      -90.625      -73.596        0.982       46.753       47.405       25.640     2185.857     2247.256      657.388        0.936        0.255      116.745       23.763        0.041      344.260       20.953      864.468
07/23/2014  00:42:00      -32.315      -64.668        3.427       31.005       29.542       17.448      961.312      872.712      304.419        0.369        0.107       72.293       14.437        0.040      344.318       21.052      864.465
07/23/2014  00:43:00     -160.711      -89.590       -7.904       88.628       63.242       37.041     7854.856     3999.526     1372.062        2.357        0.661      183.996       38.439        0.044      344.428       21.238      864.469
07/23/2014  00:44:00      -91.599     -107.984       -8.016       80.968       66.908       27.398     6555.771     4476.728      750.628        1.595        0.589      141.601       36.624        0.067      344.417       21.220      864.480
07/23/2014  00:45:00      -50.279     -143.266        2.130       30.151       44.506       22.784      909.072     1980.805      519.090        1.323        0.170      151.833        9.283        0.004      344.377       21.154      864.491
07/23/2014  00:46:00      -17.986      -45.150       -1.504       62.556       46.905       34.491     3913.271     2200.085     1189.600        0.483        0.365       48.600       37.282        0.588      344.261       20.953      864.488
07/23/2014  00:47:00      -44.368      -46.474        6.147       55.578       40.666       26.394     3088.883     1653.688      696.658        0.480        0.272       64.253       31.688        0.243      344.285       20.996      864.485
07/23/2014  00:48:00      -66.653      -86.887       -7.991       53.846       46.919       32.750     2899.420     2201.409     1072.580        0.911        0.309      109.508       26.886        0.060      344.231       20.903      864.482
07/23/2014  00:49:00      -52.669     -133.323       -5.265       55.280       67.651       34.282     3055.888     4576.593     1175.260        1.469        0.440      143.350       19.100        0.018      344.260       20.951      864.495
07/23/2014  00:50:00      -78.279      -19.531       10.875       49.245       62.113       33.167     2425.093     3857.981     1100.050        0.700        0.369       80.679       27.982        0.120      344.210       20.867      864.501
07/23/2014  00:51:00      -96.241      -70.047       -7.489       76.776       53.803       29.922     5894.604     2894.768      895.313        1.195        0.484      119.033       28.908        0.059      344.231       20.903      864.473
07/23/2014  00:52:00     -139.944      -82.696       -4.976       45.808       54.028       28.317     2098.402     2918.997      801.824        1.613        0.291      162.551       25.759        0.025      344.179       20.814      864.451
07/23/2014  00:53:00      -85.030      -37.382        8.254       76.237       44.380       32.881     5812.054     1969.589     1081.162        0.878        0.443       92.884       38.809        0.175      344.192       20.836      864.441
07/23/2014  00:54:00     -183.165     -123.269      -10.780       68.944       63.715       35.192     4753.236     4059.618     1238.487        2.945        0.503      220.782       35.500        0.026      344.298       21.013      864.438
07/23/2014  00:55:00     -123.601      -75.091       -1.686       73.647       67.807       43.721     5423.811     4597.784     1911.541        1.642        0.597      144.623       32.217        0.050      344.186       20.826      864.439
07/23/2014  00:56:00      -85.942      -51.573        5.672       50.985       55.020       33.245     2599.429     3027.161     1105.213        0.840        0.337      100.228       13.354        0.018      344.161       20.784      864.438
07/23/2014  00:57:00      -82.849      -48.770       -1.237       36.850       44.906       22.185     1357.931     2016.548      492.184        0.655        0.193       96.137       20.733        0.047      344.169       20.798      864.432
07/23/2014  00:58:00     -101.860      -62.783       -3.703       57.677       62.731       35.911     3326.610     3935.182     1289.621        1.144        0.428      119.654       35.006        0.086      344.200       20.850      864.428
07/23/2014  00:59:00      -41.066      -89.351        0.472       35.714       24.498       20.750     1275.459      600.154      430.575        0.599        0.115       98.336       18.123        0.034      344.394       21.181      864.425
07/23/2014  01:00:00      -81.322      -31.919       -2.364       88.507       45.652       33.443     7833.410     2084.091     1118.451        0.933        0.552       87.362       38.318        0.192      344.330       21.073      864.416
07/23/2014  01:01:00      -89.943      -64.986       10.602       66.928       40.969       29.824     4479.394     1678.423      889.499        0.973        0.352      110.964       33.821        0.093      344.294       21.010      864.403
07/23/2014  01:02:00      -18.924       -7.286        8.661       32.536       30.710       18.722     1058.618      943.097      350.524        0.142        0.118       20.279       15.003        0.547      344.174       20.805      864.409
07/23/2014  01:03:00      -70.827       -3.648        0.450       47.510       32.930       23.396     2257.220     1084.368      547.378        0.446        0.194       70.921       25.504        0.129      344.178       20.815      864.421
07/23/2014  01:04:00       -8.537      -15.636       11.996       25.736       22.453       17.343      662.333      504.116      300.783        0.096        0.073       17.815       15.153        0.723      344.074       20.635      864.425
07/23/2014  01:05:00      -50.906      -25.297       -0.682       44.371       30.892       23.530     1968.756      954.338      553.683        0.335        0.174       56.845       27.102        0.227      344.066       20.620      864.428
07/23/2014  01:06:00     -100.273      -34.494        3.163       47.787       50.614       24.023     2283.574     2561.781      577.112        0.834        0.271      106.040       20.510        0.037      344.132       20.734      864.437
07/23/2014  01:07:00      -62.539      -41.207        0.855       46.801       30.989       27.799     2190.288      960.305      772.791        0.477        0.196       74.894       26.672        0.127      344.234       20.908      864.431
07/23/2014  01:08:00       14.117      -64.715       -9.218       30.206       37.108       27.537      912.430     1377.002      758.284        0.376        0.152       66.237       19.636        0.088      343.991       20.493      864.436
07/23/2014  01:09:00       13.737       23.480       47.260       32.416       55.389       36.248     1050.817     3067.895     1313.935        0.420        0.272       27.203       39.428        2.101      343.780       20.133      864.430
07/23/2014  01:10:00       82.391       44.914       12.058       37.320       28.667       21.038     1392.806      821.801      442.602        0.580        0.133       93.838        9.523        0.010      343.516       19.681      864.416
07/23/2014  01:11:00       47.230       14.627       19.522       28.970       23.514       19.166      839.237      552.904      367.351        0.229        0.088       49.444       17.365        0.123      343.574       19.782      864.423
07/23/2014  01:12:00       38.360       45.515       48.741       38.612       33.232       27.509     1490.861     1104.373      756.725        0.463        0.168       59.524       19.159        0.104      343.709       20.010      864.413
07/23/2014  01:13:00       29.602       25.127       15.489       23.505       24.581       21.962      552.508      604.212      482.333        0.169        0.082       38.828        8.925        0.053      343.699       19.994      864.416
07/23/2014  01:14:00       29.536       58.014       -4.751       31.151       23.068       18.234      970.370      532.126      332.464        0.305        0.092       65.100       13.609        0.044      343.610       19.842      864.424
07/23/2014  01:15:00       55.013       42.556        2.211       30.885       20.543       21.619      953.858      422.005      467.399        0.334        0.092       69.551        8.480        0.015      343.701       19.998      864.409
07/23/2014  01:16:00       60.762       36.756        8.395       27.101       26.092       17.440      734.471      680.784      304.166        0.342        0.086       71.014       12.157        0.029      343.720       20.029      864.402
07/23/2014  01:17:00       69.089       47.936        8.117       13.750       13.804       13.179      189.065      190.544      173.688        0.385        0.028       84.090        7.566        0.008      343.662       19.930      864.406
07/23/2014  01:18:00       49.766       10.403        3.988       17.787       23.588       14.701      316.372      556.376      216.106        0.184        0.054       50.841        7.070        0.019      343.523       19.693      864.416
07/23/2014  01:19:00       30.454        8.284        3.851       20.303       15.726       14.613      412.193      247.304      213.549        0.094        0.044       31.561       11.599        0.135      343.391       19.470      864.429
07/23/2014  01:20:00      102.382       51.938        9.814       33.736       26.376       25.644     1138.091      695.702      657.615        0.788        0.125      114.803       21.858        0.036      343.821       20.204      864.431
07/23/2014  01:21:00      121.811       77.362       15.635       25.933       22.466       25.565      672.534      504.743      653.565        1.145        0.092      144.301       12.343        0.007      343.678       19.957      864.445
07/23/2014  01:22:00      108.798       64.652       37.689       46.663       38.296       36.966     2177.470     1466.553     1366.513        1.122        0.251      126.558       28.152        0.049      343.636       19.888      864.427
07/23/2014  01:23:00       92.713       55.068       37.143       71.260       33.364       32.939     5078.056     1113.133     1084.947        1.014        0.364      107.834       11.918        0.012      343.883       20.309      864.433
07/23/2014  01:24:00        0.412        2.849       36.921       16.548       28.137       15.551      273.832      791.714      241.834        0.134        0.065        2.878       13.469       21.901      343.762       20.102      864.448
07/23/2014  01:25:00       26.389       41.146       48.048       36.844       31.271       26.813     1357.482      977.888      718.958        0.388        0.153       48.881       20.008        0.168      343.846       20.245      864.453
07/23/2014  01:26:00       32.282        5.018       22.368       31.160       22.763       20.709      970.965      518.153      428.881        0.174        0.096       32.670       11.233        0.118      343.824       20.205      864.469
07/23/2014  01:27:00       59.365       15.238       18.224       36.277       32.072       21.756     1316.011     1028.623      473.345        0.345        0.141       61.290       11.265        0.034      343.865       20.278      864.469
07/23/2014  01:28:00       26.634       47.704       59.936       44.421       28.475       24.675     1973.197      810.848      608.839        0.498        0.170       54.636       19.363        0.126      343.889       20.319      864.461
07/23/2014  01:29:00       89.533       39.140       43.864       61.819       42.447       35.918     3821.570     1801.757     1290.135        0.919        0.346       97.714       24.139        0.061      343.848       20.248      864.433
07/23/2014  01:30:00       65.638       80.779       59.582       54.362       33.006       36.049     2955.205     1089.386     1299.538        0.986        0.267      104.084       29.874        0.082      343.720       20.030      864.451
07/23/2014  01:31:00       66.074       60.893       59.428       66.436       51.315       50.489     4413.680     2633.245     2549.131        1.060        0.480       89.853       44.787        0.248      343.649       19.909      864.455
07/23/2014  01:32:00       80.963       95.018       84.637       73.265       45.597       48.796     5367.694     2079.107     2381.042        1.629        0.491      124.834       48.970        0.154      343.673       19.947      864.453
07/23/2014  01:33:00       90.524       29.692       30.304       42.590       37.606       35.908     1813.873     1414.248     1289.413        0.726        0.226       95.269       16.501        0.030      343.627       19.871      864.458
07/23/2014  01:34:00       17.390       33.080       57.714       25.502       37.315       26.358      650.360     1392.390      694.770        0.373        0.137       37.372       26.608        0.507      343.731       20.050      864.450
07/23/2014  01:35:00       16.444       19.617       29.080       27.152       31.485       18.921      737.248      991.296      357.987        0.179        0.104       25.597       16.603        0.421      343.611       19.846      864.461
07/23/2014  01:36:00       30.004        0.049       17.932       33.800       26.169       22.740     1142.436      684.800      517.093        0.178        0.117       30.004       21.775        0.527      343.688       19.976      864.472
07/23/2014  01:37:00       -3.807       -5.158        9.503       18.076       21.751       15.717      326.752      473.086      247.012        0.059        0.052        6.411       10.582        2.724      343.666       19.939      864.469
07/23/2014  01:38:00      -37.136       -9.183        2.995       17.074       11.425       10.529      291.532      130.537      110.853        0.100        0.027       38.255        8.018        0.044      343.732       20.052      864.473
07/23/2014  01:39:00       10.876       29.228       11.546       27.468       30.360       12.734      754.516      921.743      162.165        0.147        0.092       31.186       19.426        0.388      343.612       19.846      864.472
07/23/2014  01:40:00        5.405       73.706      -10.940       14.751       16.326       11.657      217.597      266.532      135.877        0.310        0.031       73.904        8.571        0.013      343.807       20.179      864.451
07/23/2014  01:41:00        3.677        5.615       -0.721        9.788        8.539        9.271       95.799       72.922       85.945        0.015        0.013        6.712        8.531        1.616      344.009       20.523      864.467
07/23/2014  01:42:00     -100.033      -14.370       -5.873       42.149       29.996       14.854     1776.545      899.775      220.644        0.657        0.145      101.060       18.274        0.033      343.602       19.830      864.479
07/23/2014  01:43:00      -18.449       12.711       11.428      115.143       55.656       45.135    13257.808     3097.638     2037.125        0.951        0.920       22.404       57.921        6.684      343.702       20.000      864.483
07/23/2014  01:44:00     -121.887      -68.850       -5.078       75.096       69.268       36.951     5639.413     4797.987     1365.395        1.571        0.590      139.988       40.396        0.083      344.137       20.740      864.496
07/23/2014  01:45:00     -130.437      -36.052        3.696       89.889       68.222       36.407     8080.113     4654.283     1325.476        1.619        0.703      135.328       37.895        0.078      344.137       20.742      864.499
07/23/2014  01:46:00     -129.517      -51.931        3.892       82.816       56.647       35.165     6858.465     3208.872     1236.606        1.539        0.565      139.540       34.877        0.062      344.386       21.167      864.473
07/23/2014  01:47:00     -119.719      -33.043       10.093       80.608       79.506       42.811     6497.617     6321.174     1832.741        1.509        0.733      124.196       43.039        0.120      344.390       21.173      864.462
07/23/2014  01:48:00     -155.967      -87.713       -1.689       71.555       58.611       29.761     5120.058     3435.196      885.728        2.073        0.472      178.939       30.846        0.030      344.409       21.207      864.469
07/23/2014  01:49:00     -139.816      -63.693        0.746       72.012       60.671       39.220     5185.753     3680.942     1538.182        1.700        0.520      153.640       36.405        0.056      344.378       21.154      864.467
07/23/2014  01:50:00     -120.077      -91.330       -5.027       75.824       58.489       36.031     5749.241     3420.928     1298.226        1.662        0.523      150.863       43.271        0.082      344.332       21.075      864.481
07/23/2014  01:51:00      -35.566      -83.285        6.276       57.108       57.675       29.421     3261.294     3326.422      865.589        0.785        0.373       90.562       30.082        0.110      344.348       21.103      864.462
07/23/2014  01:52:00      -49.924      -19.762        9.149       41.020       23.719       19.705     1682.674      562.595      388.304        0.280        0.132       53.693       16.015        0.089      344.242       20.923      864.452
07/23/2014  01:53:00      -39.699      -22.455       11.741       61.516       45.532       31.673     3784.274     2073.153     1003.161        0.454        0.343       45.610       29.048        0.406      344.179       20.815      864.447
07/23/2014  01:54:00      -57.798      -87.703       -0.786      107.993       55.374       32.170    11662.474     3066.255     1034.891        1.340        0.788      105.036       26.205        0.062      344.271       20.970      864.424
07/23/2014  01:55:00     -139.780      -95.842      -10.648      124.237       77.253       41.769    15434.858     5968.021     1744.656        2.599        1.157      169.483       50.427        0.089      344.325       21.062      864.412
07/23/2014  01:56:00      -54.434      -51.973        7.802       69.264       53.395       34.151     4797.476     2851.021     1166.294        0.727        0.441       75.261       38.465        0.261      344.339       21.087      864.370
07/23/2014  01:57:00     -159.976      -87.425        6.853      101.534       66.287       49.747    10309.193     4393.920     2474.743        2.523        0.859      182.306       56.763        0.097      344.406       21.200      864.332
07/23/2014  01:58:00     -167.403     -141.919       -4.477       86.891       71.786       45.100     7550.002     5153.227     2034.039        3.146        0.737      219.465       46.812        0.045      344.404       21.196      864.340
07/23/2014  01:59:00     -140.763      -44.777       -7.504       65.456       55.111       37.120     4284.479     3037.184     1377.896        1.529        0.435      147.713       37.660        0.065      344.305       21.028      864.334
07/23/2014  02:00:00      -66.208      -49.721        7.521       43.172       63.502       25.810     1863.836     4032.524      666.158        0.674        0.328       82.799       21.927        0.070      344.334       21.079      864.345
07/23/2014  02:01:00      -53.896      -95.689       -6.628       46.904       47.946       26.060     2200.003     2298.801      679.102        0.864        0.259      109.823       16.433        0.022      344.401       21.192      864.330
07/23/2014  02:02:00     -168.848       -4.365       -4.385       46.082       60.218       37.577     2123.592     3626.156     1412.017        1.785        0.358      168.904       29.125        0.030      344.355       21.113      864.328
07/23/2014  02:03:00     -155.038      -91.612        4.635      108.057       71.107       48.575    11676.215     5056.238     2359.514        2.577        0.955      180.082       53.428        0.088      344.285       20.993      864.322
07/23/2014  02:04:00      -83.697      -87.079        8.943       75.835       47.762       28.058     5750.894     2281.174      787.248        1.174        0.441      120.780       30.953        0.066      344.277       20.982      864.290
07/23/2014  02:05:00     -172.644     -107.337        4.612      111.995       92.089       51.347    12542.838     8480.472     2636.556        3.250        1.183      203.291       55.990        0.076      344.306       21.029      864.287
07/23/2014  02:06:00     -216.503     -152.524      -10.289      100.850      155.186       54.960    10170.679    24082.686     3020.581        5.375        1.864      264.834       52.921        0.040      344.477       21.321      864.288
07/23/2014  02:07:00     -199.039      -85.545       -7.679      112.754       99.512       47.429    12713.552     9902.563     2249.466        3.592        1.243      216.643       44.896        0.043      344.432       21.243      864.284
07/23/2014  02:08:00      -50.299      -20.857        9.079       72.660       48.191       36.796     5279.539     2322.407     1353.940        0.600        0.448       54.452       33.580        0.380      344.351       21.107      864.268
07/23/2014  02:09:00     -115.803     -117.328       -9.375      117.845       97.921       53.906    13887.399     9588.585     2905.845        2.682        1.319      164.852       61.531        0.139      344.347       21.099      864.271
07/23/2014  02:10:00     -175.428     -197.436       -2.057      128.409      116.384       69.208    16488.947    13545.135     4789.680        5.228        1.741      264.113       70.752        0.072      344.520       21.394      864.244
07/23/2014  02:11:00     -172.954     -135.329       10.892      137.224      103.244       61.916    18830.528    10659.233     3833.572        4.083        1.666      219.607       66.118        0.091      344.468       21.305      864.233
07/23/2014  02:12:00     -217.336     -149.736      -15.009      123.133       93.297       42.876    15161.845     8704.353     1838.348        4.779        1.285      263.924       52.171        0.039      344.470       21.308      864.238
07/23/2014  02:13:00     -163.668     -106.795        4.004      175.054       97.581       52.757    30643.756     9521.978     2783.348        4.057        2.147      195.429       62.585        0.103      344.439       21.257      864.251
07/23/2014  02:14:00     -255.318      -75.324       -6.628      108.634       92.155       50.842    11801.309     8492.468     2584.957        4.689        1.144      266.198       48.478        0.033      344.438       21.253      864.243
07/23/2014  02:15:00      -90.244      -65.808       15.354       85.404       46.811       36.089     7293.911     2191.302     1302.386        1.175        0.539      111.690       37.496        0.113      344.385       21.166      864.245
07/23/2014  02:16:00      -81.613      -70.640       -4.345       54.410       56.955       38.165     2960.400     3243.925     1456.570        0.966        0.383      107.939       26.856        0.062      344.399       21.190      864.256
07/23/2014  02:17:00      -43.129     -105.422        7.450       69.902       67.532       44.520     4886.324     4560.576     1982.020        1.223        0.571      113.903       44.320        0.151      344.381       21.160      864.270
07/23/2014  02:18:00      -19.340      -75.684        4.533       20.529       35.963       27.828      421.422     1293.318      774.373        0.431        0.124       78.116       11.160        0.020      344.408       21.204      864.267
07/23/2014  02:19:00      -74.566      -32.237       -0.668       51.500       25.554       21.279     2652.228      653.010      452.778        0.518        0.188       81.236       17.705        0.048      344.337       21.085      864.262
07/23/2014  02:20:00      -97.299     -119.707       -3.530       83.922       85.848       40.193     7042.910     7369.800     1615.505        1.992        0.801      154.262       30.222        0.038      344.422       21.229      864.266
07/23/2014  02:21:00      -48.178      -95.516        0.036       72.189       47.391       32.083     5211.311     2245.907     1029.321        0.996        0.424      106.979       23.270        0.047      344.358       21.119      864.268
07/23/2014  02:22:00      -85.184      -69.472        7.575       57.665       55.615       29.783     3325.245     3093.079      887.049        0.972        0.365      109.921       29.367        0.071      344.330       21.072      864.274
07/23/2014  02:23:00      -39.744     -150.382        7.430       62.510       66.547       42.096     3907.461     4428.565     1772.089        1.718        0.505      155.545       36.417        0.055      344.443       21.264      864.250
07/23/2014  02:24:00      -71.450     -120.945        7.343       89.617       61.217       44.237     8031.156     3747.537     1956.942        1.676        0.687      140.474       39.755        0.080      344.457       21.289      864.250
07/23/2014  02:25:00      -47.218      -65.287       -0.055       44.306       29.264       23.353     1963.039      856.360      545.354        0.493        0.168       80.573       22.706        0.079      344.357       21.118      864.245
07/23/2014  02:26:00      -10.773     -134.166       -3.510       45.115       68.052       33.160     2035.347     4631.091     1099.578        1.295        0.388      134.597       27.392        0.041      344.327       21.067      864.230
07/23/2014  02:27:00      -30.907     -183.142      -15.216       73.578       64.582       28.185     5413.772     4170.798      794.368        2.255        0.519      185.732       18.361        0.010      344.357       21.116      864.214
07/23/2014  02:28:00       -3.709      -96.048       -2.213       38.485       39.699       22.248     1481.098     1576.018      494.978        0.640        0.178       96.119       16.761        0.030      344.124       20.721      864.206
07/23/2014  02:29:00       19.009      -51.064      -16.106       44.622       41.873       29.234     1991.126     1753.357      854.615        0.391        0.230       54.487       19.763        0.132      344.123       20.717      864.194
07/23/2014  02:30:00      -28.407      -64.947        1.375       42.770       43.363       35.866     1829.299     1880.317     1286.361        0.501        0.250       70.888       25.364        0.128      344.087       20.658      864.208
07/23/2014  02:31:00        1.262     -100.345      -15.164       53.364       37.273       28.062     2847.754     1389.282      787.489        0.766        0.251      100.353       23.288        0.054      344.105       20.688      864.235
07/23/2014  02:32:00        6.325     -148.904       10.405       50.383       76.323       34.676     2538.428     5825.138     1202.413        1.594        0.478      149.038       19.288        0.017      344.167       20.792      864.249
07/23/2014  02:33:00      -63.817     -147.579        5.235       46.471       57.017       37.258     2159.582     3250.958     1388.122        1.634        0.340      160.786       27.576        0.029      344.274       20.975      864.219
07/23/2014  02:34:00      -37.685      -50.695       14.302       84.894       53.378       33.161     7206.909     2849.208     1099.630        0.767        0.558       63.168       38.473        0.371      344.271       20.973      864.241
07/23/2014  02:35:00      -48.065     -154.286       -6.332       30.949       53.301       20.978      957.814     2841.041      440.088        1.520        0.212      161.599       18.691        0.013      344.228       20.897      864.220
07/23/2014  02:36:00     -115.242      -94.698        4.969       83.080       65.114       32.222     6902.323     4239.816     1038.240        1.722        0.609      149.160       24.661        0.027      344.223       20.888      864.213
07/23/2014  02:37:00      -72.817     -155.778        6.045       94.322       74.742       40.349     8896.692     5586.324     1628.026        2.286        0.806      171.956       47.605        0.077      344.333       21.074      864.205
07/23/2014  02:38:00     -108.038     -104.458       -6.114       48.052       78.848       29.283     2309.041     6216.938      857.473        1.600        0.469      150.279       39.068        0.068      344.365       21.129      864.200
07/23/2014  02:39:00     -126.323      -99.275       -0.420       76.929       53.928       29.855     5918.109     2908.253      891.341        1.776        0.486      160.665       14.324        0.008      344.358       21.119      864.203
07/23/2014  02:40:00     -181.285      -95.061       -2.627       92.852       87.109       44.780     8621.517     7587.975     2005.280        3.006        0.911      204.697       50.363        0.061      344.313       21.040      864.216
07/23/2014  02:41:00     -208.244     -108.734      -12.247      100.181       68.724       44.247    10036.238     4723.041     1957.800        3.602        0.836      234.922       42.334        0.032      344.399       21.187      864.210
07/23/2014  02:42:00      -39.257      -52.614       13.010       59.580       85.630       38.411     3549.759     7332.521     1475.401        0.842        0.618       65.646       40.231        0.376      344.336       21.083      864.207
07/23/2014  02:43:00      -77.441      -91.827       14.002      110.396       49.954       49.016    12187.337     2495.403     2402.579        1.585        0.854      120.122       54.139        0.203      344.412       21.211      864.193
07/23/2014  02:44:00      -64.801     -170.894       11.490       44.508      103.775       41.044     1980.923    10769.328     1684.611        2.398        0.722      182.768       45.799        0.063      344.456       21.284      864.194
07/23/2014  02:45:00      -37.179     -116.641       -7.132       47.491       69.918       41.515     2255.401     4888.590     1723.474        1.195        0.443      122.423       40.463        0.109      344.497       21.357      864.218
07/23/2014  02:46:00      -71.825      -69.889       10.903       70.703       60.340       36.834     4998.947     3640.881     1356.721        1.008        0.500      100.216       16.207        0.026      344.473       21.317      864.237
07/23/2014  02:47:00     -150.853     -166.422      -10.437       83.506       99.641       30.072     6973.297     9928.317      904.306        3.418        0.890      224.617       21.507        0.009      344.685       21.677      864.228
07/23/2014  02:48:00     -177.716     -151.674      -23.878       83.221       76.553       39.019     6925.785     5860.346     1522.479        3.473        0.715      233.640       37.853        0.026      344.650       21.616      864.218
07/23/2014  02:49:00     -173.731     -149.938       -9.386      111.974       77.212       53.911    12538.227     5961.720     2906.444        3.707        1.070      229.486       57.857        0.064      344.625       21.574      864.219
07/23/2014  02:50:00     -151.945      -84.241       -5.725       71.140       74.551       46.517     5060.935     5557.900     2163.838        2.150        0.639      173.735       27.717        0.025      344.614       21.556      864.212
07/23/2014  02:51:00     -215.775     -164.615      -18.082      100.871       93.393       51.375    10174.961     8722.344     2639.376        4.776        1.077      271.398       52.734        0.038      344.585       21.506      864.180
07/23/2014  02:52:00     -175.584      -76.214        3.749       87.663       71.898       42.657     7684.773     5169.309     1819.661        2.566        0.734      191.411       43.245        0.051      344.500       21.360      864.142
07/23/2014  02:53:00     -180.182      -72.873        3.039      131.042      103.266       48.853    17171.894    10663.832     2386.616        3.400        1.511      194.361       44.818        0.053      344.691       21.685      864.123
07/23/2014  02:54:00     -157.601      -39.252       -6.937      147.108       80.692       39.249    21640.842     6511.125     1540.483        2.805        1.485      162.416       45.476        0.078      344.625       21.574      864.129
07/23/2014  02:55:00     -146.741     -133.678       -2.407       98.697       76.326       45.429     9741.060     5825.701     2063.783        2.852        0.882      198.501       44.708        0.051      344.570       21.480      864.163
07/23/2014  02:56:00     -145.871      -97.530       -5.425       99.204       55.459       47.403     9841.349     3075.652     2247.014        2.299        0.758      175.472       44.770        0.065      344.545       21.438      864.200
07/23/2014  02:57:00     -115.005      -51.832       14.138       88.452       78.044       47.139     7823.779     6090.799     2222.064        1.612        0.807      126.145       44.057        0.122      344.474       21.318      864.202
07/23/2014  02:58:00      -95.427     -100.156       14.256       70.459       77.762       45.485     4964.483     6046.902     2068.918        1.621        0.654      138.339       35.646        0.066      344.566       21.475      864.197
07/23/2014  02:59:00       42.429       49.811       22.914       40.677       32.508       37.180     1654.655     1056.762     1382.334        0.445        0.205       65.432       29.550        0.204      343.778       20.130      864.194
07/23/2014  03:00:00      104.730       78.248       14.864       57.867       46.035       42.913     3348.624     2119.259     1841.542        1.231        0.365      130.733       14.103        0.012      343.275       19.272      864.185
07/23/2014  03:01:00       97.293        9.444        0.441       59.999       44.774       27.488     3599.871     2004.694      755.605        0.796        0.318       97.751       22.587        0.053      343.125       19.016      864.189
07/23/2014  03:02:00       11.752       21.988        6.034       27.262       38.233       22.213      743.216     1461.745      493.427        0.168        0.135       24.931       17.417        0.488      343.082       18.943      864.198
07/23/2014  03:03:00       16.642      129.196      -22.264       19.187       21.282       14.489      368.160      452.936      209.939        0.925        0.052      130.263       12.213        0.009      343.051       18.890      864.180
07/23/2014  03:04:00       56.078      157.726      -18.338       31.846       37.066       28.392     1014.137     1373.858      806.082        1.578        0.160      167.398       25.799        0.024      343.054       18.894      864.179
07/23/2014  03:05:00       53.067      137.535      -12.002       49.878       70.696       42.902     2487.792     4997.901     1840.606        1.560        0.466      147.418       45.382        0.095      342.940       18.699      864.154
07/23/2014  03:06:00       42.376       48.443        0.180       73.193       63.035       37.695     5357.222     3973.447     1420.890        0.744        0.538       64.362       25.540        0.157      342.980       18.770      864.103
07/23/2014  03:07:00       13.566       35.084       -5.951       43.609       66.229       29.017     1901.782     4386.232      841.981        0.429        0.356       37.615       33.363        0.787      342.988       18.784      864.102
07/23/2014  03:08:00       93.902      103.063       -2.745       44.302       26.989       24.947     1962.663      728.417      622.328        1.138        0.166      139.426       22.158        0.025      343.047       18.883      864.116
07/23/2014  03:09:00       99.630       69.425        5.610       37.188       33.545       27.849     1382.956     1125.284      775.545        0.903        0.164      121.433       16.677        0.019      342.950       18.719      864.097
07/23/2014  03:10:00      103.331       49.342       18.138       55.383       43.505       28.394     3067.236     1892.667      806.196        0.960        0.288      114.508        6.370        0.003      342.867       18.576      864.107
07/23/2014  03:11:00      118.583       90.155       15.243       42.768       35.973       24.005     1829.129     1294.047      576.228        1.306        0.185      148.962       16.991        0.013      342.840       18.530      864.124
07/23/2014  03:12:00       96.729       90.539       36.991       44.053       26.036       42.350     1940.630      677.892     1793.524        1.167        0.221      132.490       36.557        0.076      342.822       18.500      864.138
07/23/2014  03:13:00       97.877       26.756       13.391       37.237       30.439       25.755     1386.628      926.547      663.303        0.673        0.149      101.468       19.998        0.039      342.818       18.494      864.154
07/23/2014  03:14:00       69.254       32.638       14.367       39.161       31.229       28.970     1533.615      975.266      839.272        0.471        0.167       76.559       17.706        0.053      342.775       18.423      864.144
07/23/2014  03:15:00       69.133       76.548       -6.582       32.219       30.014       30.854     1038.072      900.855      951.944        0.679        0.145      103.145       22.065        0.046      342.865       18.572      864.152
07/23/2014  03:16:00       58.554       84.864       -8.663       58.308       63.741       31.489     3399.774     4062.964      991.583        0.958        0.423      103.104       26.788        0.068      343.243       19.216      864.164
07/23/2014  03:17:00      185.122      120.806       13.304       74.207       42.270       39.605     5506.722     1786.721     1568.548        2.895        0.443      221.053       14.070        0.004      343.112       18.991      864.139
07/23/2014  03:18:00      120.477       89.986       64.593       69.926       47.240       50.130     4889.713     2231.636     2512.987        1.821        0.482      150.374       41.815        0.077      343.053       18.893      864.136
07/23/2014  03:19:00        5.246       70.235       79.678       28.895       45.659       32.252      834.893     2084.758     1040.176        0.763        0.198       70.431       29.019        0.170      343.215       19.169      864.146
07/23/2014  03:20:00       12.671       14.488       19.333       25.280       18.981       16.872      639.082      360.260      284.653        0.101        0.064       19.247        4.058        0.044      343.147       19.055      864.157
07/23/2014  03:21:00       69.107       39.384       23.592       32.168       28.014       29.414     1034.793      784.804      865.203        0.478        0.134       79.542       19.272        0.059      343.123       19.013      864.145
07/23/2014  03:22:00       17.822       25.263       29.995       28.893       25.172       24.521      834.795      633.622      601.279        0.196        0.103       30.917       19.039        0.379      343.034       18.862      864.143
07/23/2014  03:23:00       19.645       11.659       35.924       26.742       33.208       25.908      715.118     1102.746      671.229        0.215        0.124       22.844       27.252        1.423      343.003       18.808      864.150
07/23/2014  03:24:00        8.050       61.285       87.138       35.146       49.581       35.852     1235.273     2458.261     1285.371        0.820        0.249       61.811       34.144        0.305      342.989       18.784      864.133
07/23/2014  03:25:00       42.487       64.163       71.586       42.904       52.636       32.433     1840.741     2770.544     1051.897        0.835        0.283       76.954       28.869        0.141      342.980       18.770      864.106
07/23/2014  03:26:00      100.486       61.089       42.946       69.005       37.965       36.203     4761.669     1441.308     1310.657        1.159        0.376      117.598       26.098        0.049      342.937       18.697      864.092
07/23/2014  03:27:00      124.638       58.089       33.018       67.818       50.941       39.625     4599.229     2594.979     1570.158        1.438        0.438      137.510       36.288        0.070      343.125       19.015      864.057
07/23/2014  03:28:00      144.562       96.306       30.487       62.267       40.293       41.161     3877.179     1623.529     1694.206        1.915        0.360      173.704       21.125        0.015      342.963       18.740      864.034
07/23/2014  03:29:00      132.023       87.667       16.595       50.645       41.506       30.400     2564.919     1722.766      924.160        1.530        0.261      158.479       16.018        0.010      342.857       18.559      864.030
07/23/2014  03:30:00      145.490       98.670       21.345       43.745       32.253       31.049     1913.609     1040.269      964.034        1.764        0.196      175.793       12.077        0.005      342.952       18.720      864.037
07/23/2014  03:31:00      184.939       94.074       31.450       55.738       37.951       38.047     3106.777     1440.249     1447.579        2.502        0.300      207.491       27.102        0.017      343.026       18.845      864.048
07/23/2014  03:32:00       61.652       43.593       34.317       70.229       54.349       29.332     4932.084     2953.793      860.377        0.781        0.437       75.507       32.506        0.185      343.098       18.969      864.078
07/23/2014  03:33:00       16.446       16.723       56.441       36.820       58.464       25.611     1355.691     3418.005      655.921        0.458        0.271       23.455       16.544        0.498      343.095       18.964      864.083
07/23/2014  03:34:00       94.487       56.249       -3.760       59.028       50.968       38.978     3484.285     2597.697     1519.249        0.985        0.380      109.963       20.350        0.034      343.275       19.272      864.055
07/23/2014  03:35:00       14.243       41.394       -4.178       26.339       79.827       31.754      693.728     6372.359     1008.345        0.500        0.404       43.776       26.442        0.365      343.300       19.316      864.086
07/23/2014  03:36:00       25.594      -48.096       16.754       44.670       35.865       20.243     1995.402     1286.321      409.768        0.347        0.185       54.482       12.479        0.052      343.137       19.037      864.105
07/23/2014  03:37:00      134.320       57.511       31.213       52.018       53.494       48.933     2705.843     2861.577     2394.460        1.514        0.398      146.114       41.575        0.081      343.116       19.000      864.084
07/23/2014  03:38:00      105.959       54.728       37.365       57.441       43.184       35.691     3299.484     1864.855     1273.875        1.103        0.322      119.258       30.751        0.066      343.027       18.850      864.042
07/23/2014  03:39:00      124.361       77.137       38.294       34.205       28.924       29.230     1169.991      836.598      854.373        1.287        0.143      146.341       20.072        0.019      343.121       19.010      864.036
07/23/2014  03:40:00      100.660       72.450       33.446       17.398       18.462       19.215      302.680      340.861      369.234        0.876        0.051      124.022       10.698        0.007      343.022       18.841      864.039
07/23/2014  03:41:00       93.387       42.341       13.288       15.046       15.140       14.578      226.368      229.234      212.505        0.568        0.033      102.537        9.193        0.008      342.968       18.750      864.040
07/23/2014  03:42:00       32.433       -0.092        8.922       53.066       36.411       21.976     2815.968     1325.763      482.948        0.288        0.231       32.433       23.170        0.510      343.008       18.816      864.045
07/23/2014  03:43:00       17.685       36.021       -3.282       27.264       47.970       12.333      743.315     2301.079      152.093        0.241        0.160       40.128       10.578        0.069      343.229       19.194      864.074
07/23/2014  03:44:00       12.672       78.676       -3.059       16.250       20.221       13.545      264.049      408.875      183.461        0.361        0.043       79.690        7.188        0.008      343.441       19.555      864.069
07/23/2014  03:45:00      -17.038       80.939       -7.841       29.945       26.862       19.419      896.713      721.576      377.104        0.445        0.100       82.713       15.043        0.033      343.786       20.144      864.042
07/23/2014  03:46:00     -129.114       48.763       -7.445       74.479       58.554       32.196     5547.138     3428.612     1036.579        1.456        0.501      138.015       17.205        0.016      343.791       20.152      864.062
07/23/2014  03:47:00     -194.385      -50.538      -16.883       92.148       80.935       41.070     8491.298     6550.406     1686.731        2.867        0.836      200.847       31.869        0.025      344.141       20.746      864.072
07/23/2014  03:48:00      -55.793      -33.921        8.299       98.961       68.675       39.896     9793.339     4716.217     1591.722        1.021        0.805       65.296       50.516        0.599      344.252       20.939      864.071
07/23/2014  03:49:00      -73.504       -6.138       -4.108       54.875       47.279       33.368     3011.282     2235.314     1113.437        0.591        0.318       73.760       27.916        0.143      344.145       20.756      864.065
07/23/2014  03:50:00     -111.482      -43.882       -4.520       37.708       46.320       21.118     1421.878     2145.573      445.974        0.919        0.201      119.808       19.178        0.026      344.242       20.921      864.068
07/23/2014  03:51:00      -94.102      -64.028       -1.976      100.307       64.909       34.365    10061.507     4213.227     1180.967        1.420        0.773      113.819       29.573        0.068      344.177       20.809      864.121
07/23/2014  03:52:00      -94.828     -168.794        6.904      127.480       99.608       46.103    16251.246     9921.659     2125.497        3.291        1.415      193.607       36.192        0.035      344.397       21.186      864.137
07/23/2014  03:53:00      -33.856     -217.923       -7.920       61.403       88.446       36.784     3770.332     7822.779     1353.028        3.082        0.647      220.537       38.829        0.031      344.516       21.388      864.141
07/23/2014  03:54:00      -43.601       78.038       -2.510       40.858       58.200       20.379     1669.336     3387.288      415.312        0.673        0.274       89.393       25.520        0.081      344.170       20.800      864.106
07/23/2014  03:55:00       51.258       48.263        5.786       39.490       52.432       34.417     1559.426     2749.073     1184.545        0.524        0.275       70.404       23.282        0.109      343.835       20.226      864.097
07/23/2014  03:56:00       17.342      114.334      121.410       44.156       69.375       43.378     1949.724     4812.953     1881.666        1.838        0.432      115.641       42.103        0.133      343.769       20.114      864.090
07/23/2014  03:57:00      -19.384      -17.131       25.857       24.276       46.787       33.581      589.335     2189.051     1127.664        0.262        0.195       25.869       32.195        1.549      343.950       20.423      864.098
07/23/2014  03:58:00      -94.335      -69.238       -7.271       64.844       81.309       31.480     4204.743     6611.076      991.011        1.277        0.590      117.017       36.696        0.098      344.064       20.617      864.067
07/23/2014  03:59:00     -158.646      -69.588      -12.378       69.950       39.806       31.327     4893.054     1584.501      981.383        1.881        0.373      173.237       31.857        0.034      344.106       20.686      864.063
07/23/2014  04:00:00      -18.219     -118.450        4.999       27.203       61.824       22.693      739.981     3822.183      514.976        0.973        0.254      119.843       19.893        0.028      343.981       20.475      864.091
07/23/2014  04:01:00       -2.179       43.894       51.788       18.211       23.948       23.473      331.625      573.514      550.974        0.303        0.073       43.948       16.694        0.144      343.843       20.240      864.089
07/23/2014  04:02:00      -22.598        3.042       30.670       18.180       37.807       25.607      330.495     1429.384      655.701        0.194        0.121       22.801       14.605        0.410      343.854       20.258      864.058
07/23/2014  04:03:00       25.435       25.162       57.093       43.206       49.014       30.830     1866.783     2402.364      950.495        0.488        0.261       35.778       27.974        0.611      343.674       19.953      864.065
07/23/2014  04:04:00       42.393       41.887       63.774       48.666       66.537       48.562     2368.418     4427.204     2358.281        0.838        0.458       59.596       50.390        0.715      343.424       19.526      864.056
07/23/2014  04:05:00        8.813       23.561       30.804       19.442       22.181       30.295      377.994      492.001      917.758        0.168        0.089       25.155       12.704        0.255      343.358       19.412      864.054
07/23/2014  04:06:00        5.654      -10.220        3.163       20.376       14.552       10.496      415.198      211.752      110.158        0.044        0.037       11.680        7.434        0.405      343.392       19.469      864.074
07/23/2014  04:07:00       52.582       41.358       13.293       25.885       17.641       13.620      670.023      311.218      185.500        0.291        0.058       66.898        7.349        0.012      343.251       19.231      864.097
07/23/2014  04:08:00       29.165       10.718       30.735       45.192       61.643       31.283     2042.306     3799.913      978.625        0.436        0.341       31.072       31.359        1.019      343.236       19.206      864.079
07/23/2014  04:09:00       53.715      -15.934       23.485       53.194       43.797       32.791     2829.587     1918.204     1075.219        0.476        0.291       56.029       33.683        0.361      343.156       19.071      864.061
07/23/2014  04:10:00       64.225       51.634       47.120       44.305       43.401       35.121     1962.926     1883.668     1233.508        0.704        0.254       82.406       24.066        0.085      343.123       19.013      864.049
07/23/2014  04:11:00       12.429      -18.144       16.848       33.981       43.335       24.109     1154.702     1877.951      581.264        0.219        0.181       21.993       22.564        1.053      343.185       19.119      864.079
07/23/2014  04:12:00       74.415      -75.357       -7.203       39.497       42.636       18.794     1560.029     1817.837      353.230        0.750        0.187      105.906       17.843        0.028      343.293       19.303      864.090
07/23/2014  04:13:00       26.404       -7.281       19.521       30.558       26.206       23.594      933.765      686.741      556.667        0.165        0.109       27.390       22.156        0.654      343.149       19.057      864.054
07/23/2014  04:14:00       33.325       13.019        7.164       18.587       20.948       15.679      345.484      438.809      245.816        0.118        0.052       35.778        9.018        0.064      343.107       18.986      864.031
07/23/2014  04:15:00       14.858       16.085       -5.295       16.854       20.764        8.599      284.052      431.142       73.937        0.065        0.039       21.897        7.473        0.116      343.068       18.920      864.026
07/23/2014  04:16:00       19.326        4.354        2.294       12.615       18.074       11.674      159.149      326.655      136.276        0.051        0.031       19.810        7.032        0.126      343.027       18.848      864.037
07/23/2014  04:17:00       26.695       18.647       -1.128       29.242       18.816       15.342      855.093      354.036      235.365        0.125        0.072       32.563       10.371        0.101      342.965       18.744      864.058
07/23/2014  04:18:00      113.798       73.874        5.308       47.335       28.397       21.888     2240.586      806.407      479.105        1.098        0.176      135.674       11.347        0.007      342.932       18.689      864.044
07/23/2014  04:19:00      137.142       70.414        6.086       48.345       46.849       27.473     2337.286     2194.821      754.778        1.454        0.264      154.163       10.767        0.005      342.945       18.710      864.045
07/23/2014  04:20:00       25.995        3.796       40.074       45.281       45.735       30.658     2050.324     2091.657      939.940        0.369        0.254       26.271       29.443        1.256      343.008       18.817      864.079
07/23/2014  04:21:00       66.332      100.580       94.984       66.864       55.592       40.949     4470.815     3090.485     1676.834        1.639        0.462      120.483       38.278        0.101      342.979       18.768      864.073
07/23/2014  04:22:00       40.376       77.509       99.861       46.331       36.836       25.387     2146.591     1356.899      644.496        1.088        0.207       87.395       22.322        0.065      343.044       18.879      864.078
07/23/2014  04:23:00       60.994       68.289       86.894       58.082       44.048       35.468     3373.489     1940.259     1258.005        1.125        0.329       91.562       38.916        0.181      343.139       19.039      864.077
07/23/2014  04:24:00       11.711       65.116       88.566       28.643       44.640       22.544      820.439     1992.742      508.216        0.777        0.166       66.161       26.497        0.160      343.186       19.121      864.067
07/23/2014  04:25:00       91.308       57.851       71.595       65.861       38.961       43.795     4337.679     1517.983     1918.002        1.229        0.389      108.093       38.403        0.126      343.029       18.853      864.048
07/23/2014  04:26:00      111.236       47.621       36.727       59.016       41.897       42.433     3482.935     1755.322     1800.531        1.151        0.352      121.001       35.145        0.084      342.882       18.603      864.040
07/23/2014  04:27:00       88.747       51.855       16.439       46.694       32.463       27.348     2180.317     1053.827      747.895        0.741        0.199      102.786       23.132        0.051      342.773       18.418      864.069
07/23/2014  04:28:00      139.441       75.994       16.650       48.304       41.849       31.328     2333.320     1751.308      981.431        1.528        0.253      158.805       24.468        0.024      342.728       18.341      864.049
07/23/2014  04:29:00      130.424       87.787        7.551       43.522       37.890       27.679     1894.133     1435.627      766.128        1.443        0.205      157.216       19.071        0.015      342.802       18.465      864.026
07/23/2014  04:30:00       64.478       54.467        4.668       55.700       36.398       28.044     3102.533     1324.804      786.446        0.618        0.261       84.404       23.000        0.074      342.858       18.562      864.053
07/23/2014  04:31:00        3.118       18.883       -6.993       41.725       22.062       16.166     1740.960      486.733      261.335        0.145        0.124       19.138       19.257        1.012      342.818       18.493      864.099
07/23/2014  04:32:00      -85.988        3.145      -12.666       33.143       31.575       16.814     1098.471      997.007      282.706        0.497        0.119       86.046       12.395        0.021      342.802       18.467      864.117
07/23/2014  04:33:00      -39.645       20.996        0.623       26.066       13.344       10.973      679.413      178.061      120.408        0.150        0.049       44.862       13.155        0.086      342.695       18.284      864.117
07/23/2014  04:34:00       93.540       76.129       10.244       41.084       26.999       20.197     1687.924      728.926      407.907        0.874        0.141      120.604       17.608        0.021      342.864       18.571      864.081
07/23/2014  04:35:00       56.192       36.406       10.265       30.017       25.177       21.276      901.032      633.863      452.686        0.329        0.099       66.954       15.768        0.055      342.760       18.396      864.038
07/23/2014  04:36:00       59.095       37.593       -4.914       33.269       24.179       18.221     1106.841      584.643      332.015        0.348        0.101       70.039       13.014        0.035      342.779       18.428      864.019
07/23/2014  04:37:00       68.077       18.571        1.654       27.574       24.395       23.013      760.310      595.132      529.603        0.343        0.094       70.565       15.945        0.051      342.854       18.556      864.046
07/23/2014  04:38:00       20.679       25.860       24.276       26.666       21.792       24.059      711.073      474.896      578.859        0.172        0.088       33.111       23.048        0.485      342.905       18.642      864.077
07/23/2014  04:39:00      108.010       74.998       63.877       67.893       29.365       36.938     4609.476      862.308     1364.436        1.410        0.342      131.495       33.290        0.064      343.014       18.827      864.057
07/23/2014  04:40:00      149.142       86.208       44.274       43.542       49.262       38.849     1895.906     2426.716     1509.277        1.873        0.292      172.265       25.934        0.023      342.943       18.707      864.057
07/23/2014  04:41:00      114.704      104.426       67.846       39.162       28.361       44.828     1533.665      804.372     2009.557        1.651        0.217      155.118       31.905        0.042      342.989       18.784      864.089
07/23/2014  04:42:00       32.618      106.635       97.780       41.145       33.625       25.185     1692.919     1130.652      634.295        1.273        0.173      111.512       20.364        0.033      343.059       18.905      864.116
07/23/2014  04:43:00        4.363       46.652       73.863       26.129       35.312       22.175      682.715     1246.912      491.735        0.504        0.121       46.856       20.775        0.197      342.928       18.681      864.122
07/23/2014  04:44:00       43.786       18.165       40.166       47.483       48.961       34.861     2254.625     2397.227     1215.300        0.486        0.293       47.404       34.956        0.544      342.880       18.599      864.117
07/23/2014  04:45:00       23.564      -25.319       21.709       35.492       30.820       18.817     1259.683      949.863      354.092        0.212        0.128       34.588       19.694        0.324      342.823       18.501      864.117
07/23/2014  04:46:00       -1.611        7.996       24.947       18.882       26.312       21.655      356.514      692.344      468.957        0.110        0.076        8.157        5.702        0.489      342.781       18.431      864.111
07/23/2014  04:47:00       11.507      -15.687       26.652       18.929       39.756       21.952      358.323     1580.571      481.881        0.175        0.121       19.455       18.713        0.925      342.762       18.399      864.118
07/23/2014  04:48:00       33.399      -29.784       15.781       20.977       39.904       20.053      440.026     1592.293      402.137        0.234        0.122       44.751       14.653        0.107      342.740       18.362      864.118
07/23/2014  04:49:00       80.406       59.002       17.943       43.270       39.805       25.499     1872.331     1584.433      650.191        0.719        0.205       99.732       18.707        0.035      342.643       18.198      864.091
07/23/2014  04:50:00      147.591       72.150       14.482       47.990       27.506       26.399     2303.058      756.584      696.899        1.548        0.188      164.282       14.910        0.008      342.514       17.975      864.064
07/23/2014  04:51:00      151.017       68.334        6.426       47.785       29.467       28.710     2283.387      868.292      824.256        1.575        0.199      165.758       18.515        0.012      342.410       17.800      864.066
07/23/2014  04:52:00       39.671       30.398       17.699       67.047       36.928       26.191     4495.272     1363.666      685.952        0.468        0.327       49.978       20.275        0.165      342.416       17.810      864.082
07/23/2014  04:53:00       -9.267      -40.867        1.104       15.260       16.567       17.406      232.876      274.467      302.971        0.128        0.041       41.904        2.171        0.003      342.512       17.975      864.088
07/23/2014  04:54:00       10.542        4.139       14.179       15.281       28.156       13.736      233.516      792.768      188.676        0.077        0.061       11.325        6.502        0.330      342.516       17.980      864.066
07/23/2014  04:55:00       79.415       39.374       18.802       36.696       24.179       27.611     1346.576      584.634      762.376        0.545        0.135       88.640       14.482        0.027      342.553       18.043      864.038
07/23/2014  04:56:00       60.197       26.214       14.848       34.797       22.449       19.731     1210.822      503.942      389.327        0.332        0.105       65.657       16.184        0.061      342.543       18.026      864.045
07/23/2014  04:57:00       80.373       24.106       15.156       42.366       26.103       28.971     1794.901      681.360      839.295        0.529        0.166       83.910       25.774        0.094      342.633       18.179      864.050
07/23/2014  04:58:00       96.107       40.741        5.674       34.336       22.058       23.751     1178.951      486.542      564.115        0.658        0.111      104.386       19.655        0.035      342.588       18.103      864.059
07/23/2014  04:59:00       91.980       23.917        7.424       41.659       31.606       24.320     1735.445      998.948      591.472        0.621        0.166       95.039       16.488        0.030      342.572       18.076      864.048
07/23/2014  05:00:00       99.599       26.955       -0.005       49.074       38.791       29.223     2408.225     1504.739      854.004        0.771        0.238      103.182       19.797        0.037      342.622       18.159      864.043
07/23/2014  05:01:00       58.223       36.977       20.445       32.684       26.410       24.240     1068.220      697.463      587.570        0.376        0.118       68.973       14.813        0.046      342.518       17.983      864.049
07/23/2014  05:02:00       31.299       24.235        6.074       22.950       20.568       17.533      526.700      423.028      307.408        0.143        0.063       39.585       11.981        0.092      342.425       17.826      864.058
07/23/2014  05:03:00       18.267       20.425        3.481       20.934       22.534       18.120      438.214      507.785      328.341        0.102        0.064       27.402       12.102        0.195      342.556       18.048      864.065
07/23/2014  05:04:00       13.835       81.466       -8.658       17.579       31.344       12.432      309.027      982.456      154.559        0.417        0.072       82.632       12.219        0.022      342.697       18.289      864.082
07/23/2014  05:05:00       26.029       52.389       -2.144       13.081       29.473       14.000      171.110      868.644      195.996        0.233        0.062       58.499       12.938        0.049      342.602       18.127      864.099
07/23/2014  05:06:00       40.624       38.166        7.223       18.407       13.995       16.778      338.810      195.872      281.502        0.199        0.041       55.740        8.940        0.026      342.492       17.940      864.113
07/23/2014  05:07:00       49.720       37.485        2.364       23.434       20.058       16.060      549.164      402.307      257.910        0.255        0.060       62.267       13.935        0.050      342.537       18.016      864.119
07/23/2014  05:08:00       53.446       42.225        6.863       23.641       17.487       16.939      558.910      305.810      286.930        0.292        0.058       68.113       11.838        0.030      342.551       18.039      864.121
07/23/2014  05:09:00       32.176       31.475        3.784       18.637       14.247       14.244      347.341      202.986      202.883        0.140        0.038       45.011       10.472        0.054      342.511       17.972      864.116
07/23/2014  05:10:00       32.545       27.377       -5.038       18.084       18.654       10.199      327.031      347.956      104.027        0.131        0.039       42.528        8.617        0.041      342.638       18.188      864.107
07/23/2014  05:11:00       34.507       44.550        3.667       21.265       25.505       18.627      452.206      650.484      346.955        0.232        0.072       56.351       15.683        0.077      342.687       18.272      864.092
07/23/2014  05:12:00       55.617       52.534       11.015       40.291       23.622       25.822     1623.334      558.021      666.773        0.441        0.142       76.505       20.443        0.071      342.752       18.382      864.080
07/23/2014  05:13:00       64.586       54.749        9.933       38.419       24.609       20.607     1475.994      605.622      424.636        0.489        0.125       84.669       15.412        0.033      342.794       18.453      864.082
07/23/2014  05:14:00       34.706       25.675       13.181       24.261       15.297       15.151      588.610      234.012      229.548        0.154        0.053       43.171        9.297        0.046      342.732       18.348      864.103
07/23/2014  05:15:00       32.360       18.720       -3.337       12.794        9.998        8.852      163.685       99.970       78.355        0.088        0.017       37.385        6.496        0.030      342.804       18.471      864.147
07/23/2014  05:16:00       15.681        4.597       -3.254        8.059        7.935        6.140       64.941       62.966       37.700        0.022        0.008       16.341        5.896        0.130      342.875       18.592      864.184
07/23/2014  05:17:00       41.160       22.025        3.293       19.135       18.472        8.104      366.152      341.210       65.682        0.148        0.039       46.682        6.916        0.022      342.924       18.675      864.195
07/23/2014  05:18:00       72.373       29.758        7.690       14.612       15.734       12.144      213.523      247.557      147.485        0.340        0.030       78.252        8.624        0.012      342.918       18.664      864.192
07/23/2014  05:19:00       62.945       12.648        4.412       23.434       16.467       13.143      549.138      271.174      172.742        0.257        0.050       64.203        9.302        0.021      342.798       18.460      864.176
07/23/2014  05:20:00       -0.551        2.148       16.440        9.160       20.934       13.023       83.901      438.216      169.590        0.048        0.035        2.217        5.474        6.096      342.650       18.208      864.169
07/23/2014  05:21:00       12.629       22.808       22.520       18.003       15.203        9.541      324.125      231.119       91.038        0.092        0.032       26.071        6.403        0.060      342.637       18.185      864.164
07/23/2014  05:22:00       67.606       22.812       15.337       22.250       13.436       16.580      495.045      180.524      274.883        0.314        0.048       71.351       10.963        0.024      342.753       18.382      864.160
07/23/2014  05:23:00       57.586       17.207       21.124       27.461       16.336       17.613      754.097      266.876      310.223        0.269        0.067       60.102       14.006        0.054      342.721       18.329      864.172
07/23/2014  05:24:00        9.158        8.043       33.790       18.594       36.134       18.971      345.721     1305.698      359.891        0.165        0.101       12.189       19.533        2.568      342.759       18.393      864.200
07/23/2014  05:25:00       34.784      -82.640        5.527       39.061       39.674       38.578     1525.800     1574.056     1488.293        0.633        0.229       89.662       30.869        0.119      342.660       18.224      864.233
07/23/2014  05:26:00       43.680      -75.971       -8.247       35.456       49.125       35.559     1257.094     2413.300     1264.475        0.634        0.247       87.633       37.234        0.181      342.606       18.133      864.274
07/23/2014  05:27:00        9.635      -83.221        0.543       26.623       16.158       19.773      708.807      261.095      390.980        0.419        0.068       83.777       16.473        0.039      342.588       18.102      864.291
07/23/2014  05:28:00       14.009      -22.510       30.618       23.469       36.770       22.171      550.810     1352.066      491.574        0.202        0.120       26.513       21.268        0.643      342.616       18.151      864.303
07/23/2014  05:29:00       26.044      -15.696       30.671       25.368       34.281       27.435      643.528     1175.177      752.680        0.222        0.129       30.408       23.935        0.620      342.515       17.979      864.307
07/23/2014  05:30:00       10.157       -0.920       29.439       20.079       22.339       17.450      403.182      499.044      304.497        0.109        0.060       10.198       10.255        1.011      342.400       17.781      864.295
07/23/2014  05:31:00       13.869      -28.332       17.597       17.632       34.569       15.068      310.905     1195.024      227.041        0.152        0.087       31.544        8.462        0.072      342.442       17.855      864.286
07/23/2014  05:32:00       13.069      -62.133       20.981       18.321       26.833       19.864      335.648      720.017      394.584        0.296        0.073       63.493       15.131        0.057      342.587       18.100      864.288
07/23/2014  05:33:00        3.012       19.790       31.734       12.181       27.032       13.784      148.369      730.728      189.992        0.124        0.053       20.018        7.017        0.123      342.561       18.057      864.287
07/23/2014  05:34:00       31.878       41.382       43.378       21.891       17.030       11.561      479.206      290.022      133.654        0.276        0.045       52.237        6.362        0.015      342.674       18.249      864.287
07/23/2014  05:35:00       43.621       16.771       29.928       17.914       14.276       13.965      320.894      203.798      195.029        0.190        0.036       46.734       10.478        0.050      342.565       18.064      864.302
07/23/2014  05:36:00       53.951       20.818       21.749       29.968       21.167       25.743      898.096      448.063      662.694        0.291        0.100       57.828       15.878        0.075      342.577       18.084      864.327
07/23/2014  05:37:00       62.403       37.183       27.775       17.824       13.225       18.462      317.703      174.906      340.828        0.344        0.042       72.641       12.379        0.029      342.637       18.186      864.352
07/23/2014  05:38:00       35.417       45.274       40.594       36.137       25.988       18.283     1305.901      675.352      334.269        0.363        0.116       57.481       20.478        0.127      342.566       18.067      864.369
07/23/2014  05:39:00        3.483       30.396       50.561       15.072       28.212       19.038      227.175      795.919      362.439        0.244        0.069       30.595       19.660        0.413      342.487       17.930      864.383
07/23/2014  05:40:00       -3.157       21.111       37.971       10.661       18.272       15.240      113.667      333.863      232.267        0.129        0.034       21.346       14.938        0.490      342.462       17.890      864.370
07/23/2014  05:41:00       15.146        3.983       -0.907        8.802        6.793       12.945       77.469       46.147      167.585        0.027        0.015       15.661        7.899        0.254      342.608       18.137      864.345
07/23/2014  05:42:00        4.947        8.675        0.226       11.364       11.769        8.984      129.146      138.521       80.706        0.022        0.017        9.986        7.754        0.603      342.675       18.253      864.332
07/23/2014  05:43:00       12.566       -3.399       -3.596        9.508        9.735        8.443       90.410       94.764       71.280        0.022        0.013       13.017        7.494        0.331      342.670       18.244      864.338
07/23/2014  05:44:00        8.310       15.624        3.841        7.282        7.136        5.367       53.033       50.921       28.803        0.023        0.007       17.697        3.476        0.039      342.648       18.206      864.346
07/23/2014  05:45:00       -0.064       35.793       -5.140       13.728       11.409        7.325      188.466      130.167       53.656        0.084        0.019       35.793        6.847        0.037      342.613       18.146      864.353
07/23/2014  05:46:00      -19.485       54.017      -12.504       21.067       21.213        8.524      443.800      449.971       72.652        0.221        0.048       57.424        8.462        0.022      342.698       18.291      864.349
07/23/2014  05:47:00      -47.542       18.394       -7.050       14.993       16.376        7.333      224.797      268.157       53.767        0.160        0.027       50.976        6.440        0.016      342.512       17.973      864.349
07/23/2014  05:48:00      -67.138       26.062      -17.559       15.632       23.325       14.850      244.345      544.058      220.518        0.325        0.050       72.019        9.109        0.016      342.566       18.067      864.347
07/23/2014  05:49:00      -53.033       -2.445       -9.067       15.115       19.461       10.965      228.470      378.729      120.235        0.181        0.036       53.089        6.141        0.013      342.598       18.119      864.354
07/23/2014  05:50:00      -53.560       -7.624       -7.956       10.861        9.900        8.947      117.966       98.010       80.050        0.164        0.015       54.100        6.332        0.014      342.608       18.137      864.355
07/23/2014  05:51:00      -43.556      -19.644       -7.266       32.770       19.658       13.444     1073.848      386.438      180.731        0.199        0.082       47.781       14.967        0.098      342.557       18.049      864.378
07/23/2014  05:52:00      -63.986       -8.775       -9.437       20.377       19.968       10.692      415.240      398.703      114.317        0.259        0.046       64.585        9.669        0.022      342.525       17.995      864.395
07/23/2014  05:53:00      -51.407        2.925       -3.675       18.396       14.604       12.780      338.402      213.275      163.317        0.169        0.036       51.490       11.019        0.046      342.478       17.917      864.403
07/23/2014  05:54:00      -65.098       14.679      -13.091       30.985       19.018       19.123      960.049      361.688      365.687        0.316        0.084       66.733       18.199        0.074      342.539       18.019      864.390
07/23/2014  05:55:00      -61.542        4.834      -14.826       25.241       23.240       13.302      637.108      540.107      176.954        0.269        0.068       61.731        4.534        0.005      342.440       17.851      864.381
07/23/2014  05:56:00      -58.697      -32.922      -14.714       33.483       36.036       15.758     1121.135     1298.572      248.303        0.371        0.133       67.300       14.581        0.047      342.367       17.726      864.380
07/23/2014  05:57:00      -75.301      -45.399       -4.593       48.141       31.522       23.875     2317.545      993.638      570.028        0.582        0.194       87.928       22.575        0.066      342.370       17.732      864.397
07/23/2014  05:58:00      -66.525      -59.884        3.693       63.034       31.568       24.416     3973.273      996.537      596.123        0.679        0.278       89.508       14.177        0.025      342.404       17.789      864.432
07/23/2014  05:59:00      -84.639      -50.240       -3.723       47.050       20.710       15.745     2213.730      428.893      247.908        0.630        0.145       98.427        7.495        0.006      342.392       17.771      864.477
07/23/2014  06:00:00      -78.511      -38.627       -4.961       59.709       25.798       19.808     3565.142      665.520      392.365        0.615        0.231       87.499       22.564        0.067      342.486       17.930      864.493
07/23/2014  06:01:00     -137.364      -37.010       -9.172       30.752       28.007       19.077      945.681      784.366      363.922        1.121        0.105      142.262       17.395        0.015      342.523       17.992      864.475
07/23/2014  06:02:00     -183.344       15.145      -17.183       25.959       19.744       14.316      673.877      389.819      204.936        1.770        0.063      183.969       11.979        0.004      342.440       17.851      864.437
07/23/2014  06:03:00     -210.587       20.466      -25.218       26.537       27.148       16.459      704.234      736.994      270.890        2.356        0.086      211.579       12.003        0.003      342.411       17.800      864.412
07/23/2014  06:04:00     -174.527       38.579       -6.247       77.573       47.623       27.316     6017.608     2267.933      746.185        2.051        0.452      178.740       34.399        0.037      342.484       17.922      864.384
07/23/2014  06:05:00     -161.695       29.563      -15.044       58.130       46.964       40.794     3379.062     2205.574     1664.155        1.725        0.362      164.375       31.887        0.038      342.408       17.797      864.374
07/23/2014  06:06:00     -108.041      -22.136      -19.197       62.621       45.485       24.796     3921.369     2068.847      614.834        0.957        0.330      110.285       26.420        0.057      342.439       17.849      864.381
07/23/2014  06:07:00      -65.928      -52.346       -4.757       58.251       27.953       19.579     3393.159      781.372      383.329        0.583        0.228       84.182       21.442        0.065      342.432       17.839      864.403
07/23/2014  06:08:00      -49.925      -47.060        5.350       66.329       34.804       28.287     4399.537     1211.316      800.131        0.557        0.321       68.608       28.417        0.172      342.359       17.713      864.419
07/23/2014  06:09:00      -46.435      -39.895       -0.924       43.224       25.401       22.761     1868.312      645.197      518.077        0.339        0.152       61.220       17.246        0.079      342.345       17.688      864.449
07/23/2014  06:10:00      -78.823      -37.283        0.528       37.877       29.745       13.887     1434.647      884.760      192.843        0.506        0.126       87.196       14.057        0.026      342.530       18.006      864.471
07/23/2014  06:11:00     -181.480      -39.905      -26.440       28.644       29.605       16.857      820.498      876.436      284.163        1.860        0.099      185.815       13.790        0.006      342.564       18.061      864.457
07/23/2014  06:12:00     -197.553       13.222      -16.299       39.536       31.212       22.335     1563.093      974.196      498.836        2.125        0.152      197.995       20.169        0.010      342.449       17.866      864.427
07/23/2014  06:13:00     -209.803       38.569      -24.320       46.167       35.802       26.279     2131.347     1281.786      690.583        2.510        0.205      213.318       23.867        0.013      342.453       17.870      864.410
07/23/2014  06:14:00     -161.097       46.252      -10.386       55.856       41.016       32.395     3119.892     1682.350     1049.468        1.702        0.293      167.605       30.234        0.033      342.447       17.861      864.406
07/23/2014  06:15:00     -138.957       61.150       -9.147       88.579       41.234       39.409     7846.293     1700.228     1553.030        1.711        0.555      151.817       46.216        0.093      342.478       17.915      864.393
07/23/2014  06:16:00     -103.637       91.621      -19.986       57.902       73.053       31.067     3352.622     5336.751      965.152        1.459        0.483      138.329       36.497        0.070      342.531       18.005      864.379
07/23/2014  06:17:00     -130.757       87.977      -18.361       40.817       68.985       29.139     1666.000     4758.910      849.095        1.622        0.364      157.599       25.866        0.027      342.555       18.045      864.388
07/23/2014  06:18:00      -95.432       27.190      -16.079       32.888       25.677       19.680     1081.600      659.311      387.312        0.612        0.106       99.230       15.430        0.024      342.497       17.949      864.418
07/23/2014  06:19:00      -76.474      -15.737      -17.609       37.768       28.664       25.248     1426.423      821.653      637.475        0.465        0.144       78.077       20.426        0.068      342.496       17.946      864.446
07/23/2014  06:20:00      -95.941      -27.252       -0.118       37.158       23.809       16.733     1380.750      566.882      280.001        0.609        0.111       99.737       17.000        0.029      342.397       17.780      864.468
07/23/2014  06:21:00     -120.695      -29.298      -14.296       27.658       31.509       15.621      764.958      992.809      244.002        0.882        0.100      124.200       11.807        0.009      342.473       17.907      864.486
07/23/2014  06:22:00     -153.614      -52.318      -16.266       22.852       37.664       18.321      522.203     1418.596      335.673        1.444        0.114      162.278       12.268        0.006      342.362       17.718      864.498
07/23/2014  06:23:00     -173.110      -19.907      -18.229       39.250       30.091       24.619     1540.561      905.444      606.109        1.687        0.153      174.251       21.417        0.015      342.368       17.729      864.500
07/23/2014  06:24:00     -183.964      -64.543      -20.227       46.037       52.385       29.335     2119.379     2744.168      860.520        2.207        0.286      194.958       25.433        0.017      342.365       17.722      864.471
07/23/2014  06:25:00     -167.377      -39.502      -15.979       45.254       48.919       27.556     2047.886     2393.110      759.327        1.751        0.260      171.975       21.204        0.015      342.388       17.760      864.444
07/23/2014  06:26:00     -166.110      -12.094      -22.820       51.567       40.118       26.630     2659.111     1609.441      709.160        1.662        0.249      166.549       26.094        0.025      342.380       17.748      864.424
07/23/2014  06:27:00     -156.873        5.698      -23.114       45.689       39.349       25.311     2087.478     1548.356      640.659        1.473        0.214      156.976       20.654        0.017      342.415       17.807      864.420
07/23/2014  06:28:00     -155.288      -34.210      -17.196       37.449       59.894       25.734     1402.463     3587.319      662.220        1.562        0.283      159.012       23.544        0.022      342.500       17.952      864.423
07/23/2014  06:29:00      -83.007      -64.687       -5.014       65.028       54.664       33.352     4228.676     2988.207     1112.389        0.971        0.416      105.236       33.840        0.103      342.466       17.895      864.446
07/23/2014  06:30:00     -155.469      -41.427      -17.428       62.416       46.511       26.138     3895.711     2163.229      683.189        1.647        0.337      160.894       21.745        0.018      342.539       18.019      864.463
07/23/2014  06:31:00     -152.392       11.650      -16.790       44.704       52.618       28.690     1998.408     2768.649      823.113        1.461        0.280      152.837       21.643        0.020      342.531       18.005      864.467
07/23/2014  06:32:00     -107.551       51.336      -10.229       54.693       43.311       25.004     2991.350     1875.837      625.209        0.990        0.275      119.175       21.486        0.033      342.594       18.114      864.460
07/23/2014  06:33:00        5.360       -4.564       16.494       60.082       61.547       42.478     3609.847     3788.002     1804.410        0.476        0.460        7.040       29.082       17.067      342.631       18.176      864.476
07/23/2014  06:34:00      -42.928      -48.834       -9.278       34.220       46.305       25.528     1170.977     2144.161      651.701        0.414        0.198       65.020       20.517        0.100      342.706       18.304      864.506
07/23/2014  06:35:00      -29.104      -55.894       -4.300       18.921       37.294       19.908      358.010     1390.845      396.317        0.307        0.107       63.017       16.358        0.067      342.735       18.352      864.543
07/23/2014  06:36:00     -164.609      -97.289      -10.996       72.012       43.064       25.801     5185.786     1854.512      665.681        2.219        0.385      191.210       32.500        0.029      342.687       18.270      864.564
07/23/2014  06:37:00     -189.541      -32.751      -18.139       33.262       33.825       17.555     1106.336     1144.098      308.183        1.994        0.128      192.350       14.801        0.006      342.674       18.248      864.570
07/23/2014  06:38:00     -186.664       31.907      -14.739       44.398       32.977       22.291     1971.196     1087.467      496.909        1.982        0.178      189.372       21.484        0.013      342.629       18.172      864.570
07/23/2014  06:39:00     -154.337       42.634      -13.873       53.010       28.146       22.166     2810.100      792.201      491.338        1.496        0.205      160.118       22.448        0.020      342.592       18.109      864.568
07/23/2014  06:40:00     -106.576      105.985      -17.969       39.049       43.768       23.139     1524.799     1915.668      535.404        1.344        0.199      150.304       17.226        0.013      342.627       18.169      864.576
07/23/2014  06:41:00      -59.661       68.179      -10.220       31.351       32.636       18.252      982.890     1065.093      333.121        0.535        0.119       90.597       19.275        0.045      342.680       18.258      864.586
07/23/2014  06:42:00        5.833      -11.497       -0.947       27.595       27.555       12.519      761.475      759.284      156.717        0.092        0.084       12.892        8.133        0.398      342.747       18.372      864.607
07/23/2014  06:43:00       -0.340      -50.540       -3.633       19.100       30.998       15.439      364.825      960.854      238.353        0.207        0.078       50.541       14.104        0.078      342.788       18.441      864.629
07/23/2014  06:44:00        0.283        1.281       33.371       11.715       19.631       14.488      137.252      385.394      209.908        0.092        0.037        1.312       13.103       99.714      342.922       18.670      864.643
07/23/2014  06:45:00        0.483      -16.138       21.044       11.135       10.087       14.834      123.982      101.742      220.040        0.057        0.022       16.146        6.450        0.160      342.922       18.671      864.656
07/23/2014  06:46:00      -36.870      -10.032       -3.579       13.704       10.550        6.400      187.788      111.305       40.962        0.091        0.017       38.210        4.912        0.017      342.856       18.559      864.653
07/23/2014  06:47:00      -14.146      -15.142       -7.363       31.364       18.347        9.008      983.729      336.629       81.140        0.094        0.070       20.722        7.397        0.127      342.842       18.538      864.641
07/23/2014  06:48:00      -27.026       24.284       -5.079       29.863       17.835       10.494      891.812      318.096      110.129        0.133        0.066       36.334       10.787        0.088      342.860       18.564      864.615
07/23/2014  06:49:00      -45.407       21.684      -13.800       20.898       13.568       11.722      436.747      184.097      137.413        0.174        0.038       50.319        8.942        0.032      342.915       18.660      864.593
07/23/2014  06:50:00      -32.139       27.214       -4.560       13.825       13.362       12.169      191.137      178.544      148.074        0.116        0.026       42.113        8.414        0.040      342.933       18.689      864.579
07/23/2014  06:51:00      -60.635       -6.361       -8.615       12.282       19.544       10.260      150.852      381.981      105.267        0.221        0.032       60.968        6.526        0.011      342.947       18.712      864.575
07/23/2014  06:52:00        0.918      -21.253        1.958       21.284       17.986       16.865      453.011      323.498      284.425        0.076        0.053       21.273       13.630        0.411      343.048       18.887      864.574
07/23/2014  06:53:00      -18.784      -20.401       -8.001       15.917       12.971       11.941      253.350      168.235      142.587        0.070        0.028       27.732        7.810        0.079      343.072       18.926      864.564
07/23/2014  06:54:00      -27.947      -12.853       -7.577       12.079       11.863       11.764      145.898      140.741      138.400        0.071        0.021       30.761        4.827        0.025      343.036       18.864      864.576
07/23/2014  06:55:00      -31.492      -16.049       -2.943        9.486        8.258        7.673       89.988       68.190       58.881        0.074        0.011       35.346        4.971        0.020      343.031       18.858      864.582
07/23/2014  06:56:00       -2.521      -12.160       -2.214        8.414        9.316        7.659       70.797       86.782       58.655        0.019        0.011       12.419        6.948        0.313      343.085       18.947      864.574
07/23/2014  06:57:00      -29.356       -4.244       -4.725        6.768        5.902        4.963       45.803       34.828       24.632        0.050        0.005       29.661        3.357        0.013      343.038       18.866      864.595
07/23/2014  06:58:00      -35.727        4.936       -2.610        6.594        7.395        6.531       43.484       54.692       42.659        0.072        0.007       36.066        3.628        0.010      343.123       19.012      864.587
07/23/2014  06:59:00      -33.652        7.759       -1.616       19.036       10.454       10.597      362.384      109.281      112.287        0.089        0.029       34.535        7.601        0.048      343.124       19.015      864.590
07/23/2014  07:00:00      -19.203       16.787       -4.384       15.772       11.025        7.281      248.770      121.557       53.014        0.055        0.021       25.506        5.435        0.045      343.202       19.149      864.579
07/23/2014  07:01:00       -4.072       20.257        2.693       17.134       13.540       10.723      293.579      183.343      114.993        0.051        0.030       20.662        7.498        0.132      343.358       19.414      864.566
07/23/2014  07:02:00      -33.582        1.353       -6.649       21.247       32.949       10.039      451.414     1085.605      100.784        0.141        0.082       33.609       13.563        0.163      343.208       19.158      864.589
07/23/2014  07:03:00      -12.599      -27.652       -4.125       12.656       11.443       11.669      160.168      130.941      136.174        0.068        0.021       30.387        3.790        0.016      343.162       19.079      864.619
07/23/2014  07:04:00       -9.071      -51.086       -8.992       11.137       14.540       10.087      124.035      211.412      101.745        0.160        0.022       51.885        4.903        0.009      343.240       19.211      864.651
07/23/2014  07:05:00       -4.255      -63.314       -3.886       21.548       16.868       20.257      464.323      284.524      410.334        0.260        0.058       63.457       13.578        0.046      343.355       19.407      864.657
07/23/2014  07:06:00      -40.530      -35.886        2.524       36.707       16.216       16.825     1347.435      262.972      283.077        0.241        0.095       54.134       19.731        0.133      343.345       19.390      864.681
07/23/2014  07:07:00      -51.299      -28.558        5.217       19.592       22.598       14.927      383.859      510.685      222.826        0.230        0.056       58.713       10.430        0.032      343.281       19.282      864.691
07/23/2014  07:08:00      -16.812       22.167        6.149       23.460       18.519       14.462      550.376      342.955      209.139        0.096        0.055       27.821        5.224        0.035      343.365       19.426      864.708
07/23/2014  07:09:00       50.947       40.718        2.064       30.549       15.843       13.659      933.247      250.992      186.578        0.281        0.069       65.220        8.657        0.018      343.293       19.303      864.718
07/23/2014  07:10:00       74.351       42.213       11.048       12.198       12.950       13.719      148.784      167.712      188.224        0.397        0.025       85.498        7.062        0.007      343.360       19.417      864.727
07/23/2014  07:11:00        2.558       -1.978       31.240       25.874       55.887       15.656      669.487     3123.342      245.115        0.251        0.202        3.234       22.160       46.964      343.601       19.828      864.734
07/23/2014  07:12:00       32.488      -94.281      -10.898       27.930       23.053       20.354      780.077      531.441      414.293        0.589        0.086       99.721       17.786        0.032      343.485       19.629      864.740
07/23/2014  07:13:00       47.483      -81.014      -10.344       51.350       45.047       30.770     2636.810     2029.266      946.771        0.727        0.281       93.904       22.341        0.057      343.465       19.595      864.743
07/23/2014  07:14:00      -14.305      -61.269       18.683       26.589       30.751       25.759      706.994      945.593      663.546        0.331        0.116       62.917       20.079        0.102      343.486       19.631      864.742
07/23/2014  07:15:00       -5.888       13.800       41.732        9.911       23.581       16.246       98.229      556.073      263.926        0.144        0.046       15.004       17.030        1.288      343.895       20.329      864.732
07/23/2014  07:16:00       28.034       30.054       25.037       22.598       25.246       19.873      510.647      637.381      394.927        0.193        0.077       41.099       16.915        0.169      343.771       20.115      864.715
07/23/2014  07:17:00       -2.695       60.262       -8.850       14.063       15.631        8.940      197.771      244.324       79.918        0.212        0.026       60.322        2.273        0.001      343.544       19.729      864.698
07/23/2014  07:18:00      -44.917       44.375      -10.456       21.731       16.100        7.679      472.223      259.218       58.963        0.244        0.040       63.140        4.814        0.006      343.490       19.638      864.710
07/23/2014  07:19:00      -47.377       -1.833       -4.730       11.025       16.388        6.134      121.542      268.575       37.629        0.135        0.021       47.412        5.144        0.012      343.462       19.591      864.731
07/23/2014  07:20:00       -4.046      -12.871        2.448       10.848        9.784       10.769      117.687       95.723      115.966        0.026        0.016       13.492        8.064        0.357      343.699       19.996      864.750
07/23/2014  07:21:00       -4.076       -0.267       16.147       16.204       13.741        9.554      262.566      188.806       91.284        0.041        0.027        4.085        3.648        0.798      343.980       20.475      864.768
07/23/2014  07:22:00      -10.655       15.254       33.712       10.852       19.373       23.366      117.776      375.295      545.987        0.126        0.052       18.607       12.864        0.478      344.133       20.735      864.783
07/23/2014  07:23:00       -6.631       32.620       69.139       23.054       32.659       20.136      531.468     1066.614      405.445        0.395        0.100       33.287       18.708        0.316      344.177       20.811      864.784
07/23/2014  07:24:00        8.609       30.871       45.375       26.770       30.381       23.320      716.659      922.982      543.824        0.263        0.109       32.049       18.455        0.332      344.039       20.575      864.796
07/23/2014  07:25:00        6.212       16.348       41.006       21.572       24.405       21.887      465.360      595.593      479.023        0.176        0.077       17.488       18.461        1.114      344.050       20.592      864.801
07/23/2014  07:26:00        7.364      -64.647       -4.762       24.030       19.554       14.476      577.431      382.371      209.555        0.271        0.058       65.065       11.234        0.030      343.807       20.179      864.823
07/23/2014  07:27:00      -14.907        0.104       -2.248       14.876       23.965       20.060      221.282      574.340      402.384        0.071        0.060       14.907        7.962        0.285      344.033       20.566      864.843
07/23/2014  07:28:00      -18.994        8.874        5.178        9.904       12.344       10.213       98.086      152.382      104.309        0.041        0.018       20.964        4.014        0.037      343.923       20.376      864.837
07/23/2014  07:29:00       -3.086       10.810       15.726       12.813       12.416       14.520      164.179      154.150      210.822        0.045        0.026       11.242        8.134        0.524      344.233       20.906      864.822
07/23/2014  07:30:00       42.834       28.220       16.345       25.219       21.266       14.859      635.995      452.260      220.776        0.210        0.065       51.295       16.946        0.109      344.137       20.742      864.803
07/23/2014  07:31:00       60.033       51.538       17.355       19.731       16.827       16.508      389.302      283.134      272.509        0.375        0.047       79.121        8.167        0.011      343.956       20.433      864.800
07/23/2014  07:32:00       36.950       61.376       53.321       37.487       27.609       27.195     1405.282      762.259      739.584        0.544        0.145       71.640       18.791        0.069      344.065       20.619      864.806
07/23/2014  07:33:00       95.572       73.641       30.274       36.705       32.917       34.202     1347.243     1083.536     1169.807        0.954        0.180      120.652       23.705        0.039      344.044       20.584      864.821
07/23/2014  07:34:00      111.673       81.127       21.624       49.644       32.177       38.712     2464.511     1035.381     1498.648        1.226        0.250      138.031       18.940        0.019      344.099       20.679      864.829
07/23/2014  07:35:00      110.284       83.459       15.422       52.076       51.603       50.088     2711.915     2662.880     2508.785        1.362        0.394      138.304       37.256        0.073      344.025       20.552      864.826
07/23/2014  07:36:00       96.379       54.987       56.977       67.846       42.450       41.977     4603.121     1801.989     1762.047        1.186        0.408      110.962       32.269        0.085      344.101       20.682      864.828
07/23/2014  07:37:00       84.236       60.670       59.676       48.408       56.453       35.911     2343.370     3186.946     1289.571        1.058        0.341      103.810       35.906        0.120      344.112       20.701      864.850
07/23/2014  07:38:00       41.250       88.023       83.421       55.195       37.423       35.451     3046.439     1400.499     1256.804        1.106        0.285       97.209       28.356        0.085      344.083       20.651      864.880
07/23/2014  07:39:00        5.569       -2.970       35.089       24.442       42.263       27.556      597.410     1786.197      759.334        0.221        0.157        6.312       15.676        6.168      344.294       21.011      864.884
07/23/2014  07:40:00       94.206       83.152       53.563       60.878       26.015       31.000     3706.155      676.773      961.014        1.200        0.267      125.654       29.289        0.054      344.052       20.598      864.892
07/23/2014  07:41:00       36.598       81.568       72.623       54.780       37.283       29.552     3000.901     1390.013      873.295        0.926        0.263       89.402       32.356        0.131      344.194       20.840      864.896
07/23/2014  07:42:00       76.571       54.012       51.675       69.687       58.381       49.814     4856.251     3408.343     2481.427        1.110        0.537       93.704       45.532        0.236      344.155       20.773      864.893
07/23/2014  07:43:00      137.570      100.047       70.482       74.732       59.482       54.369     5584.849     3538.064     2956.010        2.299        0.604      170.103       42.438        0.062      344.010       20.523      864.883
07/23/2014  07:44:00      117.166       65.117       31.676       59.520       56.592       40.264     3542.600     3202.605     1621.168        1.367        0.418      134.045       26.666        0.040      343.965       20.448      864.878
07/23/2014  07:45:00      102.203       32.792       13.708       45.944       49.689       34.830     2110.836     2469.039     1213.102        0.875        0.290      107.335       21.266        0.039      344.038       20.572      864.867
07/23/2014  07:46:00       26.347       22.913       26.519       42.221       23.009       21.778     1782.619      529.406      474.275        0.235        0.139       34.917       12.791        0.134      344.371       21.142      864.855
07/23/2014  07:47:00       43.438       48.199       16.173       40.955       39.502       28.554     1677.325     1560.418      815.353        0.426        0.203       64.885       21.206        0.107      344.247       20.931      864.847
07/23/2014  07:48:00       89.051       53.339       17.498       33.727       28.619       26.767     1137.518      819.032      716.453        0.688        0.134      103.803       21.593        0.043      344.078       20.641      864.826
07/23/2014  07:49:00       75.235       35.047        7.692       42.698       34.730       28.120     1823.100     1206.177      790.714        0.538        0.191       82.998       22.542        0.074      344.272       20.974      864.809
07/23/2014  07:50:00       58.446       14.321        2.859       43.332       33.818       24.003     1877.623     1143.681      576.151        0.361        0.180       60.175       15.320        0.065      344.385       21.166      864.800
07/23/2014  07:51:00       73.323       37.191        5.019       33.010       30.036       29.119     1089.672      902.143      847.941        0.481        0.142       82.216       19.723        0.058      344.326       21.066      864.793
07/23/2014  07:52:00       44.818       31.034       22.368       30.945       26.514       23.256      957.593      702.968      540.829        0.284        0.110       54.514       17.033        0.098      344.353       21.112      864.794
07/23/2014  07:53:00       34.710       32.147       18.731       22.584       16.621       22.755      510.046      276.254      517.798        0.195        0.065       47.309       12.454        0.069      344.474       21.319      864.799
07/23/2014  07:54:00       55.114       11.225        7.189       19.161       16.098       15.655      367.147      259.131      245.068        0.204        0.044       56.246       12.833        0.052      344.339       21.087      864.807
07/23/2014  07:55:00       -9.805       16.530        6.481       32.763       13.897       12.371     1073.417      193.132      153.047        0.092        0.071       19.219        5.567        0.084      344.552       21.453      864.816
07/23/2014  07:56:00      -42.043       29.097        3.287       16.778       21.728       15.693      281.500      472.085      246.282        0.181        0.050       51.129        4.298        0.007      344.435       21.251      864.840
07/23/2014  07:57:00      -42.953       24.439        4.875       25.754       18.473       22.959      663.268      341.244      527.103        0.200        0.077       49.419       21.940        0.197      344.667       21.649      864.855
07/23/2014  07:58:00      -20.483       13.026        6.133       25.157       17.082       15.982      632.867      291.793      255.438        0.090        0.059       24.274       14.109        0.338      344.952       22.136      864.874
07/23/2014  07:59:00      -36.349       20.761       -5.114       15.317       22.943       14.706      234.600      526.363      216.257        0.138        0.049       41.860        8.892        0.045      344.605       21.542      864.900
07/23/2014  08:00:00      -56.881       41.125       -8.004       11.655       19.032       13.153      135.847      362.199      173.002        0.283        0.034       70.190        9.184        0.017      344.518       21.394      864.916
07/23/2014  08:01:00      -15.914       11.142       16.797       16.024       19.808       19.156      256.763      392.354      366.968        0.084        0.051       19.427       11.833        0.371      345.078       22.353      864.931
07/23/2014  08:02:00      -10.258       -2.818       20.708       15.668       21.530       10.547      245.493      463.547      111.230        0.068        0.041       10.638        6.638        0.389      345.451       22.992      864.943
07/23/2014  08:03:00       -9.236      -17.799       24.004       14.642       21.609       10.773      214.390      466.928      116.065        0.089        0.040       20.052        5.999        0.090      345.207       22.574      864.947
07/23/2014  08:04:00       13.139       11.731       14.398       12.661       15.394       13.699      160.312      236.971      187.656        0.055        0.029       17.614       10.018        0.323      345.235       22.622      864.962
07/23/2014  08:05:00       11.885       28.595       24.737       14.636       17.573       14.793      214.223      308.804      218.823        0.116        0.037       30.967        8.230        0.071      345.317       22.761      864.977
07/23/2014  08:06:00      -10.988       14.300       14.484       19.684       17.300       11.857      387.478      299.307      140.586        0.068        0.041       18.034       10.966        0.370      345.134       22.447      864.992
07/23/2014  08:07:00      -24.629       -8.026        3.504       15.007       13.051       12.998      225.212      170.327      168.957        0.062        0.028       25.904        8.604        0.110      344.947       22.127      864.999
07/23/2014  08:08:00      -19.310       14.746        5.104       13.814       18.470       19.677      190.823      341.136      387.180        0.077        0.046       24.296       11.881        0.239      345.392       22.890      864.988
07/23/2014  08:09:00       -6.370       16.069       38.105       12.103       23.837       19.599      146.493      568.193      384.107        0.142        0.055       17.285       17.371        1.010      345.927       23.809      864.986
07/23/2014  08:10:00       -2.120       40.109       50.069       23.599       31.248       16.667      556.899      976.429      277.802        0.297        0.091       40.165        9.492        0.056      345.536       23.139      864.969
07/23/2014  08:11:00       17.048       41.756       34.910       25.710       30.080       19.378      661.029      904.816      375.520        0.260        0.097       45.102        8.516        0.036      345.477       23.036      864.950
07/23/2014  08:12:00       27.125       27.939       29.359       26.590       27.977       25.497      707.014      782.737      650.094        0.226        0.107       38.940       18.828        0.234      345.518       23.107      864.936
07/23/2014  08:13:00       57.042       42.716        8.719       61.758       30.806       34.569     3814.064      949.003     1195.028        0.556        0.298       71.263       23.929        0.113      345.482       23.044      864.924
07/23/2014  08:14:00       76.685       49.973       29.944       39.080       31.438       30.776     1527.224      988.338      947.173        0.637        0.173       91.531       20.441        0.050      345.195       22.552      864.915
07/23/2014  08:15:00      113.205       62.655       19.290       39.602       32.492       35.244     1568.327     1055.744     1242.168        1.049        0.193      129.387       24.839        0.037      345.097       22.383      864.902
07/23/2014  08:16:00      120.860       76.516       18.751       35.897       32.111       39.848     1288.619     1031.097     1587.896        1.236        0.195      143.045        7.573        0.003      345.001       22.221      864.893
07/23/2014  08:17:00      109.936       88.801        5.257       59.174       43.307       33.796     3501.576     1875.485     1142.157        1.326        0.326      141.320       15.878        0.013      345.090       22.372      864.888
07/23/2014  08:18:00      110.792       92.869       13.823       40.663       32.725       33.942     1653.504     1070.896     1152.040        1.248        0.194      144.566       18.115        0.016      344.921       22.082      864.875
07/23/2014  08:19:00       86.140       33.154       20.085       53.531       28.883       29.983     2865.517      834.248      898.975        0.676        0.230       92.300       25.212        0.075      345.380       22.869      864.866
07/23/2014  08:20:00       50.877       45.509        8.249       49.664       29.446       25.889     2466.544      867.063      670.221        0.436        0.200       68.260       21.994        0.104      345.330       22.784      864.862
07/23/2014  08:21:00       61.123       50.172       20.971       42.762       29.207       26.899     1828.577      853.062      723.553        0.505        0.170       79.078       26.504        0.112      345.371       22.853      864.868
07/23/2014  08:22:00       92.056       72.826       16.586       34.611       28.753       27.891     1197.913      826.741      777.897        0.843        0.140      117.379        7.518        0.004      345.174       22.516      864.878
07/23/2014  08:23:00       99.375       68.729       16.944       35.343       25.980       25.438     1249.124      674.949      647.088        0.873        0.129      120.826        8.679        0.005      345.134       22.447      864.894
07/23/2014  08:24:00      109.956       77.309       10.424       25.843       25.902       25.294      667.842      670.903      639.803        1.008        0.099      134.414       17.519        0.017      345.128       22.439      864.906
07/23/2014  08:25:00       78.979       46.078       18.796       41.557       30.783       35.815     1726.977      947.574     1282.689        0.633        0.198       91.438       25.989        0.081      345.336       22.793      864.916
07/23/2014  08:26:00       55.886       60.361       64.781       53.469       43.592       36.413     2858.958     1900.292     1325.917        0.852        0.304       82.260       31.671        0.148      345.637       23.309      864.921
07/23/2014  08:27:00      100.368       95.520       39.744       57.673       30.733       47.967     3326.213      944.508     2300.834        1.367        0.329      138.557       43.237        0.097      345.381       22.870      864.920
07/23/2014  08:28:00      130.426       90.024       -0.284       41.475       36.290       39.542     1720.190     1316.965     1563.541        1.486        0.230      158.478       26.820        0.029      345.389       22.883      864.911
07/23/2014  08:29:00      110.560       79.099        6.854       44.194       36.668       29.149     1953.067     1344.516      849.651        1.134        0.207      135.942       22.765        0.028      345.403       22.908      864.891
07/23/2014  08:30:00      130.584       86.712       17.671       25.141       33.977       29.083      632.070     1154.426      845.817        1.376        0.132      156.752       15.630        0.010      345.330       22.783      864.873
07/23/2014  08:31:00       70.008       60.552       37.284       39.269       35.520       40.167     1542.067     1261.678     1613.377        0.719        0.221       92.562       25.512        0.076      345.584       23.218      864.864
07/23/2014  08:32:00       40.532       66.030       19.241       30.576       31.756       32.116      934.913     1008.449     1031.435        0.467        0.149       77.478       11.037        0.020      345.716       23.445      864.850
07/23/2014  08:33:00       51.070       34.970       46.249       40.433       77.588       53.016     1634.850     6019.932     2810.681        0.822        0.523       61.896       52.185        0.711      345.889       23.742      864.853
07/23/2014  08:34:00       81.115       58.249       99.538       86.626       94.722       72.321     7504.120     8972.306     5230.266        2.079        1.085       99.863       78.117        0.612      345.618       23.277      864.869
07/23/2014  08:35:00      135.115       34.429       35.819       47.590      101.687       49.208     2264.813    10340.218     2421.447        1.787        0.751      139.432       37.748        0.073      345.508       23.087      864.873
07/23/2014  08:36:00       96.009       79.477       43.401       50.608       47.753       42.492     2561.158     2280.344     1805.611        1.203        0.332      124.637       29.356        0.055      345.633       23.302      864.876
07/23/2014  08:37:00       -2.159        1.250       26.917       35.978       36.183       26.172     1294.386     1309.220      684.989        0.201        0.164        2.495        9.593       14.790      346.125       24.147      864.867
07/23/2014  08:38:00       28.572       10.676       43.002       53.717       45.300       36.833     2885.507     2052.097     1356.655        0.454        0.315       30.502       30.074        0.972      346.207       24.288      864.855
07/23/2014  08:39:00       79.480      109.936       83.304       59.540       40.180       46.002     3545.041     1614.395     2116.216        1.631        0.364      135.657       44.623        0.108      345.662       23.352      864.851
07/23/2014  08:40:00       54.877       36.568       71.970       61.882       78.446       52.135     3829.321     6153.772     2718.015        1.111        0.635       65.945       46.061        0.488      345.926       23.805      864.842
07/23/2014  08:41:00       21.613       23.394       63.360       41.393       56.045       53.150     1713.398     3141.094     2824.938        0.635        0.384       31.850       38.426        1.456      346.321       24.485      864.843
07/23/2014  08:42:00       63.673      -11.297       55.851       85.807       98.936       63.074     7362.847     9788.241     3978.351        1.421        1.056       64.668       74.363        1.322      346.059       24.033      864.823
07/23/2014  08:43:00      134.397      -53.474       51.719       91.239      111.605       66.568     8324.619    12455.664     4431.340        2.440        1.261      144.644       75.476        0.272      345.826       23.631      864.818
07/23/2014  08:44:00       45.662       29.080       55.026       63.497       48.874       38.999     4031.851     2388.654     1520.938        0.695        0.397       54.136       36.869        0.464      346.296       24.441      864.826
07/23/2014  08:45:00      107.675       89.083       65.245       68.752       47.771       53.076     4726.803     2282.071     2817.076        1.680        0.491      139.749       42.647        0.093      345.697       23.413      864.833
07/23/2014  08:46:00      117.578       99.051       96.427       74.422       65.735       57.876     5538.632     4321.138     3349.608        2.307        0.660      153.739       23.774        0.024      345.837       23.651      864.863
07/23/2014  08:47:00       56.102       84.310      100.289       74.842       67.580       58.112     5601.290     4567.110     3376.979        1.693        0.677      101.270       45.230        0.199      346.091       24.089      864.881
07/23/2014  08:48:00      121.619      -27.810       52.135       71.695       79.455       67.590     5140.241     6313.082     4568.387        1.715        0.801      124.758       64.725        0.269      345.885       23.733      864.884
07/23/2014  08:49:00       53.083       41.229       87.747       62.687       81.605       56.263     3929.666     6659.429     3165.477        1.298        0.688       67.214       62.146        0.855      346.233       24.333      864.851
07/23/2014  08:50:00       74.948      119.782      116.931       78.759       68.115       45.523     6203.034     4639.604     2072.332        2.327        0.646      141.297       43.203        0.093      345.823       23.628      864.849
07/23/2014  08:51:00       95.398       79.708       75.513       79.570       68.764       67.479     6331.393     4728.543     4553.405        1.838        0.781      124.315       64.456        0.269      345.919       23.793      864.841
07/23/2014  08:52:00       65.402      -15.571       31.037       92.658      101.164       42.472     8585.541    10234.177     1803.837        1.305        1.031       67.230       50.800        0.571      346.119       24.137      864.825
07/23/2014  08:53:00       60.654       60.074       81.103       72.046       59.398       53.343     5190.608     3528.092     2845.470        1.271        0.578       85.369       46.927        0.302      346.078       24.067      864.805
07/23/2014  08:54:00       57.125       32.537       72.791       50.815       66.756       46.904     2582.188     4456.429     2199.948        0.943        0.462       65.741       45.931        0.488      345.994       23.922      864.782
07/23/2014  08:55:00       22.870      -10.762       46.042       39.255       51.646       42.870     1540.987     2667.355     1837.860        0.440        0.302       25.275       37.136        2.159      346.531       24.846      864.762
07/23/2014  08:56:00       73.772      115.240       95.807       81.615       41.614       44.023     6661.028     1731.762     1938.044        1.911        0.517      136.831       49.036        0.128      346.044       24.007      864.767
07/23/2014  08:57:00       94.339       93.083       31.089       43.240       39.653       39.488     1869.661     1572.353     1559.288        1.177        0.250      132.531       21.815        0.027      345.847       23.669      864.758
07/23/2014  08:58:00        9.584       32.343       50.675       33.856       47.011       31.109     1146.230     2210.037      967.779        0.401        0.216       33.734       22.628        0.450      346.645       25.042      864.766
07/23/2014  08:59:00       12.401       11.922       42.914       37.035       58.213       34.545     1371.616     3388.766     1193.382        0.404        0.298       17.202       31.647        3.384      346.617       24.994      864.767
07/23/2014  09:00:00       13.618       24.126       83.303       58.891       93.643       51.937     3468.102     8768.962     2697.411        1.132        0.747       27.704       59.985        4.688      346.565       24.902      864.782
07/23/2014  09:01:00       90.724       37.935       63.501       61.116       71.909       54.168     3735.202     5170.877     2934.150        1.277        0.592       98.336       51.518        0.274      346.381       24.588      864.789
07/23/2014  09:02:00      157.551       64.134       66.751      128.457       92.959       65.718    16501.109     8641.406     4318.833        3.142        1.473      170.104       67.894        0.159      346.144       24.178      864.780
07/23/2014  09:03:00      120.345       52.546       83.222       91.157       64.126       53.422     8309.663     4112.115     2853.922        1.972        0.764      131.316       54.428        0.172      346.227       24.320      864.764
07/23/2014  09:04:00      113.862       87.256      107.772       83.528       86.087       67.817     6976.995     7410.996     4599.203        2.559        0.949      143.451       63.473        0.196      346.053       24.022      864.740
07/23/2014  09:05:00       67.241       76.386       92.924       69.890       70.213       61.337     4884.543     4929.866     3762.247        1.628        0.679      101.765       56.372        0.307      346.215       24.300      864.730
07/23/2014  09:06:00      189.237       81.628       89.800       71.283       65.105       74.565     5081.224     4238.685     5560.002        3.271        0.744      206.092       51.043        0.061      345.901       23.758      864.727
07/23/2014  09:07:00       58.252       75.666       86.566       78.681       50.714       43.337     6190.666     2571.870     1878.102        1.362        0.532       95.491       40.481        0.180      346.358       24.548      864.707
07/23/2014  09:08:00       12.290       46.481       77.391       31.829       65.459       29.434     1013.114     4284.845      866.368        0.723        0.308       48.078       33.948        0.499      346.639       25.032      864.713
07/23/2014  09:09:00       87.609      -53.223       33.960       76.952      120.218       62.690     5921.627    14452.249     3930.089        1.798        1.215      102.509       71.136        0.482      346.385       24.594      864.698
07/23/2014  09:10:00       98.911       83.252       97.877      100.305       88.832       75.435    10061.121     7891.201     5690.389        2.496        1.182      129.284       65.639        0.258      346.363       24.555      864.687
07/23/2014  09:11:00      172.040       93.785       73.925      123.188       94.037       82.130    15175.350     8843.037     6745.305        3.730        1.538      195.942       71.411        0.133      346.235       24.333      864.670
07/23/2014  09:12:00      124.272      -80.746       26.014      105.094      128.620       68.621    11044.680    16542.998     4708.849        2.746        1.615      148.200       77.900        0.276      346.516       24.819      864.678
07/23/2014  09:13:00      165.760     -138.941       -4.008      103.993      112.393       83.936    10814.597    12632.075     7045.222        3.864        1.525      216.289       80.897        0.140      346.302       24.448      864.666
07/23/2014  09:14:00      110.065      -39.058       69.185       97.315       95.352       66.866     9470.125     9091.972     4471.071        2.073        1.152      116.790       73.552        0.397      346.332       24.503      864.689
07/23/2014  09:15:00       40.948     -115.140       11.747       70.210      112.307       66.516     4929.422    12612.898     4424.376        1.851        1.098      122.204       76.953        0.397      346.190       24.259      864.686
07/23/2014  09:16:00       56.401     -103.348        1.944       62.961       71.730       42.888     3964.085     5145.231     1839.414        1.241        0.547      117.737       48.725        0.171      346.200       24.276      864.666
07/23/2014  09:17:00        2.710      -38.419       24.175       27.976       65.927       45.292      782.668     4346.384     2051.340        0.462        0.359       38.515       42.997        1.246      346.586       24.941      864.656
07/23/2014  09:18:00      -13.594       11.424       45.722       26.051       26.269       25.050      678.661      690.056      627.519        0.220        0.100       17.757       12.474        0.493      346.797       25.304      864.666
07/23/2014  09:19:00       28.891      -20.624       40.147       34.658       95.159       50.665     1201.153     9055.177     2566.894        0.785        0.641       35.497       63.450        3.195      346.660       25.069      864.655
07/23/2014  09:20:00       45.872       -6.935       65.689       62.927       92.196       73.292     3959.838     8500.158     5371.694        1.215        0.892       46.393       63.900        1.897      346.750       25.221      864.660
07/23/2014  09:21:00        2.261        0.806       54.833       40.227       69.652       40.253     1618.201     4851.444     1620.267        0.555        0.404        2.400       46.243      371.154      346.686       25.113      864.671
07/23/2014  09:22:00       15.314      -62.424       29.516       61.667       90.622       53.135     3802.870     8212.268     2823.324        0.992        0.742       64.275       59.152        0.847      346.644       25.039      864.639
07/23/2014  09:23:00       -2.727       20.719       55.387       38.767       62.059       47.959     1502.845     3851.278     2300.081        0.558        0.383       20.898       47.594        5.187      347.032       25.708      864.637
07/23/2014  09:24:00       51.379       22.273       72.510       73.271      107.409       53.338     5368.688    11536.606     2844.992        1.407        0.988       55.999       70.842        1.600      346.766       25.250      864.639
07/23/2014  09:25:00       47.923       -2.840       55.784       64.849       90.951       47.119     4205.334     8272.172     2220.239        1.005        0.735       48.007       66.320        1.908      346.713       25.159      864.638
07/23/2014  09:26:00       -9.446      -21.241       41.270       26.842       61.939       42.781      720.491     3836.425     1830.195        0.431        0.319       23.246       42.296        3.311      346.693       25.125      864.629
07/23/2014  09:27:00        5.438        4.004       30.145       41.927       43.699       24.588     1757.913     1909.562      604.547        0.261        0.214        6.753       18.751        7.709      346.907       25.495      864.637
07/23/2014  09:28:00       47.514       21.280       13.622       39.566       49.797       43.843     1565.450     2479.692     1922.189        0.443        0.298       52.062       35.937        0.476      346.480       24.759      864.604
07/23/2014  09:29:00       14.537       56.805       82.045       43.135       60.682       40.749     1860.624     3682.351     1660.452        0.869        0.360       58.636       39.962        0.464      347.241       26.067      864.576
07/23/2014  09:30:00       72.233        8.637       60.073       73.059       97.773       59.228     5337.633     9559.499     3507.952        1.365        0.920       72.747       57.066        0.615      346.752       25.225      864.579
07/23/2014  09:31:00       98.704      -74.127        3.269       68.474      101.656       59.491     4688.732    10333.850     3539.163        1.690        0.928      123.440       71.600        0.336      346.703       25.142      864.578
07/23/2014  09:32:00       69.321       15.555       53.712       44.844       84.381       39.175     2010.992     7120.072     1534.653        0.930        0.533       71.045       48.425        0.465      346.702       25.140      864.597
07/23/2014  09:33:00       53.177       76.436       76.279       75.623       55.312       50.226     5718.854     3059.447     2522.667        1.289        0.565       93.114       41.823        0.202      346.728       25.184      864.607
07/23/2014  09:34:00        7.195        1.843       52.089       34.750       52.072       38.139     1207.530     2711.522     1454.607        0.407        0.269        7.427       35.420       22.742      347.090       25.808      864.624
07/23/2014  09:35:00       13.465      -56.399        4.502       35.324       36.919       34.448     1247.766     1362.991     1186.670        0.359        0.190       57.984       19.974        0.119      346.766       25.250      864.648
07/23/2014  09:36:00       31.232     -107.377        4.460       62.113       89.738       50.368     3858.080     8052.933     2536.977        1.348        0.722      111.827       44.793        0.160      346.706       25.146      864.640
07/23/2014  09:37:00       68.206       -6.303       75.582       65.764      101.812       65.733     4324.910    10365.713     4320.846        1.470        0.951       68.497       64.200        0.878      346.895       25.471      864.640
07/23/2014  09:38:00       38.639      -76.866       26.897       51.206       63.044       44.635     2622.058     3974.500     1992.239        0.836        0.429       86.032       38.358        0.199      346.708       25.150      864.644
07/23/2014  09:39:00       86.534       22.361       80.004       73.942      105.715       73.763     5467.396    11175.599     5440.932        1.823        1.104       89.377       75.949        0.722      346.815       25.333      864.613
07/23/2014  09:40:00      149.427       10.483       21.759       94.910       58.740       46.286     9007.879     3450.446     2142.413        1.875        0.730      149.794       21.419        0.020      346.426       24.662      864.611
07/23/2014  09:41:00       57.898      -42.784       42.101       72.493       67.715       46.032     5255.279     4585.388     2118.929        0.945        0.598       71.991       42.241        0.344      346.914       25.504      864.586
07/23/2014  09:42:00       -2.655       -1.851       17.867       36.322       38.108       31.016     1319.277     1452.223      962.011        0.203        0.187        3.236       23.909       54.590      347.022       25.692      864.574
07/23/2014  09:43:00      -30.627       -6.382        2.289       22.870       36.020       18.501      523.051     1297.429      342.292        0.157        0.108       31.285       14.152        0.205      346.498       24.790      864.556
07/23/2014  09:44:00       45.422       38.561       26.845       30.938       24.299       30.526      957.157      590.461      931.856        0.337        0.124       59.583       19.743        0.110      347.103       25.832      864.532
07/23/2014  09:45:00       76.417       39.835       18.941       46.585       40.322       41.631     2170.170     1625.826     1733.148        0.666        0.276       86.177       20.536        0.057      346.596       24.957      864.517
07/23/2014  09:46:00       30.321       68.802        4.909       27.650       41.749       30.399      764.535     1743.015      924.070        0.455        0.172       75.187       18.800        0.063      346.746       25.215      864.511
07/23/2014  09:47:00      -14.982      -28.705        1.453       58.498       39.841       29.980     3422.053     1587.272      898.792        0.348        0.295       32.379       21.908        0.458      346.876       25.438      864.513
07/23/2014  09:48:00      -13.127      -98.518        6.138       37.108       64.591       34.045     1377.007     4172.000     1159.089        0.831        0.335       99.388       36.036        0.131      346.804       25.317      864.500
07/23/2014  09:49:00       21.562      -67.110       33.394       52.538       94.977       52.861     2760.209     9020.719     2794.252        1.033        0.729       70.489       63.491        0.811      346.916       25.510      864.490
07/23/2014  09:50:00       12.882      -48.636       22.753       44.300       54.931       44.141     1962.527     3017.426     1948.452        0.499        0.346       50.313       37.953        0.569      347.039       25.720      864.490
07/23/2014  09:51:00       16.469      -67.349       29.248       31.431       70.971       41.874      987.891     5036.825     1753.424        0.672        0.389       69.334       32.846        0.224      347.048       25.735      864.479
07/23/2014  09:52:00       18.490       57.067       89.611       60.221       63.626       54.120     3626.594     4048.233     2928.966        1.111        0.530       59.988       48.716        0.660      347.348       26.252      864.468
07/23/2014  09:53:00       10.541       78.644       93.197       43.198       46.513       35.950     1866.039     2163.474     1292.419        1.015        0.266       79.347       20.537        0.067      347.273       26.122      864.447
07/23/2014  09:54:00       64.172       90.206      102.669       68.272       65.846       57.781     4661.123     4335.670     3338.666        1.756        0.617      110.703       57.065        0.266      346.752       25.225      864.434
07/23/2014  09:55:00       34.570       50.936       58.581       41.098       58.771       36.777     1689.058     3454.085     1352.523        0.686        0.325       61.559       37.725        0.376      346.911       25.500      864.441
07/23/2014  09:56:00      -21.563      -73.532       -4.197       33.210       25.241       29.014     1102.923      637.093      841.791        0.424        0.129       76.628       10.895        0.020      346.737       25.200      864.448
07/23/2014  09:57:00      -17.691      -49.255       -3.798       41.410       43.853       31.775     1714.753     1923.105     1009.625        0.370        0.232       52.336       27.071        0.268      346.802       25.312      864.473
07/23/2014  09:58:00      -19.830       -0.887        4.012       41.305       30.465       34.376     1706.126      928.105     1181.741        0.211        0.191       19.849       19.404        0.956      347.260       26.101      864.474
07/23/2014  09:59:00      -71.899      -32.300       11.706       69.589       37.148       27.829     4842.678     1379.978      774.476        0.667        0.350       78.821       35.814        0.206      346.869       25.427      864.480
07/23/2014  10:00:00     -101.793       15.179       -3.352       52.755       46.115       22.793     2783.072     2126.632      519.533        0.802        0.271      102.918       11.444        0.012      346.223       24.315      864.467
07/23/2014  10:01:00      -50.489      -18.818       -0.950       47.804       37.014       27.002     2285.270     1370.030      729.087        0.364        0.219       53.882       27.818        0.267      346.439       24.687      864.460
07/23/2014  10:02:00      -44.849       18.385      -13.511       36.525       20.544       20.643     1334.083      422.067      426.154        0.236        0.109       48.471       14.496        0.089      346.457       24.720      864.463
07/23/2014  10:03:00       -7.242       29.614       18.602       19.328       33.387       22.284      373.580     1114.675      496.586        0.163        0.099       30.486       20.899        0.470      347.328       26.218      864.482
07/23/2014  10:04:00      -47.075      -18.303      -20.756       32.404       33.531       18.330     1050.002     1124.338      335.988        0.275        0.126       50.508       12.628        0.063      346.442       24.693      864.494
07/23/2014  10:05:00      -98.007       10.473      -28.731       45.405       47.400       25.221     2061.649     2246.720      636.121        0.774        0.247       98.565        7.111        0.005      346.486       24.768      864.477
07/23/2014  10:06:00      -95.699       10.388        2.332       50.580       33.103       29.835     2558.326     1095.797      890.127        0.691        0.227       96.261       33.253        0.119      346.689       25.116      864.461
07/23/2014  10:07:00      -34.844      -87.300        9.090       41.067       85.680       32.802     1686.503     7341.061     1075.946        0.951        0.505       93.997       24.928        0.070      346.824       25.351      864.452
07/23/2014  10:08:00      -30.158     -122.164       -0.712       38.784       57.033       28.642     1504.228     3252.765      820.370        1.070        0.279      125.832       25.364        0.041      346.531       24.844      864.449
07/23/2014  10:09:00       22.829      -24.327       12.837       40.410       70.170       30.872     1632.952     4923.786      953.084        0.439        0.375       33.361       14.182        0.181      346.882       25.451      864.437
07/23/2014  10:10:00      122.633       64.043       25.031      125.764       85.294       48.771    15816.708     7275.133     2378.631        2.261        1.274      138.348       51.560        0.139      346.829       25.356      864.393
07/23/2014  10:11:00      204.797      130.506       96.627      100.819       66.715       63.413    10164.462     4450.934     4021.227        4.347        0.932      242.845       59.296        0.060      346.749       25.217      864.357
07/23/2014  10:12:00       23.769        8.292       84.989       46.913       80.474       51.558     2200.808     6475.992     2658.216        0.959        0.567       25.174       55.131        4.796      347.248       26.080      864.399
07/23/2014  10:13:00       53.520      -43.247       42.558       78.947       87.070       63.029     6232.630     7581.166     3972.684        1.216        0.889       68.809       57.915        0.708      347.200       25.996      864.453
07/23/2014  10:14:00        0.941      -23.050       25.467       53.473       49.505       37.918     2859.320     2450.698     1437.801        0.396        0.337       23.069       33.396        2.096      347.366       26.284      864.474
07/23/2014  10:15:00      -11.959        5.154       25.414       32.776       29.476       28.834     1074.243      868.807      831.396        0.179        0.139       13.023       22.349        2.945      347.663       26.797      864.472
07/23/2014  10:16:00       49.970        2.430       27.485       60.938       62.447       31.188     3713.394     3899.677      972.695        0.592        0.429       50.029       37.002        0.547      347.255       26.091      864.459
07/23/2014  10:17:00       12.072       10.270       64.284       89.123       95.867       46.943     7942.897     9190.505     2203.638        1.186        0.967       15.849       44.728        7.964      347.584       26.659      864.438
07/23/2014  10:18:00     -153.921      -11.585       -3.773       59.395       83.343       37.775     3527.793     6946.118     1426.921        1.787        0.595      154.356       30.987        0.040      347.021       25.688      864.430
07/23/2014  10:19:00     -159.292     -145.214       12.306      133.423       93.965       56.396    17801.812     8829.424     3180.546        3.821        1.491      215.548       61.917        0.083      347.181       25.961      864.460
07/23/2014  10:20:00      -74.253      -61.438        4.127       76.200       55.728       43.272     5806.365     3105.651     1872.502        1.004        0.539       96.375       48.569        0.254      347.432       26.397      864.491
07/23/2014  10:21:00       29.393       -1.059       72.260       60.643       64.911       55.609     3677.618     4213.475     3092.384        0.853        0.549       29.412       40.610        1.906      347.897       27.199      864.497
07/23/2014  10:22:00       15.382      -91.167       37.805       68.329       57.177       62.268     4668.889     3269.234     3877.280        1.089        0.591       92.455       41.956        0.206      347.299       26.169      864.533
07/23/2014  10:23:00       -0.326        2.225       23.356       72.153       47.851       40.172     5206.116     2289.710     1613.790        0.483        0.455        2.249       28.283      158.152      347.447       26.422      864.556
07/23/2014  10:24:00       31.221       41.787       77.823       61.723       75.214       66.586     3809.738     5657.102     4433.711        1.134        0.695       52.163       61.359        1.384      347.317       26.199      864.506
07/23/2014  10:25:00       68.276       25.652       37.101       63.915      106.522       51.566     4085.188    11346.913     2659.080        1.239        0.905       72.936       59.299        0.661      347.054       25.747      864.477
07/23/2014  10:26:00       -4.790      -15.869       18.844       54.527       88.305       54.008     2973.245     7797.847     2916.818        0.716        0.684       16.576       54.032       10.625      347.379       26.306      864.443
07/23/2014  10:27:00     -206.047       54.411       -3.468      196.734      100.070       59.284    38704.180    10013.910     3514.543        4.882        2.612      213.110       84.876        0.159      347.530       26.564      864.462
07/23/2014  10:28:00     -390.762     -123.845      -37.536      125.982      146.698       70.539    15871.466    21520.295     4975.764       10.590        2.118      409.918       57.243        0.020      347.139       25.887      864.409
07/23/2014  10:29:00     -223.613     -140.647       12.444      175.364       95.941       70.362    30752.375     9204.729     4950.758        5.741        2.245      264.167       83.289        0.099      347.090       25.804      864.372
07/23/2014  10:30:00     -270.824      -40.830       -4.102      149.901      146.895       79.154    22470.206    21578.021     6265.373        6.266        2.516      273.885       75.798        0.077      347.293       26.154      864.338
07/23/2014  10:31:00     -184.775     -200.195        1.202      172.663      147.001       77.684    29812.579    21609.274     6034.868        6.583        2.873      272.433       96.684        0.126      347.444       26.414      864.335
07/23/2014  10:32:00     -289.423     -231.278      -12.904      257.339      129.190       80.143    66223.336    16689.966     6422.930       11.336        4.467      370.480      101.549        0.075      347.380       26.305      864.390
07/23/2014  10:33:00     -271.929     -228.550        3.271      160.523      129.158       72.575    25767.639    16681.777     5267.086        8.694        2.386      355.219       65.415        0.034      347.328       26.213      864.419
07/23/2014  10:34:00     -325.700     -247.048       11.917      180.426      145.005       87.448    32553.647    21026.414     7647.154       11.423        3.061      408.794       84.525        0.043      347.292       26.152      864.366
07/23/2014  10:35:00     -295.463     -245.581       -4.416      187.589      162.335       68.167    35189.819    26352.696     4646.740       10.690        3.309      384.199       78.114        0.041      347.180       25.959      864.356
07/23/2014  10:36:00     -332.842     -382.132      -12.038      207.494      151.133       68.739    43053.916    22841.081     4725.076       16.377        3.531      506.762       74.439        0.022      347.084       25.793      864.370
07/23/2014  10:37:00     -275.569     -210.912       12.372      185.128      167.589       80.279    34272.475    28086.130     6444.758        9.468        3.440      347.019       78.123        0.051      347.423       26.377      864.346
07/23/2014  10:38:00     -313.757     -222.358       -0.302      186.239      119.261       82.755    34684.933    14223.208     6848.380       10.181        2.788      384.560       94.804        0.061      347.325       26.210      864.365
07/23/2014  10:39:00     -414.889     -267.364      -15.949      195.180      162.717       91.692    38095.229    26476.685     8407.333       15.841        3.649      493.575       88.331        0.032      347.268       26.111      864.340
07/23/2014  10:40:00     -321.233     -196.642        1.505      216.429      163.278       95.238    46841.423    26659.650     9070.347       11.220        4.129      376.642       90.136        0.057      347.399       26.337      864.339
07/23/2014  10:41:00     -413.146     -259.717      -14.826      212.927      148.174       83.690    45337.780    21955.629     7003.997       15.632        3.715      487.998       87.978        0.033      347.352       26.255      864.345
07/23/2014  10:42:00     -399.936     -239.302      -18.741      202.066      141.862       66.585    40830.727    20124.962     4433.562       14.146        3.269      466.062       62.113        0.018      347.190       25.978      864.364
07/23/2014  10:43:00     -284.763     -227.690       -5.706      171.363      156.676       86.730    29365.448    24547.461     7522.167        9.719        3.072      364.599       97.997        0.072      347.367       26.281      864.380
07/23/2014  10:44:00     -357.576     -258.175        5.330      203.467      182.226       90.160    41398.830    33206.460     8128.768       13.862        4.137      441.038      100.703        0.052      347.317       26.195      864.350
07/23/2014  10:45:00     -321.668     -140.674        6.728      256.358      210.289      103.627    65719.456    44221.599    10738.454       12.197        6.034      351.083      127.173        0.131      347.435       26.399      864.328
07/23/2014  10:46:00     -237.557     -368.120       -0.132      194.931      227.512       90.060    37998.042    51761.880     8110.715       14.489        4.894      438.116       89.957        0.042      347.309       26.181      864.412
07/23/2014  10:47:00     -306.881     -248.845        0.147      214.175      204.873       89.691    45870.774    41972.944     8044.393       12.597        4.794      395.094       98.575        0.062      347.307       26.176      864.392
07/23/2014  10:48:00     -350.810     -138.173      -12.031      200.875      147.113       96.913    40350.633    21642.109     9392.194       10.683        3.569      377.041      110.831        0.086      347.100       25.822      864.359
07/23/2014  10:49:00     -221.058     -166.200        4.571      189.087      130.225       86.127    35754.077    16958.472     7417.869        6.831        3.007      276.567       76.407        0.076      347.243       26.069      864.361
07/23/2014  10:50:00     -162.739     -195.364       29.042      139.315      215.112       79.520    19408.658    46273.289     6323.438        6.874        3.600      254.266       73.770        0.084      347.489       26.491      864.380
07/23/2014  10:51:00     -218.261     -120.137       10.813      192.618      133.919       88.105    37101.805    17934.294     7762.408        6.248        3.140      249.140      104.736        0.177      347.561       26.618      864.325
07/23/2014  10:52:00     -319.473     -253.496       -7.547      224.771      136.702       75.877    50521.915    18687.489     5757.260       12.066        3.748      407.827       79.576        0.038      347.232       26.048      864.298
07/23/2014  10:53:00     -386.616     -203.678       10.813      239.253      201.936       83.637    57241.876    40778.066     6995.221       14.802        5.251      436.986       94.877        0.047      347.283       26.136      864.286
07/23/2014  10:54:00     -322.519     -167.170        2.359      160.446      144.090       81.918    25743.052    20761.850     6710.602        9.258        2.661      363.269       86.815        0.057      347.438       26.404      864.281
07/23/2014  10:55:00     -244.503     -126.603        2.535      225.192      116.921       88.241    50711.505    13670.533     7786.443        7.398        3.608      275.336      108.017        0.154      347.509       26.526      864.301
07/23/2014  10:56:00     -158.675     -117.944       14.433      102.756      140.489       60.422    10558.859    19737.175     3650.863        3.662        1.697      197.708       62.244        0.099      347.623       26.723      864.319
07/23/2014  10:57:00      -90.354     -252.402       20.051      108.972      100.257       67.520    11874.852    10051.566     4558.979        4.937        1.324      268.087       51.452        0.037      347.355       26.260      864.301
07/23/2014  10:58:00     -230.808      -97.463       16.008      138.478      108.662       66.495    19176.065    11807.529     4421.551        4.921        1.770      250.542       60.449        0.058      347.651       26.771      864.297
07/23/2014  10:59:00     -285.772      -58.987       -7.219      126.100       94.106       70.148    15901.280     8855.999     4920.797        5.743        1.484      291.796       63.829        0.048      347.689       26.837      864.259
07/23/2014  11:00:00     -140.787      -11.603       25.731      147.069       85.637       65.797    21629.424     7333.700     4329.217        2.695        1.665      141.265       71.305        0.255      347.919       27.237      864.234
07/23/2014  11:01:00     -349.447     -156.396        8.425      272.814      215.344      100.596    74427.320    46373.011    10119.460       13.876        6.546      382.848      124.948        0.107      347.883       27.171      864.212
07/23/2014  11:02:00     -476.180     -293.762       -6.983      219.442      171.465       97.320    48154.627    29400.109     9471.095       20.004        4.351      559.503      110.276        0.039      347.509       26.527      864.229
07/23/2014  11:03:00     -533.919     -362.388      -18.268      189.776      189.525       94.854    36015.038    35919.600     8997.358       24.881        4.047      645.287       95.553        0.022      347.260       26.097      864.236
07/23/2014  11:04:00     -431.567     -321.800        4.299      270.926      199.252      107.168    73400.841    39701.247    11484.906       20.718        6.229      538.335      128.469        0.057      347.303       26.170      864.247
07/23/2014  11:05:00     -497.046     -322.912       -3.186      258.053      175.344       91.206    66591.577    30745.603     8318.527       22.847        5.283      592.728       99.780        0.028      347.333       26.224      864.257
07/23/2014  11:06:00     -230.970     -298.063        3.803      138.731      208.165       85.709    19246.188    43332.563     7346.017       10.605        3.496      377.079       68.618        0.033      347.533       26.567      864.285
07/23/2014  11:07:00     -386.147     -183.787      -21.737      222.441      166.554       84.365    49480.068    27740.140     7117.482       13.383        4.217      427.653       89.342        0.044      347.641       26.752      864.273
07/23/2014  11:08:00     -427.566     -303.404      -20.981      230.556      184.299      102.031    53156.149    33966.282    10410.269       18.640        4.877      524.277      114.250        0.047      347.559       26.612      864.228
07/23/2014  11:09:00     -488.332     -433.653      -11.581      242.047      202.700      110.318    58586.512    41087.236    12170.008       26.923        5.592      653.087      101.572        0.024      347.421       26.374      864.222
07/23/2014  11:10:00     -627.060     -344.717      -25.384      369.522      189.928      106.739   136546.875    36072.617    11393.181       34.831        9.201      715.565      130.883        0.033      347.459       26.441      864.156
07/23/2014  11:11:00     -353.720     -204.031        8.333      268.332      173.132       94.200    72001.977    29974.776     8873.591       13.881        5.543      408.346       93.837        0.053      347.664       26.794      864.190
07/23/2014  11:12:00     -180.132     -235.196       19.193      178.983      167.467       93.728    32034.829    28045.312     8785.001        7.849        3.443      296.251      101.592        0.118      347.781       26.996      864.227
07/23/2014  11:13:00     -229.467     -349.982        4.341      180.605      239.174       98.500    32618.241    57204.289     9702.230       13.732        4.976      418.500       96.095        0.053      347.566       26.624      864.250
07/23/2014  11:14:00     -249.205     -344.466       -9.994      159.002      183.836       75.783    25281.617    33795.566     5742.992       12.283        3.241      425.159       34.691        0.007      347.597       26.679      864.260
07/23/2014  11:15:00     -182.209     -211.195       12.547      152.902      191.962       83.525    23378.985    36849.557     6976.454        7.257        3.360      278.933       71.569        0.066      347.722       26.894      864.246
07/23/2014  11:16:00     -312.707      -95.434       -6.285      144.539      104.757       68.108    20891.485    10974.021     4638.682        7.171        1.825      326.946       55.757        0.029      347.776       26.986      864.217
07/23/2014  11:17:00     -282.486     -104.812       -2.675      163.634      164.527       79.608    26775.944    27069.240     6337.432        7.548        3.009      301.304       77.321        0.066      347.843       27.103      864.247
07/23/2014  11:18:00     -482.778     -208.066      -10.074      242.122      181.014      102.027    58623.220    32766.059    10409.568       18.911        5.090      525.705       92.700        0.031      347.267       26.109      864.217
07/23/2014  11:19:00     -424.566     -159.238       -0.173      237.367      176.801       83.595    56343.273    31258.536     6988.054       15.008        4.729      453.445       99.797        0.048      347.605       26.692      864.166
07/23/2014  11:20:00     -365.168      -97.777       15.888      326.436      185.278      129.934   106560.475    34328.006    16882.850       15.043        7.889      378.032      167.822        0.197      347.572       26.635      864.160
07/23/2014  11:21:00     -310.825     -144.121        6.398      245.688      164.725      110.066    60362.839    27134.414    12114.476       10.850        4.981      342.612      130.429        0.145      347.665       26.796      864.214
07/23/2014  11:22:00     -441.071     -284.381      -10.403      295.140      230.386      110.675    87107.614    53077.856    12248.906       21.395        7.622      524.801      133.323        0.065      347.554       26.602      864.230
07/23/2014  11:23:00     -398.701     -137.159       -0.108      226.095      167.398      108.448    51118.964    28022.042    11761.077       13.432        4.545      421.633      115.896        0.076      347.511       26.531      864.252
07/23/2014  11:24:00     -408.908     -258.098       -7.189      225.109      165.805       95.958    50674.081    27491.363     9208.029       16.061        4.369      483.549      110.656        0.052      347.348       26.248      864.263
07/23/2014  11:25:00     -315.687     -183.949        5.421      212.482      189.506       89.491    45148.579    35912.422     8008.706       11.128        4.453      365.370      100.093        0.075      347.735       26.917      864.260
07/23/2014  11:26:00     -392.880      -59.419      -20.168      228.055      156.445       79.692    52009.213    24474.998     6350.894       12.055        4.142      397.348       81.818        0.042      347.537       26.576      864.280
07/23/2014  11:27:00     -423.565      -59.693       -6.706      228.235      145.053      104.596    52091.410    21040.412    10940.403       13.353        4.204      427.750      121.304        0.080      347.652       26.774      864.253
07/23/2014  11:28:00     -544.829     -323.743      -16.262      261.414      182.043      109.193    68337.155    33139.787    11923.053       25.763        5.670      633.757      128.936        0.041      347.449       26.423      864.245
07/23/2014  11:29:00     -486.742     -277.634       -8.078      247.283      217.648      110.749    61149.049    47370.598    12265.242       21.740        6.039      560.356      125.113        0.050      347.384       26.309      864.255
07/23/2014  11:30:00     -342.739     -124.005        5.329      249.010      157.026       99.816    62006.059    24657.064     9963.321       11.473        4.831      364.482      115.598        0.101      347.522       26.547      864.203
07/23/2014  11:31:00     -636.941     -161.566      -16.259      289.324      232.128      119.129    83708.395    53883.439    14191.709       29.189        7.589      657.113      145.610        0.049      347.464       26.449      864.218
07/23/2014  11:32:00     -541.782      -18.956      -46.172      234.222      185.725       83.985    54860.058    34493.755     7053.427       19.619        4.820      542.113       95.631        0.031      347.556       26.606      864.217
07/23/2014  11:33:00     -499.728      -89.400      -25.493      210.675      194.359       96.439    44383.966    37775.230     9300.485       17.490        4.573      507.662      107.330        0.045      347.559       26.614      864.184
07/23/2014  11:34:00     -451.452     -306.667      -16.825      215.506      183.494      113.215    46442.971    33670.206    12817.638       19.552        4.647      545.759      104.928        0.037      347.729       26.905      864.239
07/23/2014  11:35:00     -489.287     -144.457      -16.089      255.820      246.913      107.206    65444.071    60966.060    11493.174       19.919        6.895      510.166      120.703        0.056      347.556       26.606      864.256
07/23/2014  11:36:00     -551.673     -135.757       -6.725      233.616      253.743       93.395    54576.310    64385.750     8722.679       22.523        6.384      568.132       98.305        0.030      347.356       26.262      864.227
07/23/2014  11:37:00     -468.105     -293.919      -11.100      266.657      290.007      133.829    71105.723    84103.959    17910.210       23.934        8.656      552.730      142.996        0.067      347.663       26.792      864.188
07/23/2014  11:38:00     -423.690     -227.623       -4.436      210.725      189.233      100.827    44405.214    35809.307    10165.988       16.084        4.519      480.963      100.120        0.043      347.519       26.542      864.271
07/23/2014  11:39:00     -401.175     -291.863        9.532      237.885      209.264      116.523    56589.393    43791.376    13577.564       18.006        5.698      496.111      126.757        0.065      347.566       26.624      864.237
07/23/2014  11:40:00     -378.231     -178.491       -0.853      211.192      187.190       92.882    44602.239    35040.032     8627.057       13.158        4.413      418.232      107.714        0.066      347.653       26.775      864.242
07/23/2014  11:41:00     -419.829     -178.087      -33.397      218.470      235.123       92.645    47729.048    55282.926     8583.152       16.032        5.580      456.039      101.823        0.050      347.682       26.824      864.264
07/23/2014  11:42:00     -351.386     -177.152       -0.246      252.590      190.062       90.920    63801.892    36123.663     8266.494       13.150        5.410      393.516      111.175        0.080      347.806       27.039      864.279
07/23/2014  11:43:00     -218.290     -192.496       36.355      232.055      165.552      123.806    53849.353    27407.418    15327.986        9.129        4.829      291.041      123.762        0.181      347.752       26.945      864.253
07/23/2014  11:44:00     -360.020      -94.883      -24.101      170.861      200.255       78.783    29193.504    40102.239     6206.774       10.734        3.775      372.313       86.106        0.053      347.627       26.730      864.288
07/23/2014  11:45:00     -531.576     -187.166      -23.468      267.418      240.785      103.934    71512.187    57977.218    10802.282       22.920        7.015      563.564      100.290        0.032      347.577       26.644      864.200
07/23/2014  11:46:00     -358.480     -226.758       22.938      249.703      257.104      117.615    62351.790    66102.356    13833.226       16.134        7.114      424.178      143.675        0.115      347.623       26.723      864.184
07/23/2014  11:47:00     -639.149     -312.162      -13.847      283.916      220.434      113.194    80608.556    48590.998    12812.947       32.405        7.101      711.306      134.591        0.036      347.690       26.837      864.177
07/23/2014  11:48:00     -576.233     -351.958      -12.545      353.640      195.058      124.548   125061.243    38047.482    15512.141       31.731        8.931      675.218      120.147        0.032      347.352       26.255      864.205
07/23/2014  11:49:00     -489.307     -229.955      -24.905      315.971      210.770      123.803    99837.758    44423.977    15327.192       22.622        7.979      540.649      140.417        0.067      347.485       26.484      864.211
07/23/2014  11:50:00     -497.282     -142.491      -15.523      281.335      200.865      113.653    79149.373    40346.552    12917.039       20.010        6.621      517.294      118.271        0.052      347.509       26.525      864.214
07/23/2014  11:51:00     -362.689      -18.902       -8.488      253.342      181.751      109.270    64182.340    33033.307    11940.018       12.054        5.458      363.182      118.622        0.107      347.610       26.702      864.245
07/23/2014  11:52:00     -571.365      -90.668      -25.021      254.537      210.123      118.912    64788.854    44151.859    14139.954       22.917        6.154      578.515      123.867        0.046      347.591       26.667      864.186
07/23/2014  11:53:00     -669.384     -110.148      -37.238      295.461      212.600      114.002    87297.378    45198.567    12996.513       30.351        7.275      678.386      130.173        0.037      347.537       26.574      864.156
07/23/2014  11:54:00     -462.447     -309.517       -6.145      323.914      235.515      134.077   104920.029    55467.184    17976.758       24.399        8.918      556.469      154.681        0.077      347.606       26.694      864.177
07/23/2014  11:55:00     -505.944     -192.258       -3.988      284.845      228.276      131.736    81136.816    52109.997    17354.288       22.175        7.530      541.242      149.642        0.076      347.624       26.724      864.208
07/23/2014  11:56:00     -415.673     -240.539       10.092      258.179      207.137      116.546    66656.605    42905.831    13583.026       17.692        6.157      480.253      140.113        0.085      347.640       26.751      864.168
07/23/2014  11:57:00     -417.829     -220.245      -10.405      265.942      198.083      112.778    70724.896    39236.999    12718.959       17.292        6.134      472.323      116.940        0.061      347.864       27.138      864.122
07/23/2014  11:58:00     -455.074     -191.853       20.046      324.240      224.934      124.548   105131.559    50595.262    15512.118       20.774        8.562      493.862      152.500        0.095      347.728       26.904      864.182
07/23/2014  11:59:00     -431.191     -289.326      -10.785      267.317      204.141      104.751    71458.262    41673.358    10972.828       19.690        6.205      519.264      108.687        0.044      347.585       26.656      864.210
07/23/2014  12:00:00     -244.795      -67.293       14.637      184.174      147.535       89.194    33920.083    21766.678     7955.567        6.414        3.182      253.876       96.680        0.145      347.943       27.276      864.251
07/23/2014  12:01:00     -535.142     -241.999       -6.876      231.089      195.946       99.835    53402.103    38394.902     9967.063       22.336        5.088      587.316       99.508        0.029      347.468       26.455      864.286
07/23/2014  12:02:00     -464.401     -216.849       -0.890      314.663      188.429      102.457    99013.095    35505.588    10497.532       20.383        7.251      512.535      131.228        0.066      347.631       26.737      864.246
07/23/2014  12:03:00     -370.955     -181.373      -13.255      164.220      161.319       95.882    26968.048    26023.761     9193.438       11.642        3.109      412.921      102.629        0.062      347.773       26.983      864.271
07/23/2014  12:04:00     -320.263     -154.658       21.955      236.144      214.421      129.426    55764.081    45976.255    16750.987       12.271        5.925      355.651      130.005        0.134      347.909       27.217      864.233
07/23/2014  12:05:00     -559.321     -106.706      -20.433      265.741      234.945       86.916    70618.492    55199.183     7554.397       22.898        6.669      569.409       86.124        0.023      347.699       26.854      864.201
07/23/2014  12:06:00     -280.242     -136.822       25.386      249.976      167.473      130.014    62487.938    28047.074    16903.733       10.265        5.372      311.858      149.251        0.229      347.821       27.065      864.213
07/23/2014  12:07:00     -523.250     -278.211       -2.794      295.831      188.680      121.807    87515.775    35600.102    14836.841       24.455        6.898      592.614      146.536        0.061      347.431       26.393      864.205
07/23/2014  12:08:00     -473.640     -312.561       -0.799      280.374      181.068      117.577    78609.841    32785.662    13824.405       22.360        6.261      567.476      151.979        0.072      347.448       26.421      864.182
07/23/2014  12:09:00     -247.219     -112.472       -2.549      148.415      123.075       64.418    22026.998    15147.434     4149.735        5.754        2.066      271.601       73.701        0.074      347.836       27.090      864.153
07/23/2014  12:10:00     -183.296     -151.452       12.282      211.841      152.217       88.388    44876.450    23170.004     7812.365        6.626        3.793      237.771      113.011        0.226      348.306       27.902      864.135
07/23/2014  12:11:00     -348.833      -68.531       -6.990      249.212      212.186      100.763    62106.844    45022.922    10153.205       12.183        5.864      355.501      101.989        0.082      348.142       27.619      864.088
07/23/2014  12:12:00     -614.272     -245.821       -2.514      305.928      242.433      114.295    93592.017    58773.792    13063.440       30.156        8.271      661.633      125.445        0.036      347.812       27.047      864.080
07/23/2014  12:13:00     -521.857     -320.249       -9.570      226.207      183.909      112.775    51169.802    33822.390    12718.159       23.633        4.886      612.286      112.050        0.033      347.788       27.007      864.116
07/23/2014  12:14:00     -342.703     -225.354        4.162      254.753      197.771      105.638    64899.170    39113.375    11159.307       14.169        5.759      410.158      139.107        0.115      347.868       27.147      864.135
07/23/2014  12:15:00     -316.629      -99.327       17.489      194.483      184.448       86.395    37823.714    34020.946     7464.162        9.485        3.965      331.844       99.750        0.090      348.003       27.380      864.164
07/23/2014  12:16:00     -267.239      -90.733       14.692      218.936      144.969       88.373    47933.037    21015.886     7809.707        7.830        3.838      282.221      100.609        0.127      348.093       27.534      864.167
07/23/2014  12:17:00     -182.506      -96.649       19.019      228.086      211.066      101.034    52023.144    44548.857    10207.778        7.487        5.339      206.518      131.011        0.402      348.307       27.907      864.105
07/23/2014  12:18:00     -542.564     -248.399      -38.207      289.878      217.671      113.027    84029.495    47380.519    12775.152       25.083        7.209      596.723      100.046        0.028      347.785       27.003      864.078
07/23/2014  12:19:00     -395.324       24.573        1.081      304.210      227.100      128.975    92543.642    51574.193    16634.463       15.879        8.038      396.087      152.436        0.148      347.992       27.359      864.002
07/23/2014  12:20:00     -346.203     -154.637       -3.943      257.009      175.660      106.116    66053.831    30856.557    11260.542       12.596        5.409      379.169      102.939        0.074      348.050       27.459      863.980
07/23/2014  12:21:00     -285.091     -130.891       13.448      238.755      186.743      106.255    57004.182    34872.823    11290.196       10.086        5.158      313.702      122.922        0.154      348.242       27.792      864.008
07/23/2014  12:22:00     -435.158      -96.790      -12.461      281.886      196.192       99.665    79459.890    38491.106     9933.137       16.336        6.394      445.792      122.103        0.075      347.951       27.288      864.084
07/23/2014  12:23:00     -623.759     -170.780      -34.536      295.840      272.216      116.077    87521.371    74101.753    13473.762       29.723        8.755      646.716      124.024        0.037      347.731       26.910      864.099
07/23/2014  12:24:00     -473.553     -143.572      -14.370      217.923      211.291      103.093    47490.446    44643.918    10628.068       17.390        5.138      494.839      100.723        0.041      347.793       27.016      864.075
07/23/2014  12:25:00     -396.053     -178.831      -16.393      199.897      177.280       79.561    39958.689    31428.125     6330.007       13.340        3.886      434.556       87.325        0.040      348.039       27.441      864.059
07/23/2014  12:26:00     -335.827     -148.578      -10.922      205.286      168.413       86.796    42142.400    28363.068     7533.560       10.649        3.902      367.227      103.715        0.080      348.116       27.575      864.067
07/23/2014  12:27:00     -422.672     -101.241       -6.598      212.306      149.928       88.536    45073.900    22478.419     7838.563       13.215        3.770      434.628      102.160        0.055      348.152       27.636      864.058
07/23/2014  12:28:00     -632.199      -93.352      -15.498      300.718      274.234      121.166    90431.494    75204.176    14681.264       29.444        9.016      639.054      136.525        0.046      347.960       27.306      864.038
07/23/2014  12:29:00     -408.732     -160.405      -11.274      299.525      203.121      133.762    89715.467    41257.992    17892.302       17.086        7.443      439.080      147.202        0.112      347.809       27.043      864.007
07/23/2014  12:30:00     -501.349       -9.703       -6.611      317.272      230.009      113.266   100661.446    52904.075    12829.125       20.891        8.320      501.443      137.141        0.075      347.770       26.976      864.010
07/23/2014  12:31:00     -406.563     -157.198       -9.383      225.243      224.816      108.766    50734.200    50542.177    11830.100       15.158        5.655      435.895      113.294        0.068      347.880       27.167      864.024
07/23/2014  12:32:00     -469.044     -212.965      -24.278      388.947      282.777      106.606   151279.976    79962.789    11364.806       25.423       12.130      515.127      136.025        0.070      347.776       26.989      864.029
07/23/2014  12:33:00     -555.476     -253.681       -9.963      312.208      240.057      139.965    97473.785    57627.476    19590.152       27.381        8.735      610.662      167.602        0.075      347.670       26.806      863.955
07/23/2014  12:34:00     -801.947     -210.942      -44.379      328.587      241.906      133.752   107969.740    58518.479    17889.617       43.694        9.219      829.225      151.311        0.033      347.746       26.935      863.937
07/23/2014  12:35:00     -761.626     -150.767      -35.516      280.144      225.458      118.587    78480.589    50831.385    14062.990       37.369        7.169      776.406      140.574        0.033      347.890       27.183      863.947
07/23/2014  12:36:00     -408.110     -113.058       12.244      323.272      234.440      126.663   104504.656    54962.330    16043.506       17.746        8.776      423.480      153.800        0.132      348.098       27.544      863.997
07/23/2014  12:37:00     -488.319     -142.851        4.334      345.221      195.208      121.483   119177.781    38106.283    14758.009       21.543        8.602      508.785      152.831        0.090      347.892       27.188      864.001
07/23/2014  12:38:00     -439.724     -203.021      -16.293      316.997      215.736      120.021   100486.939    46541.903    14405.120       19.810        8.072      484.329      129.767        0.072      347.798       27.025      863.991
07/23/2014  12:39:00     -439.549     -189.464       -6.587      282.191      261.126      123.511    79632.016    68186.535    15254.850       19.608        8.154      478.644      131.856        0.076      347.861       27.135      863.996
07/23/2014  12:40:00     -345.161     -184.374       -8.474      232.307      177.141       87.550    53966.383    31379.044     7664.986       12.309        4.651      391.318       79.935        0.042      347.799       27.027      863.992
07/23/2014  12:41:00     -509.963     -185.300      -28.335      174.180      165.961       88.094    30338.782    27542.953     7760.594       18.041        3.282      542.585       90.391        0.028      347.911       27.218      864.015
07/23/2014  12:42:00     -361.413      -71.843        2.839      321.859      199.183      108.764   103593.390    39673.842    11829.587       14.541        7.755      368.485      134.665        0.134      347.984       27.346      864.024
07/23/2014  12:43:00     -427.038     -191.686       -5.833      259.282      170.574       96.131    67227.277    29095.555     9241.229       16.233        5.278      468.087      100.562        0.046      347.717       26.885      864.042
07/23/2014  12:44:00     -429.058     -192.045      -10.681      356.293      198.630      114.001   126944.971    39453.931    12996.273       20.020        8.970      470.076      140.636        0.090      347.873       27.154      863.978
07/23/2014  12:45:00     -546.430     -152.482      -21.998      235.039      272.520      109.394    55243.213    74267.322    11967.048       23.187        7.074      567.306      107.465        0.036      347.827       27.074      863.952
07/23/2014  12:46:00     -544.564     -189.119      -13.953      298.389      286.118      123.944    89036.184    81863.737    15362.190       25.935        9.313      576.469      139.843        0.059      347.921       27.237      863.925
07/23/2014  12:47:00     -423.903     -178.109      -29.974      248.168      207.394      113.093    61587.149    43012.363    12789.949       16.483        5.869      459.800      120.586        0.069      347.953       27.292      863.950
07/23/2014  12:48:00     -518.461     -128.092      -26.065      267.176      179.999       92.376    71382.991    32399.593     8533.400       19.908        5.616      534.050      119.728        0.050      347.829       27.078      863.974
07/23/2014  12:49:00     -448.540     -171.634       -1.256      241.742      185.984       99.599    58439.188    34589.877     9920.035       16.678        5.147      480.257      115.364        0.058      348.093       27.534      863.904
07/23/2014  12:50:00     -424.142     -280.719       11.476      268.493      206.513      136.964    72088.698    42647.683    18759.230       19.614        6.675      508.626      150.666        0.088      348.062       27.481      863.929
07/23/2014  12:51:00     -278.079     -217.100       -7.823      197.426      146.195       88.682    38977.219    21373.058     7864.527        9.635        3.411      352.789      104.255        0.087      348.214       27.742      863.954
07/23/2014  12:52:00     -603.106     -275.597      -33.700      233.148      230.367      117.702    54357.988    53068.918    13853.866       28.103        6.064      663.091      113.297        0.029      348.064       27.483      863.958
07/23/2014  12:53:00     -485.438     -191.878      -13.621      287.988      220.669      118.380    82937.175    48694.844    14013.922       20.912        7.282      521.984      125.755        0.058      348.020       27.408      863.924
07/23/2014  12:54:00     -514.521     -140.392       -5.651      264.293      181.001      111.200    69850.612    32761.454    12365.351       19.970        5.749      533.331      111.919        0.044      347.970       27.323      863.969
07/23/2014  12:55:00     -404.428     -203.142       -7.626      223.392      178.529       95.009    49903.856    31872.468     9026.680       14.783        4.540      452.580       96.742        0.046      348.108       27.560      863.960
07/23/2014  12:56:00     -462.193     -109.089      -13.476      269.751      207.219      125.603    72765.665    42939.613    15776.069       17.857        6.574      474.892      129.910        0.075      348.137       27.610      863.944
07/23/2014  12:57:00     -408.855     -209.884       -4.984      236.108      248.106      121.806    55746.999    61556.638    14836.721       17.166        6.607      459.580      148.654        0.105      348.183       27.690      863.973
07/23/2014  12:58:00     -484.839     -249.342      -12.886      214.297      177.547       90.693    45923.057    31522.848     8225.301       19.152        4.284      545.197       97.008        0.032      348.170       27.668      863.959
07/23/2014  12:59:00     -471.649     -335.348      -22.299      217.765      188.346       99.505    47421.625    35474.112     9901.270       21.408        4.640      578.715       95.588        0.027      347.845       27.107      863.980
07/23/2014  13:00:00     -492.176     -122.027       -6.209      325.157      177.878      111.332   105727.255    31640.560    12394.836       20.344        7.488      507.077      141.469        0.078      348.069       27.493      863.886
07/23/2014  13:01:00     -421.726     -228.532        9.626      264.447      224.697      124.799    69932.428    50488.857    15574.789       18.306        6.800      479.666      138.142        0.083      348.213       27.742      863.894
07/23/2014  13:02:00     -544.799     -256.232       -9.224      314.505      206.613      114.493    98913.677    42688.951    13108.754       25.860        7.736      602.047      132.579        0.048      347.772       26.981      863.932
07/23/2014  13:03:00     -254.891     -155.440       -6.265      201.288      151.380       93.821    40516.931    22915.978     8802.338        8.069        3.612      298.549       94.210        0.100      348.042       27.447      863.922
07/23/2014  13:04:00     -366.557     -127.571       -9.804      213.083      163.453       90.559    45404.516    26716.982     8200.928       11.551        4.016      388.122       98.681        0.065      348.230       27.771      863.931
07/23/2014  13:05:00     -411.450     -295.107       -7.412      188.450      163.332       95.820    35513.367    26677.336     9181.460       16.389        3.569      506.339       85.001        0.028      348.064       27.484      863.977
07/23/2014  13:06:00     -247.089     -160.786       23.088      196.020      143.322       90.500    38423.762    20541.060     8190.216        7.728        3.358      294.797      113.269        0.148      348.205       27.728      863.936
07/23/2014  13:07:00     -485.545     -157.181      -24.717      219.645      176.745       97.445    48244.089    31238.811     9495.450       17.501        4.449      510.353      100.748        0.039      348.152       27.635      863.899
07/23/2014  13:08:00     -489.231       -5.196      -21.129      291.737      160.008       95.624    85110.515    25602.447     9144.034       17.981        5.993      489.259      126.638        0.067      348.233       27.776      863.892
07/23/2014  13:09:00     -512.883     -103.490      -14.615      316.623      201.607      115.724   100249.951    40645.294    13392.053       21.410        7.714      523.220      145.178        0.077      348.237       27.783      863.881
07/23/2014  13:10:00     -562.834     -147.780      -30.880      213.791      152.615       97.946    45706.739    23291.298     9593.337       20.907        3.930      581.911      101.496        0.030      348.087       27.524      863.879
07/23/2014  13:11:00     -479.740      -11.202      -12.342      251.278      172.799       89.968    63140.801    29859.557     8094.218       16.574        5.055      479.871      105.731        0.049      348.153       27.640      863.885
07/23/2014  13:12:00     -455.630      -36.299       -6.830      206.591      188.472      111.611    42679.789    35521.871    12456.908       14.979        4.533      457.074      115.208        0.064      348.229       27.769      863.879
07/23/2014  13:13:00     -352.256     -131.301       -4.330      273.195      173.662      103.912    74635.754    30158.341    10797.640       12.844        5.780      375.931      126.483        0.113      348.231       27.773      863.887
07/23/2014  13:14:00     -592.510     -134.064      -44.512      339.134      239.511      125.235   115012.105    57365.409    15683.742       27.950        9.403      607.487      148.939        0.060      347.967       27.316      863.813
07/23/2014  13:15:00     -433.778     -206.660      -10.925      234.785      218.890       92.705    55124.106    47912.978     8594.175       17.129        5.582      480.491       99.226        0.043      348.371       28.015      863.848
07/23/2014  13:16:00     -470.417     -222.339       -2.261      254.535      193.919      118.364    64788.207    37604.684    14009.972       19.354        5.820      520.314      118.468        0.052      348.140       27.615      863.880
07/23/2014  13:17:00     -346.648      -47.074       -5.019      253.130      165.447      108.394    64074.979    27372.697    11749.255       11.278        5.160      349.829      121.400        0.120      348.256       27.816      863.867
07/23/2014  13:18:00     -544.232     -219.285      -13.214      208.968      161.340       90.143    43667.558    26030.506     8125.797       21.112        3.891      586.749       97.884        0.028      348.067       27.489      863.853
07/23/2014  13:19:00     -460.306     -142.237      -11.295      284.550      187.757       99.108    80968.863    35252.743     9822.446       17.912        6.302      481.781      129.682        0.072      348.362       28.000      863.878
07/23/2014  13:20:00     -340.355     -100.201       -2.673      163.471      152.226       81.504    26722.762    23172.857     6642.947        9.120        2.827      354.798       72.454        0.042      348.446       28.143      863.885
07/23/2014  13:21:00     -208.264     -113.457       17.381      233.911      168.181      103.174    54714.564    28284.747    10644.924        7.508        4.682      237.163      124.008        0.273      348.483       28.210      863.862
07/23/2014  13:22:00     -534.850       19.884      -21.049      285.001      210.400      107.876    81225.787    44268.330    11637.163       21.199        6.857      535.219      127.578        0.057      348.020       27.409      863.864
07/23/2014  13:23:00     -330.420       13.846        9.510      254.471      153.076      103.176    64755.665    23432.337    10645.258       10.413        4.942      330.710      130.546        0.156      348.445       28.142      863.875
07/23/2014  13:24:00     -493.814     -161.454      -17.661      313.757      158.637       95.350    98443.277    25165.586     9091.640       20.144        6.635      519.538      124.812        0.058      348.304       27.900      863.886
07/23/2014  13:25:00     -266.016     -122.429       14.589      233.698      195.329      102.805    54614.583    38153.336    10568.859        9.463        5.167      292.837      117.805        0.162      348.492       28.225      863.894
07/23/2014  13:26:00     -523.062     -251.298      -17.024      253.759      160.087       92.645    64393.404    25627.729     8583.052       21.780        4.930      580.297      106.496        0.034      348.070       27.496      863.902
07/23/2014  13:27:00     -415.538     -112.423       -2.089      182.638      202.540       96.082    33356.516    41022.415     9231.727       13.445        4.181      430.477       92.444        0.046      348.202       27.722      863.921
07/23/2014  13:28:00     -410.022      -49.970      -17.952      271.766      210.652      111.122    73856.876    44374.194    12348.040       15.073        6.529      413.055      122.466        0.088      348.208       27.733      863.919
07/23/2014  13:29:00     -524.400        8.854      -41.661      236.150      154.538       92.090    55766.744    23881.865     8480.624       18.245        4.406      524.474       99.205        0.036      348.099       27.544      863.942
07/23/2014  13:30:00     -605.568      -96.868      -24.625      282.314      166.183      104.396    79701.176    27616.758    10898.551       24.744        5.911      613.266      134.309        0.048      347.908       27.216      863.898
07/23/2014  13:31:00     -502.185     -296.872      -25.358      253.912      179.113      104.031    64471.167    32081.612    10822.372       22.415        5.369      583.372      126.588        0.047      348.008       27.387      863.892
07/23/2014  13:32:00     -522.424     -324.678      -20.573      299.196      189.733      114.031    89518.395    35998.708    13003.105       25.862        6.926      615.095      139.647        0.052      347.950       27.287      863.869
07/23/2014  13:33:00     -568.654     -327.999      -25.789      267.784      244.691      119.549    71708.020    59873.903    14292.051       28.872        7.294      656.469      140.784        0.046      348.037       27.437      863.845
07/23/2014  13:34:00     -648.649     -406.472      -34.031      236.272      194.002      122.524    55824.663    37636.911    15012.200       34.778        5.424      765.484      129.774        0.029      347.940       27.270      863.807
07/23/2014  13:35:00     -434.170     -265.259      -24.393      253.137      179.284       84.383    64078.487    32142.879     7120.426       18.138        5.167      508.789      101.121        0.040      348.253       27.810      863.858
07/23/2014  13:36:00     -343.209     -291.863       -1.997      203.021      202.283       84.153    41217.371    40918.344     7081.717       14.608        4.461      450.529       86.309        0.037      348.253       27.810      863.918
07/23/2014  13:37:00     -375.125     -176.219       10.933      202.502      163.344      102.454    41007.191    26681.150    10496.723       12.502        3.909      414.454      105.648        0.065      348.278       27.853      863.896
07/23/2014  13:38:00     -534.768     -263.563      -22.221      185.567      179.693       96.748    34435.005    32289.623     9360.084       21.600        3.804      596.190       81.059        0.018      348.080       27.511      863.887
07/23/2014  13:39:00     -535.422     -277.142      -15.167      272.344      245.451      120.223    74171.191    60246.425    14453.519       25.626        7.444      602.897      127.940        0.045      348.224       27.760      863.853
07/23/2014  13:40:00     -524.908     -101.183      -27.692      197.644      192.689       91.443    39063.091    37129.048     8361.899       18.553        4.228      534.571       94.424        0.031      348.330       27.945      863.892
07/23/2014  13:41:00     -394.343     -270.278        7.927      300.081      228.158      126.115    90048.454    52055.942    15904.989       19.328        7.900      478.076      155.086        0.105      348.291       27.877      863.898
07/23/2014  13:42:00     -451.248     -167.731       -6.039      199.426      152.293       86.061    39770.710    23193.012     7406.470       15.107        3.519      481.413       92.771        0.037      348.164       27.657      863.923
07/23/2014  13:43:00     -467.102      -60.923      -10.679      269.276      140.003       89.431    72509.651    19600.889     7997.963       16.104        5.005      471.059      107.663        0.052      348.194       27.710      863.937
07/23/2014  13:44:00     -645.178     -182.365      -22.035      224.857      196.770       99.873    50560.623    38718.617     9974.706       27.461        4.963      670.456      101.133        0.023      348.062       27.480      863.848
07/23/2014  13:45:00     -733.378     -127.946      -37.057      288.026      215.541      120.422    82959.168    46458.047    14501.461       34.972        7.196      744.455      118.327        0.025      347.960       27.305      863.837
07/23/2014  13:46:00     -483.425     -170.376      -34.083      295.725      189.905       98.697    87453.499    36063.793     9741.080       19.855        6.663      512.570      110.822        0.047      348.203       27.724      863.885
07/23/2014  13:47:00     -491.208     -140.243       -9.269      302.137      165.299       91.723    91287.034    27323.789     8413.141       19.401        6.351      510.836      113.513        0.049      348.106       27.557      863.905
07/23/2014  13:48:00     -488.386     -197.208      -11.758      211.561      177.546       95.071    44757.935    31522.575     9038.564       18.142        4.266      526.699      102.523        0.038      348.047       27.454      863.877
07/23/2014  13:49:00     -464.696      -71.793      -32.054      269.461      150.986       83.940    72609.364    22796.810     7045.990       16.227        5.123      470.209       94.646        0.041      348.394       28.054      863.863
07/23/2014  13:50:00     -650.284      -83.710       -5.942      268.359      251.931      120.971    72016.653    63469.309    14634.098       28.999        7.506      655.650      123.423        0.035      348.140       27.614      863.848
07/23/2014  13:51:00     -265.388     -167.084       22.157      262.163      223.290      136.650    68729.534    49858.589    18673.303       11.802        6.863      313.604      155.581        0.246      348.282       27.860      863.886
07/23/2014  13:52:00     -341.495     -215.864        8.236      239.388      203.884      111.519    57306.480    41568.662    12436.548       13.728        5.566      404.000      134.702        0.111      348.186       27.694      863.878
07/23/2014  13:53:00     -312.416     -173.742        1.747      207.494      184.540       93.201    43053.829    34054.866     8686.413       10.678        4.290      357.477      107.000        0.090      348.132       27.602      863.854
07/23/2014  13:54:00     -349.156     -113.985        5.670      220.826      143.732       90.461    48763.933    20659.023     8183.282       10.625        3.880      367.291      106.086        0.083      348.460       28.169      863.820
07/23/2014  13:55:00     -478.680     -135.227      -18.176      197.365      172.756       89.055    38953.129    29844.498     7930.766       16.222        3.836      497.414       92.881        0.035      348.351       27.981      863.790
07/23/2014  13:56:00     -319.843       22.342        2.465      232.094      126.427       79.646    53867.665    15983.790     6343.437        8.948        3.810      320.622      106.111        0.110      348.570       28.360      863.824
07/23/2014  13:57:00     -181.592     -131.899        7.155      181.970      175.851       65.212    33112.902    30923.734     4252.570        5.934        3.414      224.439       75.179        0.112      348.772       28.711      863.825
07/23/2014  13:58:00     -352.911     -329.031        2.346      193.667      190.039       97.409    37506.851    36114.817     9488.483       15.795        4.156      482.501      101.258        0.044      348.305       27.903      863.803
07/23/2014  13:59:00     -335.382     -138.498      -15.232      159.273      134.208       75.456    25367.882    18011.836     5693.624        9.047        2.454      362.853       86.464        0.057      348.593       28.399      863.811
07/23/2014  14:00:00     -376.666     -175.919       -3.962      266.994      196.626       87.476    71285.867    38661.741     7651.992       14.520        5.880      415.722      109.010        0.069      348.603       28.417      863.836
07/23/2014  14:01:00     -697.715     -108.631      -44.419      241.199      243.305      118.877    58176.930    59197.314    14131.731       31.602        6.575      706.121      111.449        0.025      348.135       27.607      863.836
07/23/2014  14:02:00     -677.331     -140.101      -46.171      268.790      240.759      123.967    72247.909    57965.006    15367.825       31.303        7.279      691.669      121.764        0.031      348.159       27.647      863.845
07/23/2014  14:03:00     -560.277     -108.984      -26.523      234.384      213.602       97.337    54935.758    45625.703     9474.432       21.824        5.502      570.778      114.970        0.041      348.310       27.910      863.828
07/23/2014  14:04:00     -545.144     -145.993      -22.899      264.587      206.488      106.072    70006.401    42637.262    11251.373       22.143        6.195      564.354      119.648        0.045      348.339       27.959      863.822
07/23/2014  14:05:00     -301.199      -68.995        9.130      203.134      159.328       89.736    41263.283    25385.466     8052.563        8.512        3.735      309.000       96.459        0.097      348.465       28.176      863.861
07/23/2014  14:06:00     -369.614     -169.535      -23.889      263.154      160.525       98.415    69250.057    25768.129     9685.447       13.529        5.235      406.641      115.021        0.080      348.433       28.122      863.844
07/23/2014  14:07:00     -332.741      -94.139        1.681      237.342      150.275       83.104    56331.391    22582.538     6906.220       10.268        4.291      345.802      102.993        0.089      348.707       28.595      863.839
07/23/2014  14:08:00     -342.609     -129.135        2.627      237.208      168.099       96.257    56267.813    28257.165     9265.471       11.391        4.690      366.138      100.167        0.075      348.425       28.110      863.832
07/23/2014  14:09:00     -486.719     -227.545      -33.808      214.232      222.788       88.900    45895.226    49634.592     7903.267       19.660        5.172      537.282       85.712        0.025      348.271       27.842      863.813
07/23/2014  14:10:00     -502.179      -85.961      -24.111      213.629      174.099       86.136    45637.485    30310.452     7419.402       17.174        4.168      509.483       84.017        0.027      348.386       28.040      863.779
07/23/2014  14:11:00     -589.967     -185.030      -38.188      193.916      242.847       96.619    37603.511    58974.637     9335.140       24.481        5.296      618.302       95.909        0.024      348.403       28.071      863.791
07/23/2014  14:12:00     -471.999      -84.702      -13.956      253.806      173.760       97.065    64417.723    30192.511     9421.602       16.707        5.202      479.539      106.433        0.049      348.489       28.219      863.811
07/23/2014  14:13:00     -462.652      -53.433      -19.425      292.328      150.638       93.863    85455.773    22691.840     8810.254       16.710        5.848      465.727      127.102        0.074      348.494       28.228      863.832
07/23/2014  14:14:00     -425.996      -34.451      -21.099      216.713      152.803      105.289    46964.488    23348.779    11085.749       13.224        4.070      427.386      118.139        0.076      348.411       28.084      863.829
07/23/2014  14:15:00     -353.415     -166.366       -7.364      169.773      160.334       79.426    28822.868    25706.867     6308.436       10.672        3.042      390.614       78.848        0.041      348.710       28.602      863.826
07/23/2014  14:16:00     -428.804     -238.318      -14.973      252.697      178.326      104.808    63855.951    31800.283    10984.733       17.375        5.332      490.579      121.943        0.062      348.398       28.060      863.786
07/23/2014  14:17:00     -480.954     -355.325      -29.749      268.732      188.362      113.208    72217.102    35480.309    12815.941       23.946        6.026      597.974      127.017        0.045      348.291       27.877      863.792
07/23/2014  14:18:00     -354.532     -264.527      -15.941      232.953      151.432      119.570    54266.982    22931.584    14296.948       14.369        4.575      442.343      124.047        0.079      348.443       28.138      863.779
07/23/2014  14:19:00     -257.451      -58.088       36.110      256.553      219.838      108.816    65819.333    48328.837    11840.879        9.845        6.299      263.923      112.579        0.182      348.700       28.585      863.756
07/23/2014  14:20:00     -184.726      -55.147        1.080      152.408      115.197       57.377    23228.105    13270.236     3292.133        3.847        1.990      192.782       60.920        0.100      348.976       29.064      863.766
07/23/2014  14:21:00     -392.297     -128.002      -14.582      226.463      133.403       93.766    51285.530    17796.353     8791.988       12.417        3.894      412.652      109.621        0.071      348.584       28.384      863.758
07/23/2014  14:22:00     -327.578     -215.170       18.148      229.337      180.195       92.648    52595.475    32470.353     8583.584       12.377        4.682      391.926      102.422        0.068      348.353       27.984      863.756
07/23/2014  14:23:00     -333.117     -191.381        0.880      216.477      183.873       94.311    46862.161    33809.230     8894.581       11.856        4.478      384.179      106.582        0.077      348.460       28.169      863.762
07/23/2014  14:24:00     -457.422     -132.070      -13.350      293.487      157.171       93.268    86134.611    24702.795     8698.983       17.317        5.977      476.107      129.497        0.074      348.289       27.873      863.745
07/23/2014  14:25:00     -315.802     -226.350       -4.326      260.437      186.923      128.519    67827.630    34940.226    16517.060       13.511        5.964      388.543      136.789        0.124      348.369       28.011      863.703
07/23/2014  14:26:00     -200.491      -64.495       24.785      230.179      144.929      101.482    52982.330    21004.527    10298.581        6.461        4.214      210.610      103.026        0.239      348.652       28.504      863.705
07/23/2014  14:27:00     -428.558     -319.818       -9.574      278.783      220.963      102.804    77720.200    48824.855    10568.566       21.155        6.856      534.739      121.123        0.051      348.455       28.161      863.700
07/23/2014  14:28:00     -493.376     -194.826      -22.430      256.675      209.536      117.293    65882.278    43905.485    13757.680       20.269        6.177      530.450      125.126        0.056      348.252       27.809      863.713
07/23/2014  14:29:00     -437.876     -173.751      -10.328      297.823      158.488      106.452    88698.328    25118.504    11332.025       17.357        6.257      471.089      139.409        0.088      348.303       27.897      863.722
07/23/2014  14:30:00     -249.116     -172.277       15.263      219.918      169.899       94.949    48363.973    28865.677     9015.298        8.909        4.312      302.883      111.348        0.135      348.560       28.343      863.704
07/23/2014  14:31:00     -389.154     -124.357       -3.514      210.699      223.567      108.841    44394.119    49982.068    11846.293       13.655        5.311      408.541      103.730        0.064      348.422       28.102      863.685
07/23/2014  14:32:00     -157.620      -98.335       11.169      160.922      119.807       70.106    25895.822    14353.663     4914.790        3.989        2.258      185.779       59.196        0.102      348.614       28.435      863.644
07/23/2014  14:33:00     -401.487     -133.338      -20.838      225.875      141.172       76.899    51019.439    19929.591     5913.460       12.812        3.843      423.049       88.388        0.044      348.598       28.406      863.600
07/23/2014  14:34:00     -437.375     -219.200      -20.586      276.880      199.929      112.543    76662.522    39971.417    12665.896       18.451        6.465      489.229      134.507        0.076      348.697       28.578      863.553
07/23/2014  14:35:00     -290.704     -199.877        8.904      267.784      156.851      107.136    71708.230    24602.155    11478.119       11.614        5.389      352.789      132.512        0.141      348.532       28.296      863.546
07/23/2014  14:36:00     -250.602     -103.189       18.808      153.850      145.467       82.641    23669.803    21160.687     6829.480        6.272        2.583      271.015       84.377        0.097      348.784       28.728      863.598
07/23/2014  14:37:00     -150.805      -85.526       16.859      194.977      160.256      100.539    38016.041    25681.884    10108.171        5.206        3.690      173.370      100.223        0.334      348.912       28.952      863.586
07/23/2014  14:38:00     -391.715      -65.848        1.080      190.008      144.002       91.810    36103.055    20736.625     8429.060       11.151        3.263      397.211       93.997        0.056      348.558       28.339      863.615
07/23/2014  14:39:00     -450.473     -125.961      -11.593      266.374      194.888       98.769    70955.297    37981.517     9755.357       16.879        5.935      467.752      111.038        0.056      348.442       28.136      863.561
07/23/2014  14:40:00     -518.897     -310.673       -6.002      231.412      261.384      116.633    53551.470    68321.819    13603.224       25.062        6.774      604.790      123.023        0.041      348.355       27.987      863.559
07/23/2014  14:41:00     -492.389     -178.965      -28.838      279.654      197.709      121.047    78206.399    39088.844    14652.437       20.360        6.597      523.904      117.446        0.050      348.155       27.642      863.535
07/23/2014  14:42:00     -691.073     -157.900      -39.544      247.777      197.285       97.946    61393.452    38921.553     9593.495       30.697        5.495      708.882      106.665        0.023      348.197       27.714      863.526
07/23/2014  14:43:00     -530.899     -162.366       -8.718      257.943      191.916      105.894    66534.387    36831.642    11213.629       21.141        5.729      555.172      106.277        0.037      348.300       27.892      863.513
07/23/2014  14:44:00     -414.806     -190.054        5.078      316.246      245.296      132.239   100011.828    60170.196    17487.234       19.290        8.883      456.272      147.385        0.104      348.367       28.009      863.482
07/23/2014  14:45:00     -441.533     -192.508      -32.997      295.674      217.943      114.989    87423.036    47499.032    13222.476       19.059        7.407      481.675      121.000        0.063      348.297       27.886      863.474
07/23/2014  14:46:00     -451.607     -196.752      -12.915      274.685      229.257      124.472    75452.042    52558.976    15493.262       19.314        7.175      492.605      152.599        0.096      348.331       27.947      863.493
07/23/2014  14:47:00     -489.375     -229.959      -10.098      243.826      155.862      101.049    59451.203    24293.008    10210.876       19.319        4.698      540.712       98.779        0.033      348.304       27.899      863.516
07/23/2014  14:48:00     -362.501     -196.666      -12.155      245.603      188.375      114.596    60320.826    35485.032    13132.129       13.956        5.447      412.413      115.035        0.078      348.428       28.112      863.491
07/23/2014  14:49:00     -473.155     -280.992      -14.128      268.412      248.292      113.347    72044.868    61648.840    12847.558       22.476        7.327      550.302      128.663        0.055      348.293       27.880      863.475
07/23/2014  14:50:00     -347.045     -236.598       -1.889      231.460      195.729      123.700    53573.686    38310.018    15301.678       14.178        5.359      420.023      138.094        0.108      348.436       28.129      863.468
07/23/2014  14:51:00     -404.358      -48.472      -21.319      257.498      182.572       84.573    66305.162    33332.585     7152.640       13.653        5.340      407.253      111.920        0.076      348.609       28.427      863.456
07/23/2014  14:52:00     -361.835      -83.516       -2.377      285.172      151.254       81.654    81322.928    22877.898     6667.422       12.436        5.543      371.348      109.158        0.086      348.835       28.819      863.461
07/23/2014  14:53:00     -447.657     -272.098      -15.513      308.704      233.016      134.613    95298.261    54296.584    18120.584       22.116        8.386      523.865      165.426        0.100      348.540       28.307      863.423
07/23/2014  14:54:00     -530.583     -224.283      -14.649      244.720      189.660      107.118    59887.854    35970.961    11474.179       21.966        5.367      576.039      113.196        0.039      348.423       28.106      863.436
07/23/2014  14:55:00     -284.932      -86.671        1.414      202.564      156.393       84.225    41032.224    24458.835     7093.777        8.063        3.629      297.822       91.731        0.095      348.698       28.582      863.444
07/23/2014  14:56:00     -598.122     -477.541      -22.239      255.879      225.754      126.306    65473.988    50965.075    15953.162       35.931        6.620      765.372      125.774        0.027      348.275       27.849      863.440
07/23/2014  14:57:00     -397.953     -200.195      -21.571      252.477      174.075       97.743    63744.451    30302.166     9553.741       15.123        5.180      445.472       88.132        0.039      348.378       28.027      863.462
07/23/2014  14:58:00     -372.416     -132.891       -3.167      260.056      205.098      104.228    67629.156    42065.197    10863.578       13.844        6.028      395.416      120.238        0.092      348.423       28.106      863.452
07/23/2014  14:59:00     -471.103      -34.607      -23.664      233.209      160.324       88.937    54386.611    25703.875     7909.855       15.583        4.400      472.373       96.828        0.042      348.453       28.156      863.456
07/23/2014  15:00:00     -483.763     -151.924      -29.341      318.233      199.983      103.695   101271.999    39993.073    10752.688       20.496        7.601      507.058      124.861        0.061      348.688       28.563      863.411
07/23/2014  15:01:00     -486.234     -158.774       -4.284      295.828      248.282      113.262    87514.477    61643.955    12828.279       21.179        8.099      511.500      135.051        0.070      348.520       28.271      863.422
07/23/2014  15:02:00     -461.087     -157.966       -8.377      235.337      191.652       97.626    55383.716    36730.315     9530.805       16.961        5.082      487.395      110.559        0.051      348.455       28.160      863.440
07/23/2014  15:03:00     -504.455     -113.372      -52.402      235.913      197.034       95.799    55655.091    38822.516     9177.450       18.684        5.183      517.038      107.808        0.043      348.285       27.866      863.476
07/23/2014  15:04:00     -432.262      -64.243       -7.936      272.047      151.329       93.429    74009.574    22900.388     8729.000       14.832        5.282      437.010      123.757        0.080      348.474       28.192      863.471
07/23/2014  15:05:00     -475.181     -166.669      -15.825      231.920      177.891       89.151    53786.894    31645.141     7947.985       17.358        4.669      503.563      112.245        0.050      348.530       28.289      863.449
07/23/2014  15:06:00     -467.964     -137.690        8.786      248.784      242.994      115.086    61893.331    59046.222    13244.793       18.608        6.709      487.800      123.689        0.064      348.541       28.307      863.440
07/23/2014  15:07:00     -576.531     -193.654      -20.143      299.827      220.497      110.506    89896.414    48619.010    12211.552       26.048        7.536      608.186      143.089        0.055      348.473       28.190      863.410
07/23/2014  15:08:00     -332.839     -169.752        1.995      253.981      210.444      120.010    64506.197    44286.611    14402.388       13.137        6.160      373.628      124.043        0.110      348.650       28.500      863.408
07/23/2014  15:09:00     -638.635     -148.337      -32.141      356.993      209.656      111.699   127443.892    43955.843    12476.598       30.735        9.194      655.636      141.356        0.046      348.373       28.018      863.391
07/23/2014  15:10:00     -683.651      -97.741      -22.252      315.055      197.947      122.054    99259.539    39182.954    14897.257       31.535        7.667      690.602      142.871        0.043      348.329       27.942      863.377
07/23/2014  15:11:00     -702.875      -88.318      -28.746      245.976      199.671      126.450    60504.255    39868.649    15989.581       30.949        5.818      708.402      128.863        0.033      348.308       27.905      863.366
07/23/2014  15:12:00     -402.010     -194.758       -4.128      267.794      188.539      118.282    71713.645    35546.803    13990.695       16.038        6.063      446.702      124.673        0.078      348.497       28.234      863.375
07/23/2014  15:13:00     -500.338     -277.222      -20.287      246.528      188.558      104.274    60776.295    35554.240    10873.094       21.738        5.360      572.006      116.706        0.042      348.311       27.911      863.400
07/23/2014  15:14:00     -620.746     -164.368      -32.952      295.970      221.944      117.743    87598.471    49258.970    13863.387       28.204        7.536      642.139      134.742        0.044      348.287       27.869      863.377
07/23/2014  15:15:00     -636.895     -212.797      -53.029      304.514      243.794      115.567    92728.793    59435.636    13355.759       30.959        8.276      671.504      143.763        0.046      348.269       27.837      863.397
07/23/2014  15:16:00     -456.840     -122.534        0.349      321.452      220.046      131.964   103331.650    48420.082    17414.566       19.641        8.458      472.987      168.428        0.127      348.363       28.002      863.396
07/23/2014  15:17:00     -412.860     -277.020       -0.260      283.727      208.285      119.991    80501.185    43382.512    14397.871       19.271        6.914      497.185      149.220        0.090      348.265       27.831      863.419
07/23/2014  15:18:00     -288.511     -218.433      -10.671      209.021      190.329      110.829    43689.593    36225.154    12283.034       11.161        4.610      361.872      121.317        0.112      348.431       28.119      863.412
07/23/2014  15:19:00     -352.160      -90.224        9.367      244.776      142.519       80.970    59915.118    20311.744     6556.111       10.950        4.339      363.534       91.975        0.064      348.537       28.302      863.435
07/23/2014  15:20:00     -247.180      -74.993       11.003      209.239      159.976       93.639    43780.848    25592.189     8768.283        7.248        3.907      258.306      108.052        0.175      348.629       28.462      863.408
07/23/2014  15:21:00     -435.782      -33.621      -11.819      268.902      158.411       82.328    72308.101    25093.962     6777.911       14.766        5.209      437.077      101.180        0.054      348.795       28.749      863.369
07/23/2014  15:22:00     -589.764      -29.236      -23.391      292.973      172.150      103.544    85833.018    29635.695    10721.449       23.768        6.310      590.489      126.374        0.046      348.607       28.424      863.346
07/23/2014  15:23:00     -437.080      -71.648      -15.315      262.312      193.919      111.818    68807.676    37604.700    12503.204       15.764        5.946      442.914      134.653        0.092      348.563       28.347      863.330
07/23/2014  15:24:00     -333.255     -114.347       -8.987      229.916      209.665      102.205    52861.255    43959.351    10445.937       11.572        5.363      352.327      101.566        0.083      348.699       28.582      863.343
07/23/2014  15:25:00     -508.657     -185.042      -16.211      266.347      187.394      107.652    70940.840    35116.356    11589.055       20.542        5.882      541.270      133.298        0.061      348.508       28.252      863.365
07/23/2014  15:26:00     -378.607     -200.745       -4.597      229.280      170.462       87.423    52569.165    29057.430     7642.864       13.645        4.463      428.535      102.463        0.057      348.662       28.518      863.385
07/23/2014  15:27:00     -317.790     -238.377        3.969      202.342      189.138      106.079    40942.405    35773.024    11252.718       12.288        4.398      397.258      110.756        0.078      348.544       28.315      863.355
07/23/2014  15:28:00     -514.994     -216.468      -22.655      233.919      179.519       88.104    54718.132    32227.129     7762.339       20.363        4.735      558.639       96.685        0.030      348.290       27.876      863.346
07/23/2014  15:29:00     -356.732     -163.555       -5.449      227.606      145.551       80.601    51804.530    21185.096     6496.490       11.675        3.974      392.438       92.128        0.055      348.692       28.569      863.306
07/23/2014  15:30:00     -581.100     -377.376      -15.060      319.841      270.574      138.676   102298.121    73210.448    19230.982       33.749        9.737      692.885      171.863        0.062      348.369       28.012      863.295
07/23/2014  15:31:00     -526.085     -312.506       -9.957      260.120      209.436      120.087    67662.341    43863.232    14420.986       25.021        6.297      611.903      139.185        0.052      348.220       27.754      863.307
07/23/2014  15:32:00     -519.796     -209.650      -26.228      266.831      204.783      108.868    71198.649    41936.211    11852.202       21.988        6.249      560.483      120.323        0.046      348.209       27.734      863.319
07/23/2014  15:33:00     -429.718     -100.193      -14.995      211.420      161.514       93.344    44698.595    26086.880     8713.121       13.719        3.975      441.244      104.649        0.056      348.519       28.270      863.315
07/23/2014  15:34:00     -257.454      -77.284       10.683      153.430      127.810       68.089    23540.652    16335.516     4636.176        5.843        2.226      268.803       73.182        0.074      348.871       28.880      863.281
07/23/2014  15:35:00     -377.837     -148.652      -27.348      271.707      207.184      110.614    73824.883    42925.265    12235.485       14.727        6.449      406.027      131.462        0.105      348.879       28.894      863.241
07/23/2014  15:36:00     -385.671     -217.270      -10.371      255.381      208.545      107.672    65219.372    43490.902    11593.287       15.816        6.015      442.661      126.687        0.082      348.407       28.078      863.277
07/23/2014  15:37:00     -310.075      -91.970        3.214      189.398      166.556       82.377    35871.628    27740.837     6785.968        8.749        3.520      323.427       76.656        0.056      348.683       28.554      863.284
07/23/2014  15:38:00     -425.108     -231.628       -3.870      257.886      238.959      117.394    66505.061    57101.614    13781.426       18.586        6.869      484.116      132.336        0.075      348.317       27.920      863.280
07/23/2014  15:39:00     -585.824      -29.554      -38.925      333.007      198.391       94.728   110893.897    39358.863     8973.429       25.237        7.961      586.569      126.569        0.047      348.341       27.964      863.246
07/23/2014  15:40:00     -678.621     -122.019      -64.145      243.503      180.674      101.988    59293.489    32643.258    10401.494       29.091        5.117      689.504      112.567        0.027      348.197       27.714      863.197
07/23/2014  15:41:00     -640.518      -95.757      -36.548      264.580      207.465      130.488    70002.394    43041.831    17027.078       27.539        6.504      647.637      139.975        0.047      348.295       27.884      863.176
07/23/2014  15:42:00     -543.139     -300.668      -11.681      298.566      252.318      142.763    89141.712    63664.511    20381.276       27.933        8.659      620.807      155.254        0.063      348.343       27.966      863.157
07/23/2014  15:43:00     -495.557     -247.393      -11.551      286.433      203.520      124.604    82043.970    41420.528    15526.097       22.292        6.950      553.877      146.576        0.070      348.435       28.126      863.180
07/23/2014  15:44:00     -501.762     -119.058      -21.937      284.415      215.246      120.727    80891.902    46330.936    14575.098       20.408        7.090      515.694      141.085        0.075      348.416       28.092      863.179
07/23/2014  15:45:00     -518.845      -27.754      -14.670      256.757      208.031      120.914    65924.108    43276.984    14620.248       19.698        6.191      519.586      127.240        0.060      348.427       28.112      863.158
07/23/2014  15:46:00     -446.578      -35.932       -8.890      260.733      227.891      106.743    67981.457    51934.376    11394.057       16.603        6.565      448.021      121.845        0.074      348.393       28.052      863.143
07/23/2014  15:47:00     -253.571      -91.324       -6.980      135.213      145.396       77.279    18282.452    21139.867     5972.032        5.903        2.270      269.515       66.076        0.060      348.515       28.264      863.149
07/23/2014  15:48:00     -348.828     -193.440        4.045      218.727      177.975       92.394    47841.497    31675.049     8536.739       12.357        4.403      398.873       95.293        0.057      348.691       28.568      863.138
07/23/2014  15:49:00     -663.934     -412.790      -21.900      275.426      256.281      118.251    75859.218    65679.732    13983.274       38.357        7.776      781.795      112.239        0.021      348.298       27.888      863.095
07/23/2014  15:50:00     -468.284     -326.284        3.450      286.889      212.833      131.487    82305.100    45298.045    17288.787       23.530        7.245      570.746      156.141        0.075      348.297       27.886      863.065
07/23/2014  15:51:00     -455.796     -336.804      -24.404      221.297      194.481      122.777    48972.455    37822.940    15074.222       21.181        5.093      566.734      126.587        0.050      348.413       28.086      863.021
07/23/2014  15:52:00     -434.900     -216.784      -11.413      246.478      214.111      110.613    60751.351    45843.439    12235.155       17.752        5.941      485.935      115.051        0.056      348.489       28.219      863.044
07/23/2014  15:53:00     -541.354     -277.523       -8.166      289.688      280.257      145.708    83919.374    78543.902    21230.683       27.688        9.185      608.344      161.170        0.070      348.330       27.943      863.024
07/23/2014  15:54:00     -485.299     -190.139       -5.550      250.871      202.127      111.727    62936.244    40855.272    12483.011       19.396        5.814      521.218      128.359        0.061      348.509       28.254      863.023
07/23/2014  15:55:00     -480.739     -190.912       -7.239      194.450      212.588      109.308    37810.625    45193.499    11948.294       18.126        4.748      517.259       97.876        0.036      348.538       28.304      863.029
07/23/2014  15:56:00     -465.259      -95.641       -8.679      315.499      245.277      117.769    99539.733    60160.828    13869.613       19.959        8.679      474.987      140.579        0.088      348.477       28.198      863.044
07/23/2014  15:57:00     -438.527     -179.638       -3.417      300.939      215.871      117.054    90564.110    46600.387    13701.538       18.770        7.543      473.894      134.449        0.080      348.381       28.032      863.050
07/23/2014  15:58:00     -259.024     -123.562       25.702      289.974      169.662      115.995    84084.953    28785.176    13454.894       10.465        6.316      286.986      153.922        0.288      348.641       28.483      863.051
07/23/2014  15:59:00     -419.031     -217.262      -30.985      219.382      153.673       87.169    48128.624    23615.445     7598.366       15.153        3.967      472.006       89.348        0.036      348.479       28.202      863.056
07/23/2014  16:00:00     -603.502     -226.136      -24.484      223.218      289.370      126.577    49826.189    83735.114    16021.813       28.274        7.479      644.478      129.801        0.041      348.313       27.914      863.041
07/23/2014  16:01:00     -516.899     -240.377      -17.713      293.497      202.998      108.592    86140.258    41208.027    11792.153       23.218        6.957      570.058      127.961        0.050      348.382       28.034      863.022
07/23/2014  16:02:00     -563.116      -77.413      -10.811      286.542      212.919      112.736    82106.387    45334.459    12709.496       23.165        7.008      568.412      121.841        0.046      348.348       27.974      863.028
07/23/2014  16:03:00     -560.697     -273.127       -3.730      262.420      197.183      130.667    68864.084    38881.048    17073.978       25.688        6.241      623.683      138.780        0.050      348.205       27.728      863.043
07/23/2014  16:04:00     -438.521     -193.785       -0.838      271.399      238.683      125.572    73657.150    56969.630    15768.250       18.810        7.320      479.430      124.704        0.068      348.298       27.889      863.034
07/23/2014  16:05:00     -528.874     -197.376      -10.850      307.608      216.226      108.217    94622.890    46753.698    11710.817       23.590        7.654      564.504      144.002        0.065      348.285       27.866      863.028
07/23/2014  16:06:00     -415.138     -172.312      -10.604      247.418      179.906      103.252    61215.858    32366.188    10661.026       15.317        5.212      449.478      122.796        0.075      348.502       28.240      863.021
07/23/2014  16:07:00     -410.834      -81.528       -0.370      205.969      165.854       97.934    42423.393    27507.610     9591.149       12.746        3.976      418.846      102.674        0.060      348.559       28.341      863.039
07/23/2014  16:08:00     -598.642     -378.909      -14.732      236.298      191.801      117.539    55836.655    36787.511    13815.373       30.428        5.322      708.480      133.115        0.035      348.411       28.083      863.016
07/23/2014  16:09:00     -498.560     -304.745      -35.038      227.317      200.720      113.444    51673.175    40288.717    12869.507       22.372        5.242      584.322      115.126        0.039      348.432       28.121      863.059
07/23/2014  16:10:00     -380.120     -300.109      -27.832      225.457      185.198      119.526    50830.644    34298.363    14286.447       16.735        4.971      484.310      127.650        0.069      348.364       28.003      863.056
07/23/2014  16:11:00     -328.277     -201.134       -0.624      211.110      164.814      100.661    44567.304    27163.574    10132.544       11.503        4.093      384.994      114.564        0.089      348.497       28.234      863.072
07/23/2014  16:12:00     -428.275     -172.189      -19.836      278.887      195.313      107.628    77777.912    38147.189    11583.807       17.046        6.375      461.593      130.841        0.080      348.500       28.239      863.045
07/23/2014  16:13:00     -494.696     -296.123        3.831      259.321      213.548      114.134    67247.545    45602.644    13026.504       22.913        6.294      576.553      123.788        0.046      348.259       27.820      863.039
07/23/2014  16:14:00     -489.062     -334.513      -16.595      230.730      206.470      136.497    53236.225    42629.749    18631.561       23.290        5.725      592.520      133.134        0.050      348.264       27.831      863.035
07/23/2014  16:15:00     -467.855     -245.953      -17.640      242.766      191.724       90.675    58935.246    36757.944     8221.942       19.178        5.196      528.566       94.011        0.032      348.505       28.247      863.065
07/23/2014  16:16:00     -435.442     -293.184        0.426      272.731      240.523      121.835    74382.099    57851.438    14843.664       21.129        7.354      524.944      141.699        0.073      348.275       27.850      863.057
07/23/2014  16:17:00     -385.887      -75.335       -3.217      244.018      243.526      112.704    59544.739    59305.056    12702.296       14.305        6.578      393.172      124.870        0.101      348.251       27.808      863.014
07/23/2014  16:18:00     -572.014     -212.657      -22.715      276.251      211.221      122.566    76314.775    44614.479    15022.331       25.442        6.798      610.265      135.325        0.049      348.284       27.865      863.004
07/23/2014  16:19:00     -677.953     -330.959      -30.752      249.126      188.224      109.376    62063.821    35428.151    11963.047       33.976        5.473      754.423      105.011        0.019      348.106       27.556      862.997
07/23/2014  16:20:00     -419.178     -209.818        4.889      262.486      190.034      119.606    68898.885    36112.756    14305.542       16.951        5.966      468.757      128.454        0.075      348.284       27.864      862.979
07/23/2014  16:21:00     -453.558     -279.157      -22.589      293.737      197.694      104.150    86281.654    39082.970    10847.171       21.016        6.811      532.582      125.985        0.056      348.215       27.745      862.957
07/23/2014  16:22:00     -393.005     -205.320      -22.310      287.598      167.366      105.245    82712.756    28011.365    11076.534       15.943        6.090      443.406      146.385        0.109      348.464       28.176      862.927
07/23/2014  16:23:00     -424.102     -166.325        5.513      188.148      129.215       71.456    35399.738    16696.614     5105.892       13.237        2.860      455.551       84.281        0.034      348.618       28.441      862.924
07/23/2014  16:24:00     -498.833     -131.618       -7.483      227.047      207.904      104.527    51550.389    43223.876    10925.835       18.594        5.285      515.904      109.247        0.045      348.622       28.448      862.901
07/23/2014  16:25:00     -525.902     -307.082       10.472      329.398      226.011      134.208   108503.190    51080.908    18011.850       27.425        8.880      608.993      163.709        0.072      348.430       28.117      862.831
07/23/2014  16:26:00     -702.712     -321.406      -28.356      335.439      331.353      123.496   112519.225   109794.531    15251.158       41.769       11.878      772.726      155.827        0.041      348.196       27.712      862.816
07/23/2014  16:27:00     -474.821     -190.601      -25.714      304.556      214.940       89.173    92754.065    46199.342     7951.897       20.465        7.345      511.648      102.644        0.040      348.489       28.219      862.848
07/23/2014  16:28:00     -519.751     -132.144      -10.365      301.482      199.096      109.345    90891.283    39639.235    11956.347       21.507        7.124      536.287      123.827        0.053      348.403       28.069      862.871
07/23/2014  16:29:00     -541.698      -80.903      -32.516      252.110      203.824      113.404    63559.631    41544.105    12860.447       20.948        5.898      547.707      128.286        0.055      348.411       28.083      862.857
07/23/2014  16:30:00     -546.405     -275.581      -10.683      293.199      262.806      122.534    85965.713    69067.226    15014.675       27.230        8.502      611.966      141.203        0.053      348.311       27.910      862.816
07/23/2014  16:31:00     -398.314     -238.644       -4.596      206.010      195.012       99.297    42439.916    38029.792     9859.837       15.296        4.516      464.333      110.403        0.057      348.474       28.193      862.830
07/23/2014  16:32:00     -566.673     -276.837      -16.403      214.725      243.518      116.833    46106.823    59300.972    13649.948       25.852        5.953      630.680      114.424        0.033      348.284       27.864      862.817
07/23/2014  16:33:00     -423.613     -201.777        3.880      277.834      233.552      120.640    77191.483    54546.462    14553.914       18.321        7.315      469.214      150.207        0.102      348.391       28.051      862.815
07/23/2014  16:34:00     -365.733      -41.125        3.698      178.046      155.238       93.239    31700.463    24098.706     8693.481        9.997        3.225      368.038       77.101        0.044      348.661       28.515      862.821
07/23/2014  16:35:00     -349.612     -122.046       17.193      270.157      245.548      111.180    72984.840    60293.906    12361.044       14.150        7.282      370.302      124.889        0.114      348.624       28.452      862.804
07/23/2014  16:36:00     -435.464     -272.260       -0.564      300.622      226.939      130.508    90373.693    51501.454    17032.246       21.130        7.945      513.570      162.029        0.100      348.360       27.995      862.806
07/23/2014  16:37:00     -656.992     -170.546      -27.924      235.207      211.879      107.667    55322.515    44892.524    11592.241       28.663        5.590      678.767      119.296        0.031      348.394       28.054      862.803
07/23/2014  16:38:00     -458.763     -145.414      -13.086      235.991      194.629      104.695    55691.651    37880.514    10961.055       16.814        5.227      481.258      112.746        0.055      348.465       28.177      862.789
07/23/2014  16:39:00     -603.965     -205.851      -25.693      261.054      223.885      110.476    68149.239    50124.480    12204.839       26.912        6.524      638.082      118.298        0.034      348.398       28.062      862.830
07/23/2014  16:40:00     -614.310     -112.049      -42.963      265.897      258.442      118.965    70701.298    66792.483    14152.575       27.168        7.582      624.445      129.299        0.043      348.322       27.930      862.822
07/23/2014  16:41:00     -268.335     -182.462       -5.180      193.096      152.544       94.329    37285.899    23269.772     8897.886        8.737        3.473      324.494       96.525        0.088      348.542       28.310      862.832
07/23/2014  16:42:00     -634.735     -358.024      -36.135      306.006      221.480      116.327    93639.588    49053.604    13532.066       34.427        7.811      728.746      121.319        0.028      348.215       27.744      862.795
07/23/2014  16:43:00     -550.055     -367.079      -11.164      291.583      213.286      123.319    85020.397    45491.041    15207.634       29.155        7.286      661.293      144.911        0.048      348.090       27.528      862.796
07/23/2014  16:44:00     -384.016     -191.049       11.061      305.738      179.151      119.027    93475.435    32095.006    14167.404       16.189        6.987      428.915      121.839        0.081      348.343       27.966      862.790
07/23/2014  16:45:00     -547.358     -277.306      -17.750      306.291      280.126      127.645    93814.312    78470.360    16293.153       28.266        9.429      613.595      153.323        0.062      348.262       27.825      862.761
07/23/2014  16:46:00     -411.504     -215.842       23.024      323.150      210.251      124.624   104425.999    44205.446    15531.137       19.028        8.208      464.675      163.942        0.124      348.203       27.725      862.754
07/23/2014  16:47:00     -501.109     -122.958      -26.633      206.284      214.664      115.475    42552.990    46080.550    13334.416       18.443        5.098      515.974      123.806        0.058      348.290       27.873      862.747
07/23/2014  16:48:00     -629.777      -90.361      -28.115      285.155      253.153      106.160    81313.235    64086.629    11269.999       28.109        7.833      636.227      126.173        0.039      348.195       27.711      862.699
07/23/2014  16:49:00     -604.817     -103.307      -16.261      288.812      182.630      118.986    83412.217    33353.888    14157.698       25.381        6.546      613.576      143.231        0.054      348.171       27.668      862.663
07/23/2014  16:50:00     -695.371     -251.774      -25.863      307.503      254.636      131.993    94558.025    64839.316    17422.282       36.218        8.841      739.548      147.892        0.040      348.186       27.694      862.662
07/23/2014  16:51:00     -592.842     -303.781      -25.626      361.564      245.965      128.388   130728.406    60498.692    16483.583       32.601       10.386      666.142      166.973        0.063      348.200       27.722      862.696
07/23/2014  16:52:00     -519.474     -243.508       -3.741      282.349      264.032      127.488    79720.973    69713.123    16253.220       24.739        8.284      573.715      154.585        0.073      348.242       27.792      862.692
07/23/2014  16:53:00     -383.410     -265.910      -17.396      201.819      148.553      103.359    40730.910    22067.880    10683.075       14.573        3.674      466.596      107.283        0.053      348.370       28.014      862.713
07/23/2014  16:54:00     -660.895     -179.702      -35.146      224.432      224.798      104.595    50369.592    50534.032    10940.152       29.106        5.592      684.891      114.509        0.028      348.205       27.728      862.729
07/23/2014  16:55:00     -335.367     -295.060        5.066      286.180      210.499      127.298    81898.921    44309.912    16204.714       17.096        7.121      446.689      141.599        0.100      348.320       27.927      862.717
07/23/2014  16:56:00     -556.219     -108.339      -14.437      260.512      216.524      114.705    67866.465    46882.637    13157.130       22.459        6.395      566.672      127.245        0.050      348.286       27.868      862.700
07/23/2014  16:57:00     -575.488     -185.659      -31.156      296.458      239.348      117.532    87887.200    57287.624    13813.750       26.278        7.949      604.695      136.153        0.051      348.244       27.795      862.729
07/23/2014  16:58:00     -322.804     -167.691       16.431      248.160      191.318      105.629    61583.282    36602.597    11157.472       12.095        5.467      363.762      136.883        0.142      348.367       28.008      862.755
07/23/2014  16:59:00     -459.712     -307.872      -14.498      318.401      263.356      124.564   101379.335    69356.208    15516.312       24.625        9.313      553.281      131.988        0.057      348.205       27.727      862.727
07/23/2014  17:00:00     -394.923     -225.843       -5.041      299.583      232.614      107.062    89749.780    54109.496    11462.260       18.113        7.766      454.939      132.906        0.085      348.273       27.846      862.768
07/23/2014  17:01:00     -592.760     -149.213      -32.062      240.755      182.889      103.702    57963.147    33448.250    10754.130       23.839        5.108      611.252      110.539        0.033      348.282       27.862      862.803
07/23/2014  17:02:00     -546.996     -136.259      -23.379      232.182      206.669      109.874    53908.668    42712.183    12072.402       21.348        5.435      563.711      123.692        0.048      348.208       27.733      862.798
07/23/2014  17:03:00     -335.988     -129.759       -2.858      279.616      218.968      105.389    78184.891    47946.915    11106.869       13.346        6.862      360.174      131.087        0.132      348.295       27.884      862.818
07/23/2014  17:04:00     -571.633     -210.941      -23.745      296.594      198.117      121.505    87967.839    39250.276    14763.460       25.687        7.099      609.312      155.808        0.065      348.059       27.474      862.801
07/23/2014  17:05:00     -345.851      -34.044       -5.439      175.990      129.498       89.975    30972.642    16769.766     8095.451        8.831        2.792      347.523       94.123        0.073      348.324       27.933      862.808
07/23/2014  17:06:00     -400.465     -209.878       -9.573      248.230      190.522       94.940    61618.164    36298.443     9013.574       15.570        5.347      452.129      105.590        0.055      348.425       28.108      862.831
07/23/2014  17:07:00     -565.644     -252.516      -22.508      303.952      300.518      137.703    92386.824    90310.873    18962.237       29.290       10.083      619.449      144.385        0.054      348.168       27.664      862.803
07/23/2014  17:08:00     -569.362     -295.166      -25.458      301.469      189.524      108.605    90883.355    35919.281    11795.059       27.524        6.930      641.324      133.335        0.043      348.083       27.517      862.793
07/23/2014  17:09:00     -245.285     -189.116        3.801      237.618      195.123      126.619    56462.096    38072.877    16032.497       10.323        5.528      309.725      140.219        0.205      348.304       27.897      862.785
07/23/2014  17:10:00     -545.399      -95.387       -9.678      264.311      230.394      110.607    69860.053    53081.341    12233.931       22.089        6.759      553.678      115.453        0.043      348.228       27.769      862.812
07/23/2014  17:11:00     -545.947     -220.498      -24.831      244.179      176.508      102.868    59623.187    31154.999    10581.805       22.431        5.068      588.793      116.996        0.039      348.201       27.721      862.820
07/23/2014  17:12:00     -358.218     -199.232      -39.405      261.727      191.084      113.016    68501.120    36513.189    12772.652       14.365        5.889      409.894      127.896        0.097      348.220       27.754      862.775
07/23/2014  17:13:00     -403.921     -161.283      -18.388      322.880      184.096      102.475   104251.212    33891.253    10501.024       16.904        7.432      434.931      126.549        0.085      348.305       27.901      862.794
07/23/2014  17:14:00     -596.248     -131.579      -31.264      270.781      227.576      114.519    73322.146    51790.609    13114.675       25.599        6.911      610.594      124.594        0.042      348.140       27.616      862.801
07/23/2014  17:15:00     -373.117     -241.252       -3.750      279.583      197.629      109.362    78166.833    39057.409    11960.002       16.328        6.459      444.319      127.703        0.083      348.187       27.695      862.819
07/23/2014  17:16:00     -492.188     -282.245       -4.538      284.196      236.352      117.170    80767.649    55862.438    13728.729       23.611        7.518      567.372      140.780        0.062      348.089       27.527      862.801
07/23/2014  17:17:00     -430.610     -247.110      -27.429      291.404      193.276      111.005    84916.263    37355.612    12322.126       19.089        6.730      496.476      126.590        0.065      348.100       27.546      862.765
07/23/2014  17:18:00     -512.561     -279.717      -20.984      268.753      248.982      113.741    72228.210    61991.860    12936.960       24.425        7.358      583.918      126.845        0.047      348.075       27.503      862.739
07/23/2014  17:19:00     -525.243     -322.600      -36.369      254.782      276.316      102.901    64913.681    76350.372    10588.541       26.653        7.593      616.402      110.995        0.032      348.060       27.477      862.763
07/23/2014  17:20:00     -535.398     -361.423      -19.941      345.165      267.512      124.369   119138.959    71562.573    15467.585       31.188       10.308      645.970      154.921        0.058      348.010       27.391      862.746
07/23/2014  17:21:00     -601.169     -256.442      -27.807      278.414      265.737      129.184    77514.297    70616.273    16688.630       29.635        8.241      653.580      137.545        0.044      348.008       27.388      862.747
07/23/2014  17:22:00     -414.308      -85.690        6.605      273.006      207.741      115.784    74532.530    43156.133    13405.927       15.504        6.555      423.077      140.673        0.111      348.103       27.551      862.752
07/23/2014  17:23:00     -467.537     -248.078       -3.420      246.240      166.474       92.600    60634.382    27713.479     8574.807       18.851        4.846      529.276      106.285        0.040      348.102       27.550      862.735
07/23/2014  17:24:00     -530.212     -289.654       -9.713      275.252      203.507      114.163    75763.841    41414.971    13033.077       24.764        6.511      604.172      125.510        0.043      348.021       27.410      862.722
07/23/2014  17:25:00     -545.445     -346.561      -17.060      307.826      274.135      138.118    94757.030    75149.875    19076.449       30.341        9.449      646.231      168.982        0.068      348.019       27.407      862.688
07/23/2014  17:26:00     -610.259     -403.340      -16.058      350.256      248.664      141.024   122678.922    61833.842    19887.638       36.984       10.220      731.505      177.226        0.059      347.952       27.290      862.695
07/23/2014  17:27:00     -280.132     -182.729       -2.582      164.172      208.963       87.118    26952.372    43665.346     7589.491        9.502        3.910      334.460       62.013        0.034      348.193       27.707      862.697
07/23/2014  17:28:00     -383.846     -208.812       -6.859      207.892      199.918       94.500    43219.092    39967.245     8930.325       14.153        4.606      436.967      102.348        0.055      348.222       27.757      862.685
07/23/2014  17:29:00     -467.933     -320.621      -11.568      305.717      248.250      132.347    93462.716    61627.879    17515.723       24.722        8.630      567.238      162.185        0.082      348.013       27.396      862.668
07/23/2014  17:30:00     -448.954     -309.034       -4.989      263.102      219.054      112.059    69222.659    47984.736    12557.237       21.340        6.488      545.034      126.544        0.054      347.974       27.327      862.671
07/23/2014  17:31:00     -452.162     -294.082       14.735      368.204      233.422      131.215   135573.893    54485.701    17217.336       24.917       10.364      539.383      171.744        0.101      348.076       27.505      862.681
07/23/2014  17:32:00     -417.426     -223.753        3.604      275.718      214.143      120.293    76020.387    45857.211    14470.467       18.031        6.817      473.614      146.455        0.096      348.012       27.393      862.709
07/23/2014  17:33:00     -475.639     -379.235      -23.511      242.206      305.534      105.445    58663.709    93350.786    11118.697       26.684        8.157      608.319      131.788        0.047      347.941       27.271      862.741
07/23/2014  17:34:00     -470.098     -233.154       -3.542      300.192      202.253      107.601    90115.134    40906.096    11577.965       20.895        7.130      524.741      136.594        0.068      347.810       27.046      862.726
07/23/2014  17:35:00     -419.488     -238.329       -5.839      209.915      182.550      104.780    44064.196    33324.650    10978.929       16.057        4.418      482.463      110.889        0.053      347.939       27.269      862.703
07/23/2014  17:36:00     -488.510     -306.067      -24.587      378.588      214.958      101.800   143329.094    46206.917    10363.253       26.637        9.995      576.471      139.876        0.059      347.935       27.262      862.767
07/23/2014  17:37:00     -386.209     -316.687       -9.608      192.349      166.272       92.080    36998.328    27646.300     8478.740       16.132        3.656      499.448      108.643        0.047      348.052       27.464      862.788
07/23/2014  17:38:00     -512.874     -167.259      -27.534      214.809      146.046       89.790    46142.804    21329.305     8062.156       18.364        3.777      539.459       93.564        0.030      348.043       27.448      862.828
07/23/2014  17:39:00     -416.104     -319.509       -3.096      277.233      185.307      125.754    76857.898    34338.599    15814.055       20.110        6.351      524.622      144.170        0.076      347.994       27.361      862.809
07/23/2014  17:40:00     -498.851     -362.534       -5.593      302.851      198.203      126.396    91718.503    39284.255    15976.051       26.362        7.349      616.671      141.488        0.053      347.952       27.291      862.788
07/23/2014  17:41:00     -440.781     -228.248      -15.939      214.337      187.406       87.912    45940.317    35121.135     7728.432       16.770        4.439      496.372       87.416        0.031      348.025       27.415      862.809
07/23/2014  17:42:00     -486.778     -226.238      -35.000      311.241      207.420      103.360    96870.895    43023.002    10683.342       21.994        7.529      536.784      115.068        0.046      347.999       27.372      862.805
07/23/2014  17:43:00     -278.646     -121.058      -12.833      174.519      154.649       76.849    30456.995    23916.426     5905.795        7.636        3.014      303.807       74.199        0.060      348.216       27.747      862.789
07/23/2014  17:44:00     -551.706      -52.954      -19.884      239.989      236.886       90.708    57594.635    56114.775     8227.969       21.473        6.097      554.242       90.811        0.027      348.057       27.471      862.799
07/23/2014  17:45:00     -408.582      -77.697      -13.426      177.394      140.249       80.131    31468.794    19669.869     6421.007       11.535        2.878      415.903       82.940        0.040      348.153       27.637      862.810
07/23/2014  17:46:00     -435.359     -244.270      -39.511      243.958      191.686      110.546    59515.306    36743.348    12220.402       17.960        5.424      499.205       96.268        0.037      347.950       27.287      862.783
07/23/2014  17:47:00     -677.461     -190.076      -35.564      317.361      194.076      120.872   100718.135    37665.338    14610.160       32.464        7.650      703.621      147.991        0.044      347.880       27.166      862.755
07/23/2014  17:48:00     -492.250     -121.005      -24.156      249.484      237.074       92.792    62242.382    56204.002     8610.394       19.227        6.353      506.905      105.119        0.043      347.950       27.289      862.756
07/23/2014  17:49:00     -588.123     -232.311      -10.846      242.213      158.497       89.151    58667.089    25121.249     7947.930       24.584        4.587      632.343      110.541        0.031      347.928       27.249      862.768
07/23/2014  17:50:00     -438.873        6.469      -20.221      170.222      183.861       89.615    28975.473    33804.685     8030.879       13.192        3.541      438.921       86.424        0.039      347.967       27.317      862.780
07/23/2014  17:51:00     -431.531      -85.784       -5.356      306.764      194.431       95.393    94104.233    37803.578     9099.872       16.728        7.050      439.975      133.057        0.091      347.992       27.358      862.771
07/23/2014  17:52:00     -547.872     -193.511      -35.031      302.256      293.047      105.176    91358.700    85876.810    11061.893       26.353        9.415      581.042      123.421        0.045      347.816       27.056      862.776
07/23/2014  17:53:00     -313.945     -122.151       12.159      230.581      174.900       94.482    53167.788    30590.065     8926.852       10.314        4.634      336.871      117.446        0.122      347.906       27.211      862.762
07/23/2014  17:54:00     -290.379     -141.800        7.374      255.093      174.467      114.565    65072.476    30438.633    13125.065       10.654        5.432      323.152      114.190        0.125      347.890       27.184      862.735
07/23/2014  17:55:00     -248.361      -41.595       15.260      253.744      191.882      112.710    64386.234    36818.666    12703.471        8.875        5.695      251.820      133.228        0.280      347.919       27.235      862.739
07/23/2014  17:56:00     -470.035      -82.207      -29.266      238.564      146.488      104.297    56912.635    21458.827    10877.912       15.888        4.462      477.169      119.503        0.063      347.909       27.217      862.741
07/23/2014  17:57:00     -248.945       22.462        3.175      209.440      131.770       95.718    43865.188    17363.313     9161.972        6.643        3.520      249.956      104.493        0.175      347.999       27.374      862.741
07/23/2014  17:58:00     -294.430      -65.184        5.864      172.414      161.333       87.409    29726.497    26028.378     7640.417        7.717        3.170      301.560       96.347        0.102      347.982       27.342      862.766
07/23/2014  17:59:00     -328.694     -102.954       -3.228      290.377      169.232      105.902    84319.004    28639.449    11215.310       12.139        6.209      344.441      135.547        0.155      347.920       27.237      862.727
07/23/2014  18:00:00     -424.665     -150.371       -7.222      239.947      163.033       96.028    57574.759    26579.804     9221.311       14.817        4.669      450.502      120.659        0.072      347.846       27.107      862.735
07/23/2014  18:01:00     -492.309     -125.437       -9.623      329.711      140.811      114.139   108709.133    19827.792    13027.624       19.985        7.078      508.038      147.758        0.085      347.829       27.077      862.728
07/23/2014  18:02:00     -327.410     -195.895       -0.550      270.345      227.478      113.440    73086.356    51746.311    12868.652       14.161        6.885      381.539      124.903        0.107      347.787       27.004      862.711
07/23/2014  18:03:00     -202.392      -61.061       28.807      219.152      165.096      103.655    48027.732    27256.576    10744.274        6.576        4.301      211.403      121.377        0.330      348.028       27.421      862.744
07/23/2014  18:04:00     -470.213     -250.913       -9.260      270.936      186.578      110.650    73406.407    34811.231    12243.484       20.228        6.023      532.971      138.216        0.067      347.774       26.984      862.759
07/23/2014  18:05:00     -482.242     -149.635      -14.183      263.268      194.792       89.582    69309.989    37943.813     8024.907       18.519        5.764      504.923      106.212        0.044      347.768       26.973      862.767
07/23/2014  18:06:00     -312.978     -200.851       -1.329      260.757      186.335       99.915    67994.377    34720.567     9983.084       12.548        5.635      371.882      129.913        0.122      347.793       27.015      862.761
07/23/2014  18:07:00     -449.489     -239.094       -5.983      267.623      167.285      105.103    71622.121    27984.314    11046.701       18.493        5.533      509.123      116.410        0.052      347.740       26.924      862.764
07/23/2014  18:08:00     -394.111      -65.868      -17.192      279.354      175.055       99.503    78038.775    30644.320     9900.811       13.925        5.929      399.577      115.852        0.084      347.794       27.018      862.757
07/23/2014  18:09:00     -248.353     -160.267       -0.610      167.320      213.946       91.139    27996.026    45773.050     8306.364        8.470        4.104      295.575      105.209        0.127      347.853       27.120      862.750
07/23/2014  18:10:00     -425.521     -132.645      -22.354      198.512      140.410       78.884    39407.195    19715.030     6222.745       13.224        3.267      445.716       87.076        0.038      347.947       27.282      862.775
07/23/2014  18:11:00     -467.794     -108.126      -13.642      255.258      189.966      100.075    65156.398    36087.138    10015.035       17.096        5.563      480.128      114.522        0.057      347.720       26.890      862.759
07/23/2014  18:12:00     -620.071     -128.742       -6.852      260.394      204.613      100.955    67805.146    41866.431    10191.822       26.046        5.993      633.295      114.879        0.033      347.772       26.981      862.778
07/23/2014  18:13:00     -417.936     -137.655       -7.515      247.717      185.451      105.941    61363.477    34391.942    11223.497       15.031        5.349      440.022      119.797        0.074      347.720       26.889      862.773
07/23/2014  18:14:00     -568.132     -210.318       -1.013      281.541      229.613      108.059    79265.545    52722.354    11676.847       25.531        7.183      605.812      130.077        0.046      347.616       26.710      862.756
07/23/2014  18:15:00     -363.772     -174.132       -9.463      166.381      180.213       87.285    27682.742    32476.848     7618.703       11.525        3.389      403.301       78.721        0.038      347.775       26.986      862.781
07/23/2014  18:16:00     -520.487     -232.521      -12.477      255.423      157.477       93.048    65240.921    24799.014     8657.842       21.189        4.935      570.063      118.004        0.043      347.707       26.867      862.820
07/23/2014  18:17:00     -349.692     -179.266       -9.306      221.213      129.827       89.818    48935.048    16854.972     8067.286       11.417        3.693      392.964      110.032        0.078      347.733       26.911      862.815
07/23/2014  18:18:00     -436.538     -275.788      -19.659      256.002      206.560       98.647    65537.162    42666.947     9731.214       19.245        5.897      516.357      108.639        0.044      347.638       26.749      862.802
07/23/2014  18:19:00     -480.973     -207.171       -3.941      266.345      189.327       93.357    70939.458    35844.598     8715.556       19.486        5.775      523.693      115.398        0.049      347.637       26.747      862.820
07/23/2014  18:20:00     -496.080     -116.228      -17.101      144.167      150.875       72.149    20784.153    22763.143     5205.477       15.432        2.438      509.514       67.398        0.017      347.636       26.744      862.844
07/23/2014  18:21:00     -310.579     -176.023        0.829      196.362      153.076       81.164    38558.106    23432.237     6587.530        9.800        3.429      356.992       93.083        0.068      347.664       26.794      862.854
07/23/2014  18:22:00     -375.469     -187.496        2.664      225.223      187.619       93.233    50725.297    35200.895     8692.307       13.536        4.731      419.680       95.136        0.051      347.640       26.753      862.873
07/23/2014  18:23:00     -374.967     -151.291       -4.866      248.502      179.334      104.589    61753.376    32160.547    10938.910       13.416        5.243      404.338      125.630        0.097      347.671       26.806      862.849
07/23/2014  18:24:00     -329.588      -27.199        9.404      125.513      118.875       73.329    15753.579    14131.180     5377.090        7.235        1.763      330.709       63.409        0.037      347.738       26.921      862.900
07/23/2014  18:25:00     -210.770      -67.016        6.784      186.235      114.417       69.859    34683.358    13091.137     4880.343        5.080        2.633      221.168       87.645        0.157      347.814       27.054      862.905
07/23/2014  18:26:00     -340.387      -36.314       -8.733      182.393      196.081       73.267    33267.087    38447.867     5368.080        9.716        3.854      342.319       84.716        0.061      347.800       27.028      862.902
07/23/2014  18:27:00     -242.770     -148.706        3.603      195.765      157.535       80.351    38324.013    24817.138     6456.214        7.532        3.480      284.694      100.871        0.126      347.783       27.000      862.925
07/23/2014  18:28:00     -295.773        3.275      -10.476      169.728      116.925       70.758    28807.519    13671.549     5006.668        6.753        2.374      295.792       80.796        0.075      347.784       27.002      862.908
07/23/2014  18:29:00     -564.231       -5.251      -52.770      255.135      165.768       92.273    65094.037    27478.982     8514.323       21.111        5.054      564.256      106.294        0.035      347.615       26.708      862.914
07/23/2014  18:30:00     -509.338      -82.453      -22.242      300.079      206.286      108.808    90047.342    42553.910    11839.276       20.555        7.222      515.969      134.619        0.068      347.586       26.658      862.890
07/23/2014  18:31:00     -396.876      -85.245      -13.639      188.648      179.937       84.771    35588.081    32377.205     7186.073       12.004        3.758      405.928       88.761        0.048      347.560       26.613      862.888
07/23/2014  18:32:00     -376.281      -15.117      -21.269      222.326      187.219       83.677    49428.864    35051.014     7001.834       11.686        4.574      376.584       91.523        0.059      347.600       26.683      862.894
07/23/2014  18:33:00     -416.563      -92.287      -29.277      216.379      170.612       69.638    46819.935    29108.539     4849.432       13.182        4.039      426.664       66.750        0.024      347.639       26.750      862.854
07/23/2014  18:34:00     -430.311      -45.720      -35.038      154.509      131.503       72.078    23873.018    17292.923     5195.177       11.741        2.318      432.733       66.743        0.024      347.586       26.659      862.888
07/23/2014  18:35:00     -442.233      -93.782      -30.047      168.583      131.558       85.777    28420.157    17307.637     7357.676       12.917        2.654      452.067       88.368        0.038      347.598       26.681      862.881
07/23/2014  18:36:00     -179.632        4.210        5.937      134.883       93.347       67.622    18193.335     8713.730     4572.746        3.189        1.574      179.682       62.434        0.121      347.629       26.734      862.873
07/23/2014  18:37:00     -214.594     -122.802        5.670      178.401       95.973       66.873    31826.839     9210.893     4472.030        5.333        2.275      247.247       77.476        0.098      347.647       26.766      862.878
07/23/2014  18:38:00     -294.748     -223.588      -10.797      186.621      138.200       72.567    34827.281    19099.216     5266.015        9.808        2.960      369.957       77.248        0.044      347.656       26.779      862.875
07/23/2014  18:39:00     -330.912     -288.679        2.625      222.567      177.953       83.329    49536.110    31667.162     6943.758       14.048        4.407      439.133       94.749        0.047      347.560       26.614      862.836
07/23/2014  18:40:00     -121.507      -41.228       12.286      118.442      118.894       59.731    14028.475    14135.702     3567.735        2.417        1.587      128.311       66.695        0.270      347.721       26.895      862.876
07/23/2014  18:41:00     -406.628      -78.069      -19.922      237.951      173.498       78.460    56620.655    30101.431     6155.979       13.234        4.644      414.054      100.207        0.059      347.657       26.782      862.879
07/23/2014  18:42:00     -332.743      -80.183       -8.278      221.953      131.919       79.357    49262.942    17402.707     6297.472        9.507        3.648      342.268       72.650        0.045      347.661       26.790      862.899
07/23/2014  18:43:00     -352.415      -70.333       -6.937      243.508      162.886       92.982    59296.275    26531.779     8645.604       11.181        4.724      359.365      103.727        0.083      347.519       26.545      862.902
07/23/2014  18:44:00     -294.102     -219.874      -17.386      191.256      165.350       73.730    36579.015    27340.461     5436.161       10.224        3.468      367.206       71.045        0.037      347.543       26.586      862.913
07/23/2014  18:45:00     -132.088      -54.422       17.087      151.794      142.166       65.112    23041.269    20211.221     4239.565        3.409        2.375      142.860       78.410        0.301      347.667       26.800      862.959
07/23/2014  18:46:00     -327.151     -180.768      -12.503      213.882      153.162       86.010    45745.444    23458.534     7397.760       10.822        3.830      373.771      106.502        0.081      347.528       26.560      862.972
07/23/2014  18:47:00     -149.154      -36.279       19.814      154.216      141.402       78.240    23782.622    19994.561     6121.558        3.692        2.495      153.503       76.083        0.246      347.657       26.783      862.952
07/23/2014  18:48:00     -277.276       -4.121       -6.428      189.821      125.215       75.829    36032.121    15678.796     5750.094        6.719        2.873      277.307       86.007        0.096      347.582       26.653      862.994
07/23/2014  18:49:00     -241.254      -33.784       -4.609      146.056      101.545       76.771    21332.391    10311.474     5893.828        4.844        1.877      243.608       80.541        0.109      347.693       26.843      863.016
07/23/2014  18:50:00     -423.021     -169.450      -19.336      175.921      155.401       87.189    30948.167    24149.372     7601.850       13.535        3.135      455.697       78.167        0.029      347.492       26.498      862.974
07/23/2014  18:51:00     -214.667      -77.934       15.669      169.009      113.372       82.636    28564.065    12853.212     6828.627        5.031        2.412      228.376       94.079        0.170      347.549       26.594      862.959
07/23/2014  18:52:00     -493.321      -75.920      -55.738      198.996      162.226       74.641    39599.387    26317.290     5571.249       16.185        3.574      499.129       77.589        0.024      347.469       26.457      862.991
07/23/2014  18:53:00     -427.598      -40.496      -39.161      194.736      173.109       79.050    37922.151    29966.822     6248.918       13.006        3.707      429.511       90.289        0.044      347.522       26.549      862.991
07/23/2014  18:54:00     -397.882      -98.034      -17.543      198.882      113.090       79.451    39554.057    12789.405     6312.529       11.343        2.933      409.782       63.319        0.024      347.527       26.556      862.997
07/23/2014  18:55:00     -366.490      -75.050      -16.245      203.572      118.345       66.349    41441.410    14005.458     4402.250       10.002        2.992      374.095       83.313        0.050      347.451       26.426      863.008
07/23/2014  18:56:00     -410.899     -164.681      -10.424      172.904      155.470       67.831    29895.875    24170.988     4601.011       12.736        2.933      442.671       61.048        0.019      347.383       26.309      863.015
07/23/2014  18:57:00     -439.827      -82.568      -39.386      174.972       97.290       75.770    30615.236     9465.253     5741.127       12.381        2.291      447.510       80.985        0.033      347.408       26.350      863.013
07/23/2014  18:58:00     -659.434     -163.008      -31.909      311.300      257.959      111.553    96907.843    66543.013    12444.161       31.913        8.795      679.283      127.658        0.035      347.276       26.125      862.969
07/23/2014  18:59:00     -223.423      -57.558       19.473      224.971      122.358       99.716    50611.749    14971.425     9943.235        6.455        3.776      230.718      110.891        0.231      347.375       26.295      862.964
07/23/2014  19:00:00     -341.244      -61.774        4.674      223.745      159.518       95.068    50061.856    25446.001     9037.888       10.240        4.227      346.790      106.370        0.094      347.336       26.228      862.944
07/23/2014  19:01:00     -395.113     -108.016      -21.362      230.764      172.268       87.063    53252.010    29676.404     7580.040       12.936        4.525      409.611       98.725        0.058      347.312       26.187      862.949
07/23/2014  19:02:00     -478.476     -183.887      -22.531      249.805      141.357       81.484    62402.424    19981.895     6639.609       17.613        4.451      512.595       94.532        0.034      347.311       26.185      862.943
07/23/2014  19:03:00     -474.254      -84.788      -19.094      262.849      219.890      107.831    69089.804    48351.613    11627.436       18.074        6.453      481.773      125.254        0.068      347.281       26.133      862.909
07/23/2014  19:04:00     -286.937      -61.230        6.693      167.138      150.642       76.956    27935.256    22693.075     5922.207        7.133        2.828      293.397       81.416        0.077      347.342       26.236      862.903
07/23/2014  19:05:00     -259.882      -68.303       -0.715      164.932      140.019      108.464    27202.423    19605.332    11764.403        6.538        2.929      268.708       94.949        0.125      347.271       26.117      862.881
07/23/2014  19:06:00     -320.630     -164.378      -22.372      223.107      191.674       95.785    49776.607    36738.884     9174.816       11.299        4.785      360.311       99.552        0.076      347.264       26.103      862.835
07/23/2014  19:07:00     -440.972     -113.402      -38.557      234.674      111.186       80.038    55071.978    12362.237     6406.151       14.131        3.692      455.320       98.957        0.047      347.281       26.133      862.841
07/23/2014  19:08:00     -488.262      -47.904      -14.457      187.108      172.728       87.407    35009.226    29834.841     7639.899       15.668        3.624      490.606       88.065        0.032      347.246       26.073      862.817
07/23/2014  19:09:00     -301.743      -43.046      -19.051      181.814      148.944       80.581    33056.382    22184.339     6493.229        7.749        3.087      304.798       91.214        0.090      347.295       26.158      862.805
07/23/2014  19:10:00     -586.467     -112.607      -49.436      234.153      183.459       90.582    54827.777    33657.023     8205.099       22.786        4.834      597.180      108.212        0.033      347.180       25.958      862.783
07/23/2014  19:11:00     -563.277     -158.675      -25.757      219.318      159.467       90.151    48100.436    25429.646     8127.200       21.237        4.083      585.199       75.362        0.017      347.176       25.952      862.707
07/23/2014  19:12:00     -491.577     -137.079      -31.976      185.572      199.608       96.744    34436.813    39843.296     9359.343       17.253        4.182      510.332       87.369        0.029      347.194       25.982      862.734
07/23/2014  19:13:00     -463.568      -13.466       -4.502      285.090      235.768      106.313    81276.537    55586.654    11302.373       18.160        7.408      463.764      127.929        0.076      347.183       25.964      862.687
07/23/2014  19:14:00     -608.183     -199.103      -11.593      236.128      183.303      101.979    55756.648    33599.829    10399.694       25.469        4.988      639.944      116.972        0.033      347.150       25.908      862.663
07/23/2014  19:15:00     -422.436     -109.374        0.178      227.577      158.456       78.842    51791.447    25108.218     6216.115       13.675        4.156      436.365       90.577        0.043      347.155       25.916      862.718
07/23/2014  19:16:00     -422.042      -25.557      -20.583      293.140      189.464      109.365    85931.017    35896.551    11960.714       15.647        6.689      422.815      140.535        0.110      347.179       25.957      862.696
07/23/2014  19:17:00     -575.117     -128.684      -35.266      298.383      157.334      101.941    89032.640    24753.849    10391.963       23.635        6.209      589.338      140.136        0.057      347.101       25.821      862.704
07/23/2014  19:18:00     -435.648      -67.685      -30.372      188.082      176.468       93.617    35374.661    31140.858     8764.186       13.527        3.764      440.874       92.076        0.044      347.175       25.952      862.698
07/23/2014  19:19:00     -354.748     -169.596       -4.174      265.858      165.049      102.830    70680.633    27241.227    10573.977       13.154        5.425      393.204      113.918        0.084      347.162       25.929      862.682
07/23/2014  19:20:00     -428.129      -77.198       -3.437      172.918      153.924       83.788    29900.533    23692.461     7020.401       12.493        3.031      435.033       76.229        0.031      347.141       25.891      862.700
07/23/2014  19:21:00     -490.530      -50.941      -18.569      227.418      227.585      105.418    51719.112    51794.849    11113.048       17.907        5.731      493.169      108.057        0.048      347.104       25.828      862.732
07/23/2014  19:22:00     -215.890      -37.352       23.260      223.031      145.575       85.931    49742.851    21191.938     7384.148        6.342        3.916      219.097      103.342        0.222      347.158       25.922      862.755
07/23/2014  19:23:00     -395.800     -204.402      -34.634      232.756      218.287       89.319    54175.393    47649.358     7977.876       15.470        5.490      445.464       89.486        0.040      347.070       25.768      862.817
07/23/2014  19:24:00     -412.558      -72.065      -20.297      201.188      146.615       84.589    40476.485    21495.853     7155.226       12.245        3.456      418.804       87.300        0.043      347.074       25.776      862.819
07/23/2014  19:25:00     -331.722      -25.077      -18.969      128.686      115.831       78.863    16560.035    13416.929     6219.449        7.361        1.810      332.669       74.108        0.050      347.079       25.784      862.830
07/23/2014  19:26:00     -280.962     -123.167       -2.962      190.212      112.593       66.162    36180.465    12677.198     4377.351        7.367        2.662      306.774       78.024        0.065      347.092       25.808      862.825
07/23/2014  19:27:00     -460.424      -48.608      -17.326      221.258      209.317       86.041    48955.161    43813.774     7403.088       15.739        5.009      462.983       97.815        0.045      347.029       25.699      862.826
07/23/2014  19:28:00     -381.760     -145.614       10.122      216.972      194.354       88.568    47076.952    37773.587     7844.246       12.985        4.635      408.588       95.011        0.054      347.004       25.656      862.814
07/23/2014  19:29:00     -390.223      -22.076      -25.170      144.229      129.699       65.495    20802.059    16821.824     4289.560        9.765        2.096      390.847       63.428        0.026      347.028       25.698      862.862
07/23/2014  19:30:00     -146.950      -43.964       16.697      191.200      106.732       67.884    36557.490    11391.793     4608.171        3.817        2.628      153.386       92.459        0.363      347.041       25.721      862.867
07/23/2014  19:31:00     -224.349      -65.021       -4.727      182.357      172.190       76.600    33253.925    29649.343     5867.623        6.166        3.439      233.581       90.376        0.150      346.992       25.637      862.855
07/23/2014  19:32:00     -338.334      -39.566      -34.845      207.752      119.855       70.827    43160.702    14365.227     5016.469        8.988        3.127      340.640       86.164        0.064      346.985       25.623      862.869
07/23/2014  19:33:00     -345.077     -111.103       -2.740      233.206      143.382       79.492    54385.133    20558.478     6319.050       10.633        4.063      362.522       95.081        0.069      346.972       25.600      862.830
07/23/2014  19:34:00     -129.238      -16.366       -8.557      124.539       92.970       44.912    15510.020     8643.430     2017.095        2.160        1.309      130.270       53.977        0.172      346.985       25.624      862.854
07/23/2014  19:35:00     -299.831      -90.458      -19.815      157.282      127.993       59.575    24737.549    16382.209     3549.124        7.156        2.233      313.179       64.847        0.043      346.929       25.527      862.872
07/23/2014  19:36:00      -53.013      -34.692       27.992      143.402      139.249       86.933    20564.119    19390.225     7557.357        2.615        2.376       63.356       73.868        1.359      346.927       25.526      862.790
07/23/2014  19:37:00     -129.861       70.884       -9.184       63.374       71.139       40.731     4016.259     5060.693     1659.001        1.635        0.537      147.947       36.037        0.059      346.931       25.533      862.835
07/23/2014  19:38:00      -55.538       18.393        3.582       74.857       72.085       52.288     5603.559     5196.218     2733.985        0.848        0.677       58.504       30.795        0.277      346.946       25.558      862.799
07/23/2014  19:39:00     -199.177     -116.573      -10.968      150.741       78.509       57.313    22722.995     6163.655     3284.788        4.277        1.609      230.783       34.365        0.022      346.914       25.503      862.814
07/23/2014  19:40:00     -463.973      -75.303      -44.617      154.905      131.070       61.078    23995.684    17179.290     3730.470       13.391        2.245      470.044       61.729        0.017      346.841       25.375      862.764
07/23/2014  19:41:00     -127.877        4.406       40.655      149.957       91.511       65.557    22487.200     8374.243     4297.711        2.658        1.758      127.953       71.997        0.317      346.852       25.395      862.824
07/23/2014  19:42:00     -322.684     -191.760       -8.004      248.484      171.372       96.162    61744.060    29368.370     9247.093       12.064        5.018      375.362      114.884        0.094      346.837       25.368      862.821
07/23/2014  19:43:00     -170.930     -208.241       35.458      241.867      197.974      115.152    58499.661    39193.760    13259.961        9.237        5.548      269.409      120.837        0.201      346.826       25.350      862.802
07/23/2014  19:44:00     -114.125      -66.580       23.027      130.255       99.015       69.409    16966.391     9803.882     4817.543        2.478        1.579      132.127       72.096        0.298      346.828       25.353      862.845
07/23/2014  19:45:00        4.294      -22.134       18.811       64.712       73.374       51.081     4187.669     5383.746     2609.316        0.652        0.609       22.547       44.612        3.915      346.844       25.384      862.881
07/23/2014  19:46:00     -294.276       50.856      -11.419      173.146      129.946       85.132    29979.578    16885.979     7247.475        7.170        2.706      298.638       83.166        0.078      346.782       25.274      862.910
07/23/2014  19:47:00     -324.286     -116.392      -14.713      183.527      126.922       51.094    33682.341    16109.207     2610.576        8.565        2.620      344.541       67.062        0.038      346.769       25.252      862.891
07/23/2014  19:48:00      -46.728      -28.854       15.694      108.295      103.031       51.024    11727.744    10615.358     2603.450        1.410        1.247       54.918       46.429        0.715      346.730       25.186      862.906
07/23/2014  19:49:00       30.239       -8.163      -10.655       74.977       94.932       35.661     5621.583     9012.097     1271.719        0.850        0.795       31.321       11.587        0.137      346.699       25.134      862.903
07/23/2014  19:50:00       24.360       -4.330       -5.126       72.394      123.338       63.037     5240.930    15212.330     3973.649        1.253        1.221       24.742       67.134        7.362      346.731       25.186      862.952
07/23/2014  19:51:00     -211.542       34.019        7.898      175.283       91.051       61.667    30724.259     8290.250     3802.777        4.439        2.141      214.260       70.937        0.110      346.680       25.099      862.933
07/23/2014  19:52:00     -325.888      -53.280      -30.669      221.891      172.342       57.365    49235.564    29701.828     3290.778        9.609        4.111      330.215       44.737        0.018      346.643       25.035      862.952
07/23/2014  19:53:00     -201.152       -3.067       -2.105      176.051      136.928       75.373    30994.015    18749.409     5681.118        4.794        2.771      201.175       80.675        0.161      346.654       25.054      862.979
07/23/2014  19:54:00       57.900      -68.985       -2.580       93.375      113.132       57.542     8718.982    12798.751     3311.119        1.647        1.241       90.063       50.800        0.318      346.648       25.045      862.995
07/23/2014  19:55:00     -107.876      -75.178       14.941      137.667       99.345       63.581    18952.314     9869.384     4042.601        2.518        1.643      131.487       84.983        0.418      346.657       25.060      863.020
07/23/2014  19:56:00      -79.430      -59.718        7.497       98.200       84.258       51.681     9643.239     7099.485     2670.924        1.467        0.971       99.375       27.601        0.077      346.597       24.960      863.059
07/23/2014  19:57:00      -70.471     -179.794       -0.258       70.858      101.992       43.759     5020.922    10402.380     1914.877        2.731        0.867      193.112       41.185        0.045      346.560       24.892      863.055
07/23/2014  19:58:00      -29.471        1.343       82.503      108.154      113.290       75.027    11697.234    12834.558     5629.107        1.891        1.508       29.502       61.471        4.342      346.547       24.873      863.064
07/23/2014  19:59:00      -47.014       76.785      -11.220       86.551      100.009       47.768     7491.083    10001.878     2281.753        1.400        0.989       90.034       55.161        0.375      346.545       24.869      863.083
07/23/2014  20:00:00       25.773       71.217       85.864       48.374       63.012       52.470     2340.037     3970.544     2753.104        1.108        0.453       75.737       39.835        0.277      346.483       24.763      863.128
07/23/2014  20:01:00      -35.370     -123.803        8.151       62.597       95.160       60.288     3918.327     9055.491     3634.634        1.662        0.830      128.756       61.389        0.227      346.566       24.905      863.130
07/23/2014  20:02:00      -47.583      -77.800       -7.430      123.327       81.807       64.292    15209.495     6692.433     4133.499        1.720        1.302       91.198       52.195        0.328      346.566       24.905      863.198
07/23/2014  20:03:00      -38.072       16.189       -1.763       81.434       57.138       42.474     6631.458     3264.786     1804.037        0.671        0.585       41.371       41.561        1.009      346.551       24.881      863.198
07/23/2014  20:04:00      115.384      105.191       -2.877       52.563       47.606       38.124     2762.917     2266.305     1453.467        1.543        0.324      156.136       25.254        0.026      346.534       24.852      863.189
07/23/2014  20:05:00      -10.787      184.462      -36.820       79.952       67.420       33.092     6392.312     4545.435     1095.059        2.376        0.602      184.777       33.120        0.032      346.499       24.787      863.186
07/23/2014  20:06:00       59.877      202.373       27.355       99.814      179.688       88.312     9962.788    32287.716     7799.014        4.766        2.502      211.045       78.603        0.139      346.486       24.765      863.173
07/23/2014  20:07:00     -193.146      -67.625      -30.053      148.450      122.680       56.142    22037.453    15050.300     3151.970        4.150        2.012      204.642       48.381        0.056      346.556       24.886      863.255
07/23/2014  20:08:00      -19.741       81.471      -34.160       48.266       58.309       28.569     2329.572     3399.895      816.196        0.737        0.327       83.828       22.493        0.072      346.520       24.827      863.248
07/23/2014  20:09:00       37.692       -2.032        7.171       51.660       44.239       27.843     2668.764     1957.119      775.212        0.344        0.270       37.746       22.340        0.350      346.487       24.769      863.260
07/23/2014  20:10:00       32.264      -43.040        3.478       33.923       46.618       28.419     1150.746     2173.214      807.652        0.352        0.207       53.791       20.182        0.141      346.519       24.823      863.311
07/23/2014  20:11:00       -9.987      -31.861       23.135       65.265       57.816       33.389     4259.542     3342.744     1114.806        0.518        0.436       33.390       35.529        1.132      346.416       24.645      863.341
07/23/2014  20:12:00      -13.954      119.597        6.030       76.148       74.939       50.640     5798.464     5615.847     2564.429        1.425        0.699      120.408       45.997        0.146      346.418       24.649      863.338
07/23/2014  20:13:00      -34.083       36.307       -2.548       32.013       50.079       32.129     1024.844     2507.926     1032.301        0.352        0.228       49.798       31.052        0.389      346.377       24.581      863.362
07/23/2014  20:14:00       -0.020       32.176        9.321       33.530       26.612       19.585     1124.288      708.203      383.553        0.167        0.111       32.176       14.416        0.201      346.324       24.490      863.363
07/23/2014  20:15:00       31.767       38.884        0.399       20.037       36.882       20.342      401.471     1360.284      413.788        0.235        0.109       50.210       15.536        0.096      346.285       24.422      863.377
07/23/2014  20:16:00       43.613       15.926       15.095       58.204       35.117       31.220     3387.650     1233.181      974.712        0.399        0.280       46.430       17.572        0.143      346.345       24.526      863.403
07/23/2014  20:17:00     -103.542      -48.784       -6.265      143.455       55.446       37.773    20579.325     3074.292     1426.808        1.911        1.254      114.459       37.094        0.105      346.432       24.674      863.443
07/23/2014  20:18:00     -152.222      -62.313       -0.443      104.405       88.985       53.569    10900.390     7918.269     2869.650        2.437        1.084      164.483       56.907        0.120      346.337       24.508      863.435
07/23/2014  20:19:00      -33.202        6.396       11.181       65.503       69.788       41.508     4290.688     4870.399     1722.946        0.607        0.544       33.813       41.264        1.489      346.261       24.381      863.443
07/23/2014  20:20:00      -56.765       -4.461       -5.905       56.216       46.538       27.388     3160.191     2165.803      750.122        0.468        0.304       56.940       19.949        0.123      346.277       24.409      863.463
07/23/2014  20:21:00       15.794      -22.348       -2.710       12.499       18.011       14.739      156.230      324.408      217.233        0.073        0.035       27.366        8.028        0.086      346.233       24.332      863.467
07/23/2014  20:22:00      -94.560      -45.120       -8.712       83.449       27.753       18.805     6963.661      770.230      353.623        0.957        0.404      104.773       24.645        0.055      346.376       24.580      863.500
07/23/2014  20:23:00      -69.871       51.826        1.097       79.289       90.417       45.982     6286.801     8175.217     2114.367        1.207        0.829       86.994       24.275        0.078      346.269       24.396      863.542
07/23/2014  20:24:00        8.295       64.098        3.337       34.830       71.417       32.847     1213.150     5100.344     1078.951        0.579        0.370       64.632       42.177        0.426      346.151       24.191      863.537
07/23/2014  20:25:00       29.488       48.169       12.633       65.976       91.874       48.088     4352.864     8440.760     2312.426        0.922        0.755       56.478       24.715        0.191      346.230       24.328      863.545
07/23/2014  20:26:00      -61.738      -60.111       17.790       65.531       59.549       30.143     4294.298     3546.028      908.616        0.824        0.437       86.168       23.791        0.076      346.279       24.412      863.531
07/23/2014  20:27:00        5.292       19.656       11.218       60.455       24.738       34.277     3654.816      611.965     1174.886        0.299        0.272       20.356       33.087        2.642      346.140       24.173      863.550
07/23/2014  20:28:00      -48.358        9.765       -5.941       52.286       29.073       17.119     2733.825      845.250      293.051        0.317        0.194       49.334       21.836        0.196      346.205       24.285      863.618
07/23/2014  20:29:00       38.194       34.669       35.910       34.014       26.020       25.927     1156.958      677.025      672.216        0.323        0.125       51.582       24.436        0.224      346.052       24.021      863.644
07/23/2014  20:30:00       -6.003       21.417       62.073       32.075       44.077       29.716     1028.799     1942.764      883.052        0.410        0.193       22.242       27.722        1.553      346.041       24.002      863.622
07/23/2014  20:31:00      -14.081       30.416       55.092       33.476       45.059       39.073     1120.617     2030.281     1526.666        0.442        0.234       33.517       26.144        0.608      346.076       24.063      863.616
07/23/2014  20:32:00      -29.700       24.349       35.416       31.670       35.711       32.176     1003.005     1275.275     1035.288        0.302        0.166       38.405       15.226        0.157      346.112       24.125      863.621
07/23/2014  20:33:00      -20.898      -18.187       21.634       34.577       36.790       29.338     1195.542     1353.521      860.720        0.232        0.170       27.704       27.067        0.955      346.200       24.277      863.661
07/23/2014  20:34:00      -54.302      -96.335        0.120       75.980       55.828       29.838     5772.907     3116.821      890.291        1.100        0.489      110.585       26.247        0.056      346.228       24.324      863.676
07/23/2014  20:35:00      -57.045     -151.247        7.653       60.756       73.903       34.092     3691.335     5461.680     1162.286        1.825        0.516      161.647       33.488        0.043      346.253       24.367      863.661
07/23/2014  20:36:00     -152.497      -58.284        0.577       60.354       48.298       35.471     3642.554     2332.705     1258.208        1.694        0.362      163.255       30.231        0.034      346.180       24.242      863.663
07/23/2014  20:37:00       -4.053      -49.586        7.738       37.681       39.542       28.345     1419.887     1563.567      803.451        0.316        0.189       49.751       18.061        0.132      346.180       24.243      863.662
07/23/2014  20:38:00       22.026      -82.138        7.322       27.517       40.862       25.710      757.199     1669.679      661.022        0.519        0.154       85.040       11.897        0.020      346.147       24.189      863.668
07/23/2014  20:39:00       20.507      -23.906       22.510       21.674       23.158       17.632      469.783      536.312      310.870        0.141        0.066       31.497        8.898        0.080      346.102       24.107      863.674
07/23/2014  20:40:00       42.189       17.453       11.150       47.208       27.002       18.234     2228.632      729.083      332.463        0.275        0.165       45.657        9.612        0.044      345.988       23.911      863.671
07/23/2014  20:41:00       -7.648      -23.202        7.354       31.628       35.094       22.575     1000.323     1231.568      509.626        0.170        0.137       24.430       24.065        0.970      345.979       23.896      863.686
07/23/2014  20:42:00       21.925      -54.797       -5.823       37.526       32.972       26.823     1408.188     1087.138      719.457        0.337        0.161       59.020       28.279        0.230      346.010       23.948      863.691
07/23/2014  20:43:00       -7.192      -20.482        4.698       17.252       16.445       11.764      297.633      270.432      138.403        0.060        0.035       21.708       10.636        0.240      346.085       24.079      863.710
07/23/2014  20:44:00        6.102       16.368       14.587       18.326       22.740       16.430      335.842      517.086      269.936        0.082        0.056       17.469       17.667        1.023      345.907       23.775      863.711
07/23/2014  20:45:00      -45.051     -161.097       -0.162      159.589      136.752       49.911    25468.567    18701.174     2491.101        3.731        2.333      167.278       35.328        0.045      346.055       24.025      863.716
07/23/2014  20:46:00      -89.504      -41.558       16.889      120.300      121.671       44.341    14472.047    14803.715     1966.091        2.063        1.562       98.681       49.185        0.248      345.997       23.928      863.717
07/23/2014  20:47:00       58.990      110.787       -4.299       45.713       71.953       45.856     2089.717     5177.183     2102.729        1.257        0.468      125.513       20.170        0.026      345.964       23.872      863.702
07/23/2014  20:48:00       -0.552      -36.844       10.787       37.157       46.565       32.600     1380.676     2168.319     1062.759        0.304        0.231       36.848       26.467        0.516      345.955       23.858      863.707
07/23/2014  20:49:00      -23.864      -36.293       -6.538       43.297       26.908       14.649     1874.651      724.020      214.581        0.237        0.141       43.436       16.753        0.149      345.970       23.883      863.720
07/23/2014  20:50:00       -9.239      -88.590        3.487       30.851       58.106       19.259      951.800     3376.353      370.890        0.632        0.235       89.071       15.342        0.030      346.076       24.063      863.726
07/23/2014  20:51:00      -82.243     -131.524      -12.130      132.990       50.621       34.501    17686.304     2562.450     1190.308        2.282        1.072      155.121       41.882        0.073      346.094       24.091      863.713
07/23/2014  20:52:00     -200.564      -97.630      -25.422       66.863       55.213       32.960     4470.717     3048.515     1086.391        2.950        0.430      223.064       31.164        0.020      346.073       24.055      863.722
07/23/2014  20:53:00      -18.067      -25.792      -19.091       50.406       28.562       18.797     2540.813      815.797      353.328        0.253        0.185       31.490       20.601        0.428      345.996       23.925      863.731
07/23/2014  20:54:00      -69.162      -55.784      -11.718       74.844       23.773       17.364     5601.625      565.161      301.496        0.725        0.323       88.855       11.731        0.017      346.072       24.057      863.735
07/23/2014  20:55:00     -190.994     -105.964       -4.123       87.273       78.899       45.365     7616.631     6225.087     2057.950        3.181        0.795      218.420       28.995        0.018      346.005       23.939      863.739
07/23/2014  20:56:00     -133.155      -26.031       -5.031       91.575       60.537       36.409     8385.957     3664.773     1325.607        1.590        0.669      135.676       22.385        0.027      345.969       23.879      863.722
07/23/2014  20:57:00      -72.201       -9.839        4.207       62.054       48.504       38.056     3850.688     2352.622     1448.227        0.649        0.383       72.869       33.407        0.210      345.924       23.803      863.733
07/23/2014  20:58:00      -66.711      -36.347        5.531       51.392       81.332       25.552     2641.187     6614.868      652.886        0.785        0.495       75.971       30.211        0.158      345.873       23.716      863.753
07/23/2014  20:59:00     -137.646     -104.473       -0.417      120.691       69.498       40.118    14566.273     4829.963     1609.432        2.543        1.050      172.803       42.926        0.062      345.962       23.868      863.743
07/23/2014  21:00:00     -187.507     -226.732       -6.438      125.279      151.874       44.134    15694.818    23065.748     1947.841        6.365        2.035      294.222       37.827        0.017      345.944       23.832      863.752
07/23/2014  21:01:00     -232.353     -129.463       -1.998      103.599       80.281       45.249    10732.838     6445.015     2047.472        4.499        0.961      265.987       53.698        0.041      345.892       23.745      863.747
07/23/2014  21:02:00     -227.979      -68.010      -11.955       80.933       79.709       32.061     6550.181     6353.590     1027.890        3.533        0.697      237.907       31.084        0.017      345.926       23.802      863.755
07/23/2014  21:03:00     -110.403      -61.682       -6.409      100.790       85.631       30.276    10158.673     7332.686      916.659        1.722        0.920      126.465       46.072        0.133      345.888       23.739      863.763
07/23/2014  21:04:00     -167.143     -114.846        0.098       77.460       77.967       43.416     5999.991     6078.839     1884.971        2.754        0.698      202.797       38.239        0.036      345.880       23.723      863.770
07/23/2014  21:05:00      -61.083      -40.524        7.579       58.075       57.858       26.648     3372.761     3347.519      710.123        0.643        0.372       73.303       28.897        0.155      345.833       23.647      863.779
07/23/2014  21:06:00      -18.941      -11.171       -7.865       30.848       26.875       17.446      951.617      722.268      304.363        0.126        0.099       21.990        7.495        0.116      345.799       23.587      863.751
07/23/2014  21:07:00      -80.357       -2.227       -6.281       31.205       23.140       15.295      973.757      535.457      233.933        0.412        0.087       80.388       16.708        0.043      345.832       23.643      863.766
07/23/2014  21:08:00      -79.301       49.302       -5.697       36.237       58.182       23.179     1313.119     3385.144      537.282        0.699        0.262       93.377       24.532        0.069      345.785       23.562      863.762
07/23/2014  21:09:00       33.144       43.022       -6.640       33.876       43.686       17.433     1147.600     1908.467      303.916        0.318        0.168       54.308       12.701        0.055      345.788       23.568      863.732
07/23/2014  21:10:00        5.350      -34.719       -5.753       23.003       22.702       10.852      529.157      515.395      117.761        0.121        0.058       35.129        7.282        0.043      345.811       23.607      863.742
07/23/2014  21:11:00       23.598      -36.156       20.414       23.810       47.810       29.464      566.893     2285.834      868.131        0.300        0.186       43.175       32.933        0.582      345.694       23.407      863.740
07/23/2014  21:12:00       -7.685     -109.858       20.413       48.008       45.918       33.912     2304.759     2108.445     1150.017        0.905        0.278      110.127       26.444        0.058      345.763       23.528      863.744
07/23/2014  21:13:00      -32.146      -99.784       17.838       91.532       80.674       52.085     8378.081     6508.336     2712.867        1.445        0.880      104.834       53.823        0.264      345.733       23.474      863.751
07/23/2014  21:14:00     -131.388       25.352       -2.831       56.472       54.031       34.898     3189.112     2919.362     1217.897        1.262        0.366      133.812       27.546        0.042      345.616       23.274      863.772
07/23/2014  21:15:00      -40.149        8.866       -1.490       56.153       70.152       31.687     3153.187     4921.266     1004.063        0.538        0.454       41.116       29.191        0.504      345.633       23.303      863.790
07/23/2014  21:16:00      -10.442      -12.153       33.229       24.268       25.823       13.065      588.927      666.832      170.705        0.139        0.071       16.023        5.033        0.099      345.450       22.989      863.752
07/23/2014  21:17:00       46.680       87.726       14.354       27.179       46.534       25.267      738.694     2165.397      638.422        0.681        0.177       99.373        5.896        0.004      345.605       23.254      863.763
07/23/2014  21:18:00        7.664       97.265       -5.823       34.086       40.624       30.925     1161.827     1650.305      956.353        0.666        0.188       97.566       19.428        0.040      345.626       23.290      863.823
07/23/2014  21:19:00      108.489      105.960        2.381       54.851       50.660       42.820     3008.679     2566.440     1833.524        1.520        0.370      151.649       29.785        0.039      345.519       23.105      863.794
07/23/2014  21:20:00      126.851       75.566       -7.282       70.109       57.184       43.510     4915.272     3270.048     1893.163        1.596        0.504      147.653       25.119        0.029      345.547       23.153      863.777
07/23/2014  21:21:00      189.516      112.003       -5.166       58.809       31.110       42.212     3458.477      967.820     1781.874        2.735        0.310      220.139       23.361        0.011      345.642       23.313      863.815
07/23/2014  21:22:00       93.679       76.850       35.325       66.035       45.168       32.841     4360.648     2040.110     1078.512        1.170        0.374      121.168       28.952        0.057      345.507       23.087      863.814
07/23/2014  21:23:00       72.850       90.291       56.403       74.508       47.757       45.355     5551.390     2280.701     2057.044        1.326        0.494      116.015       44.055        0.144      345.434       22.960      863.798
07/23/2014  21:24:00       62.760       88.914        4.411       54.884       69.060       36.401     3012.299     4769.337     1325.028        1.048        0.455      108.832       27.144        0.062      345.419       22.935      863.795
07/23/2014  21:25:00       70.097       88.662        1.213       64.648       57.322       35.149     4179.412     3285.864     1235.424        1.074        0.435      113.025       33.673        0.089      345.536       23.137      863.834
07/23/2014  21:26:00        3.029      139.164      -21.654       23.589       34.558       17.733      556.426     1194.238      314.449        1.095        0.103      139.197       16.486        0.014      345.601       23.248      863.834
07/23/2014  21:27:00       39.541       29.750        7.760       44.629       47.089       20.781     1991.773     2217.412      431.832        0.357        0.232       49.483       19.048        0.148      345.476       23.034      863.848
07/23/2014  21:28:00       49.785       50.547        5.918       36.415       32.657       23.495     1326.083     1066.490      552.020        0.401        0.147       70.947       18.187        0.066      345.417       22.932      863.880
07/23/2014  21:29:00       74.119       53.617        2.402       43.993       32.398       21.913     1935.362     1049.642      480.195        0.592        0.173       91.479       19.537        0.046      345.391       22.888      863.891
07/23/2014  21:30:00       83.743       26.417       14.636       56.653       37.969       26.065     3209.507     1441.676      679.386        0.663        0.267       87.811        9.380        0.011      345.342       22.805      863.903
07/23/2014  21:31:00       53.154       57.449        4.506       64.539       36.953       24.588     4165.311     1365.558      604.573        0.614        0.307       78.267       20.784        0.071      345.383       22.873      863.937
07/23/2014  21:32:00       37.230       98.417      -17.000       21.864       28.483       16.058      478.018      811.275      257.846        0.645        0.077      105.224       10.444        0.010      345.412       22.923      863.965
07/23/2014  21:33:00       69.730       89.700      -10.441       55.978       50.413       35.617     3133.566     2541.454     1268.541        0.998        0.347      113.616       23.319        0.042      345.474       23.030      863.948
07/23/2014  21:34:00      160.028      130.858       -4.412       81.782       60.425       46.402     6688.267     3651.171     2153.116        2.762        0.625      206.719       25.299        0.015      345.470       23.021      863.939
07/23/2014  21:35:00      219.610      142.411       75.602      131.400      115.979       95.872    17266.038    13451.073     9191.514        5.706        1.995      261.743       87.937        0.113      345.434       22.957      863.942
07/23/2014  21:36:00       90.859      110.785       72.990       80.258       76.558       64.106     6441.336     5861.193     4109.533        2.113        0.821      143.278       61.084        0.182      345.523       23.111      863.943
07/23/2014  21:37:00       34.259       54.908       82.708       58.618       44.028       38.116     3436.026     1938.455     1452.843        0.893        0.341       64.719       28.628        0.196      345.523       23.113      863.960
07/23/2014  21:38:00       40.105      -55.039       14.015       56.844      107.091       48.637     3231.296    11468.410     2365.548        1.095        0.853       68.100       60.071        0.778      345.462       23.006      864.003
07/23/2014  21:39:00       86.321      -87.449       19.473       52.354       50.915       38.597     2740.917     2592.325     1489.692        1.115        0.341      122.877       38.598        0.099      345.512       23.095      864.033
07/23/2014  21:40:00       62.105       14.703       24.831       44.267       35.480       31.687     1959.542     1258.822     1004.082        0.446        0.211       63.822       21.252        0.111      345.523       23.114      864.031
07/23/2014  21:41:00       77.864       84.888       72.469      102.362       59.966       43.445    10477.972     3595.929     1887.472        1.724        0.798      115.190       50.361        0.191      345.468       23.018      864.001
07/23/2014  21:42:00      180.019      117.969       19.336       69.677       50.200       47.041     4854.888     2519.999     2212.845        2.814        0.479      215.230       33.224        0.024      345.374       22.857      863.993
07/23/2014  21:43:00      186.588      148.000       21.454       88.821       64.661       66.544     7889.197     4181.041     4428.109        3.684        0.825      238.158       45.254        0.036      345.524       23.114      863.977
07/23/2014  21:44:00      223.001      115.545       55.949       78.177       78.124       75.022     6111.670     6103.311     5628.234        4.202        0.892      251.157       42.573        0.029      345.546       23.150      863.963
07/23/2014  21:45:00      107.607       63.230       32.693       78.664       53.949       35.288     6187.977     2910.443     1245.220        1.349        0.517      124.809       22.923        0.034      345.518       23.104      864.007
07/23/2014  21:46:00       39.434       23.162       22.870       46.206       30.943       29.640     2134.985      957.489      878.527        0.329        0.199       45.733       15.635        0.117      345.415       22.929      864.046
07/23/2014  21:47:00      102.131       37.540       18.466       51.566       35.334       32.111     2659.096     1248.462     1031.143        0.856        0.247      108.812       26.490        0.059      345.390       22.885      864.053
07/23/2014  21:48:00      175.807      114.409       52.425       53.721       50.117       58.161     2885.938     2511.714     3382.671        2.776        0.439      209.755       45.372        0.047      345.366       22.842      864.008
07/23/2014  21:49:00      109.694      122.329       99.588       68.229       80.222       66.725     4655.254     6435.643     4452.271        2.623        0.777      164.308       66.753        0.165      345.511       23.090      863.993
07/23/2014  21:50:00       98.334       23.167       24.671       67.263       64.598       39.874     4524.312     4172.879     1589.945        1.055        0.514      101.026       26.659        0.070      345.442       22.974      864.041
07/23/2014  21:51:00      137.406       45.814       11.416       62.462       48.293       34.216     3901.480     2332.203     1170.747        1.426        0.370      144.843       21.579        0.022      345.463       23.010      864.076
07/23/2014  21:52:00       82.574       39.685       21.433       56.430       52.394       26.997     3184.400     2745.139      728.858        0.775        0.333       91.616       19.617        0.046      345.362       22.836      864.079
07/23/2014  21:53:00      147.343       79.321       58.100       73.622       62.349       53.042     5420.173     3887.456     2813.475        2.175        0.606      167.337       37.383        0.050      345.359       22.832      864.067
07/23/2014  21:54:00      106.190       64.897       61.625       84.606       50.862       54.929     7158.114     2586.977     3017.196        1.602        0.638      124.451       55.308        0.198      345.331       22.784      864.028
07/23/2014  21:55:00      145.736       60.179       23.202       61.204       50.778       43.954     3745.983     2578.364     1931.963        1.683        0.413      157.672       27.325        0.030      345.227       22.605      864.010
07/23/2014  21:56:00       78.487       53.206       30.814       69.763       39.641       36.185     4866.927     1571.413     1309.388        0.884        0.387       94.822       34.932        0.136      345.195       22.553      864.016
07/23/2014  21:57:00       74.454       13.019        5.965       39.749       59.961       29.988     1580.013     3595.365      899.299        0.591        0.304       75.584       20.410        0.073      345.156       22.486      864.018
07/23/2014  21:58:00        7.738      -36.747       25.883       23.370       49.830       24.373      546.139     2483.073      594.067        0.285        0.181       37.553       14.988        0.159      345.218       22.589      864.028
07/23/2014  21:59:00        7.512       -0.278       28.300       14.693       38.284       17.998      215.898     1465.696      323.926        0.143        0.100        7.517        8.230        1.199      345.251       22.646      864.055
07/23/2014  22:00:00        5.404       -0.033       26.954       23.738       36.691       25.057      563.511     1346.228      627.864        0.165        0.127        5.404       27.343       25.601      345.239       22.628      864.061
07/23/2014  22:01:00       -6.974       22.837       14.284        8.532       12.150       10.513       72.791      147.633      110.520        0.055        0.017       23.878        5.289        0.049      345.186       22.534      864.056
07/23/2014  22:02:00       -5.949       32.727        0.871       15.536       14.102        5.709      241.379      198.877       32.590        0.079        0.024       33.263        4.065        0.015      345.211       22.579      864.078
07/23/2014  22:03:00       18.998       21.301        4.064       20.879       16.749       16.169      435.913      280.534      261.449        0.090        0.049       28.542        9.495        0.111      345.186       22.537      864.062
07/23/2014  22:04:00       81.561       56.280       27.189       62.868       37.844       29.995     3952.335     1432.135      899.719        0.842        0.314       99.094       29.206        0.087      345.249       22.643      864.042
07/23/2014  22:05:00       25.526       62.818        7.266       38.082       34.315       29.042     1450.270     1177.529      843.445        0.406        0.174       67.806       25.371        0.140      345.163       22.497      864.051
07/23/2014  22:06:00       74.588       55.467       15.452       30.704       24.841       30.345      942.742      617.076      920.830        0.568        0.124       92.951       15.458        0.028      345.120       22.425      864.035
07/23/2014  22:07:00       63.930       97.551        0.491       43.880       43.389       29.427     1925.450     1882.644      865.970        0.914        0.234      116.633       27.927        0.057      345.154       22.481      864.033
07/23/2014  22:08:00       19.196      130.892      -16.631       43.041       41.157       29.375     1852.568     1693.932      862.892        1.109        0.220      132.292       28.876        0.048      345.164       22.499      864.070
07/23/2014  22:09:00      -15.947      118.633      -18.637       41.818       52.173       20.487     1748.746     2722.047      419.719        0.978        0.245      119.700       20.139        0.028      345.158       22.489      864.099
07/23/2014  22:10:00      -49.731      208.081      -28.294       57.431       58.049       32.420     3298.303     3369.649     1051.080        2.714        0.386      213.942       22.511        0.011      345.224       22.599      864.119
07/23/2014  22:11:00       -6.412      230.443      -37.249       35.500       40.304       20.646     1260.228     1624.406      426.271        2.892        0.166      230.532       16.672        0.005      345.275       22.686      864.131
07/23/2014  22:12:00      -44.030      192.424      -32.044       28.112       36.186       19.238      790.286     1309.444      370.092        2.123        0.123      197.397       15.478        0.006      345.269       22.677      864.129
07/23/2014  22:13:00     -106.543      127.315      -16.452       73.186       64.641       39.812     5356.204     4178.447     1584.967        1.947        0.556      166.014       41.532        0.063      345.054       22.310      864.098
07/23/2014  22:14:00       -0.440      150.220      -16.341       62.595       66.193       29.834     3918.137     4381.449      890.093        1.601        0.459      150.220       31.446        0.044      345.011       22.235      864.035
07/23/2014  22:15:00       13.700       77.197        4.199       72.409       50.496       43.454     5243.050     2549.876     1888.219        0.792        0.484       78.403       18.187        0.054      344.998       22.215      863.960
07/23/2014  22:16:00      -95.694      328.391      -48.563      108.416      107.563       58.498    11754.058    11569.877     3421.985        7.305        1.337      342.050       51.681        0.023      345.340       22.793      863.982
07/23/2014  22:17:00     -148.497      159.521      -39.017       92.580      148.393       44.070     8571.126    22020.421     1942.159        4.077        1.627      217.941       37.672        0.030      345.432       22.954      864.030
07/23/2014  22:18:00      -94.126      -30.823       -9.421       58.686       30.036       32.234     3444.070      902.148     1039.042        0.764        0.269       99.044       26.519        0.072      345.418       22.933      864.116
07/23/2014  22:19:00      -27.846      -51.734        6.016       24.721       32.232       21.950      611.118     1038.874      481.814        0.281        0.107       58.752       14.841        0.064      345.375       22.858      864.125
07/23/2014  22:20:00       -2.152       23.341       75.354       40.670       55.483       43.188     1654.022     3078.353     1865.244        0.641        0.330       23.440       38.912        2.756      345.284       22.703      864.113
07/23/2014  22:21:00       63.948       95.003      105.392       95.176       84.199       48.148     9058.403     7089.430     2318.273        2.134        0.923      114.520       37.769        0.109      345.228       22.607      864.065
07/23/2014  22:22:00      131.199      160.161      152.126      106.641      103.287       88.378    11372.207    10668.161     7810.729        4.792        1.493      207.038       79.361        0.147      345.249       22.640      863.978
07/23/2014  22:23:00       45.333       83.405       96.850       71.694       92.825       55.050     5140.007     8616.481     3030.490        1.759        0.839       94.929       44.377        0.219      345.237       22.622      863.920
07/23/2014  22:24:00      125.886      -40.568       66.221      114.733      165.210      118.575    13163.562    27294.400    14060.054        3.819        2.726      132.261      118.428        0.802      345.282       22.698      863.836
07/23/2014  22:25:00       80.603      -31.265       41.439       81.483      111.546       59.896     6639.511    12442.613     3587.545        1.593        1.133       86.454       41.698        0.233      345.252       22.649      863.821
07/23/2014  22:26:00      -66.037       46.711      -20.153      114.641       91.594       50.887    13142.617     8389.510     2589.535        1.553        1.206       80.888       18.318        0.051      345.208       22.573      863.915
07/23/2014  22:27:00     -155.836      -71.362        1.393      102.570       84.809       46.565    10520.554     7192.579     2168.336        2.463        0.994      171.398       46.742        0.074      345.167       22.504      864.024
07/23/2014  22:28:00      -77.687      -68.457       16.637       78.141       49.032       32.044     6105.996     2404.161     1026.812        1.027        0.477      103.545       36.865        0.127      345.218       22.592      864.090
07/23/2014  22:29:00       -5.556       40.135       63.205       21.391       50.279       58.649      457.578     2528.026     3439.685        0.603        0.321       40.517       47.192        1.357      345.124       22.430      864.039
07/23/2014  22:30:00      112.877      132.566      127.186       98.612       73.944       60.642     9724.283     5467.701     3677.456        3.268        0.943      174.112       52.968        0.093      345.293       22.717      863.942
07/23/2014  22:31:00      144.884      103.984       33.042       71.529       50.216       45.416     5116.363     2521.687     2062.617        2.130        0.485      178.337       36.466        0.042      345.296       22.723      863.940
07/23/2014  22:32:00       42.905       47.554       -9.536       51.153       53.814       32.859     2616.586     2895.947     1079.710        0.539        0.330       64.049       27.331        0.182      345.164       22.498      863.928
07/23/2014  22:33:00       97.821       75.444        5.198       82.479       59.515       40.373     6802.780     3542.063     1630.019        1.363        0.599      123.534       27.021        0.048      345.023       22.257      863.928
07/23/2014  22:34:00      122.861       47.241       16.210       52.811       53.763       31.921     2788.987     2890.413     1018.950        1.214        0.335      131.630        9.108        0.005      345.109       22.404      863.999
07/23/2014  22:35:00       77.665       78.398       32.469       35.496       27.539       41.544     1259.990      758.394     1725.904        0.849        0.187      110.355       21.503        0.038      345.057       22.317      864.012
07/23/2014  22:36:00       62.192       48.814       13.351       21.322       19.930       28.897      454.625      397.203      835.057        0.406        0.084       79.061       16.267        0.042      345.114       22.415      864.019
07/23/2014  22:37:00      166.968      116.785        2.195       99.049       64.889       47.675     9810.682     4210.646     2272.940        2.890        0.815      203.758       16.561        0.007      345.056       22.313      863.994
07/23/2014  22:38:00      -78.601       79.834      -31.354       78.733       59.091       51.558     6198.827     3491.794     2658.245        1.294        0.617      112.034       38.521        0.118      345.063       22.326      863.985
07/23/2014  22:39:00      -28.609       -1.411        3.498       40.695       49.613       38.331     1656.044     2461.433     1469.292        0.321        0.279       28.644       25.165        0.772      345.025       22.260      863.987
07/23/2014  22:40:00      -11.377       42.113        7.222       52.590       54.446       24.723     2765.758     2964.371      611.234        0.415        0.317       43.623       20.063        0.212      345.008       22.233      863.976
07/23/2014  22:41:00      119.032       94.796       30.718       47.583       45.369       52.919     2264.162     2058.369     2800.396        1.561        0.356      152.168       33.742        0.049      345.031       22.273      863.978
07/23/2014  22:42:00       15.227       41.004       47.764       42.402       69.276       51.959     1797.964     4799.159     2699.776        0.674        0.465       43.741       48.826        1.246      344.972       22.169      863.960
07/23/2014  22:43:00      -43.445       18.977      -19.387       42.243       31.652       21.114     1784.488     1001.851      445.815        0.293        0.162       47.409       21.057        0.197      344.969       22.165      863.984
07/23/2014  22:44:00       70.096       94.417       -6.877       39.814       32.032       29.325     1585.121     1026.033      859.952        0.867        0.174      117.592       23.596        0.040      344.978       22.180      864.003
07/23/2014  22:45:00      -35.522       92.955      -11.463       60.528       34.903       24.920     3663.614     1218.220      620.996        0.777        0.275       99.511       22.144        0.050      344.863       21.984      863.994
07/23/2014  22:46:00      -30.426      104.521      -16.981       33.306       48.323       20.088     1109.318     2335.135      403.528        0.799        0.192      108.859       16.160        0.022      344.902       22.051      864.011
07/23/2014  22:47:00       17.140       90.267       -2.683       29.945       37.807       26.239      896.682     1429.387      688.479        0.573        0.151       91.880       23.535        0.066      344.849       21.960      863.988
07/23/2014  22:48:00       -8.274       59.311      -15.617       27.123       35.410       15.110      735.679     1253.884      228.327        0.302        0.111       59.886       16.933        0.080      344.852       21.966      863.982
07/23/2014  22:49:00      -64.491       -0.098       -3.854       32.915       24.279       14.448     1083.396      589.460      208.754        0.303        0.094       64.491       16.630        0.066      344.851       21.964      863.998
07/23/2014  22:50:00       54.176       66.330       29.622       66.333       32.971       43.315     4400.016     1087.059     1876.198        0.779        0.368       85.643       41.528        0.235      344.778       21.838      863.986
07/23/2014  22:51:00       60.816       52.505       -6.989       85.216       61.868       45.481     7261.774     3827.591     2068.535        0.983        0.658       80.346       36.977        0.212      344.820       21.911      863.968
07/23/2014  22:52:00       17.014      -60.861       -0.219       34.759       69.197       35.785     1208.221     4788.260     1280.533        0.563        0.364       63.194       41.735        0.436      344.868       21.993      863.966
07/23/2014  22:53:00       24.440       78.410      -13.852       25.180       50.591       25.814      634.031     2559.487      666.354        0.540        0.193       82.131       27.715        0.114      344.728       21.751      863.970
07/23/2014  22:54:00      -87.978        7.817      -12.875       64.680       72.273       33.898     4183.498     5223.383     1149.091        0.926        0.528       88.325       25.956        0.086      344.766       21.818      863.974
07/23/2014  22:55:00     -184.715      127.808      -32.085       70.682       78.510       36.966     4995.992     6163.839     1366.495        3.200        0.626      224.621       41.744        0.035      344.713       21.725      863.984
07/23/2014  22:56:00     -138.793       34.710      -19.879      112.973       70.212       40.678    12762.953     4929.722     1654.734        2.010        0.967      143.067       56.025        0.153      344.681       21.670      863.981
07/23/2014  22:57:00      -21.243       89.906       -0.873       40.899       37.894       25.299     1672.735     1435.972      640.030        0.614        0.187       92.382       27.451        0.088      344.696       21.699      863.988
07/23/2014  22:58:00      -36.210       62.526        0.334       32.168       26.371       25.212     1034.776      695.422      635.641        0.379        0.118       72.255       17.199        0.057      344.600       21.535      863.986
07/23/2014  22:59:00      -56.129       99.697      -26.452       22.287       34.393       19.837      496.700     1182.862      393.497        0.793        0.104      114.411       18.312        0.026      344.576       21.493      863.980
07/23/2014  23:00:00      -20.556       69.911       -2.881       48.826       34.409       23.595     2384.010     1183.997      556.719        0.472        0.206       72.870       18.780        0.066      344.602       21.537      863.989
07/23/2014  23:01:00       58.060       91.558      -12.144       30.057       67.354       37.351      903.433     4536.593     1395.079        0.937        0.342      108.416       40.451        0.139      344.667       21.650      863.998
07/23/2014  23:02:00       76.337       49.954       -1.496       29.402       28.766       23.413      864.456      827.462      548.171        0.528        0.112       91.229       12.267        0.018      344.609       21.549      864.005
07/23/2014  23:03:00       98.659       45.971        9.123       39.797       31.184       32.213     1583.768      972.441     1037.662        0.776        0.180      108.843       18.541        0.029      344.505       21.371      864.026
07/23/2014  23:04:00       56.242       30.883       -0.173       41.836       22.031       15.965     1750.224      485.368      254.893        0.330        0.125       64.163       10.803        0.028      344.438       21.256      864.032
07/23/2014  23:05:00       22.480       62.287      -12.219       29.240       43.801       15.578      854.989     1918.550      242.680        0.377        0.151       66.220       16.550        0.062      344.393       21.180      864.038
07/23/2014  23:06:00       39.850       63.904       -6.636       45.582       38.026       24.020     2077.728     1445.944      576.957        0.491        0.205       75.311       17.838        0.056      344.450       21.277      864.056
07/23/2014  23:07:00       85.091       81.428       -4.410       43.225       34.924       30.963     1868.407     1219.677      958.736        0.897        0.202      117.775       18.901        0.026      344.552       21.452      864.061
07/23/2014  23:08:00      125.257       58.674        8.250       21.246       26.735       19.894      451.377      714.772      395.784        1.038        0.078      138.318       11.809        0.007      344.502       21.367      864.058
07/23/2014  23:09:00      110.601       65.127       -3.539       24.162       28.501       25.232      583.817      812.280      636.656        0.926        0.102      128.351        9.796        0.006      344.593       21.521      864.041
07/23/2014  23:10:00      107.794       54.500       11.572       41.866       37.578       35.612     1752.731     1412.088     1268.223        0.958        0.222      120.788       13.670        0.013      344.465       21.303      864.037
07/23/2014  23:11:00       69.048       78.811        7.885       52.339       48.780       31.983     2739.353     2379.499     1022.897        0.859        0.307      104.780       29.423        0.079      344.410       21.209      864.047
07/23/2014  23:12:00       54.322      119.715      -13.204       61.228       63.365       34.328     3748.881     4015.172     1178.389        1.320        0.447      131.463       32.656        0.062      344.538       21.428      864.045
07/23/2014  23:13:00       22.782      158.619      -16.322       55.367       54.401       39.533     3065.507     2959.507     1562.879        1.677        0.379      160.247       33.278        0.043      344.529       21.412      864.023
07/23/2014  23:14:00       15.755      217.681      -37.002       46.108       55.724       25.604     2125.946     3105.139      655.566        2.744        0.294      218.250       24.371        0.012      344.579       21.495      864.042
07/23/2014  23:15:00      -38.266      168.348      -31.002       41.175       50.547       24.328     1695.378     2555.013      591.835        1.780        0.242      172.642       21.750        0.016      344.543       21.436      864.077
07/23/2014  23:16:00      -22.267      166.721      -16.082       31.732       55.028       22.031     1006.918     3028.097      485.362        1.653        0.226      168.201       19.480        0.013      344.574       21.489      864.076
07/23/2014  23:17:00      -54.105      169.074      -29.216       54.024       60.991       28.886     2918.593     3719.931      834.409        1.992        0.374      177.520       26.226        0.022      344.533       21.418      864.069
07/23/2014  23:18:00     -108.591      180.053      -21.658       92.508      120.931       40.302     8557.668    14624.333     1624.284        3.474        1.240      210.264       39.369        0.035      344.575       21.488      864.094
07/23/2014  23:19:00     -138.320       40.876      -15.347       45.691       31.068       19.216     2087.707      965.200      369.267        1.223        0.171      144.234       14.971        0.011      344.607       21.547      864.119
07/23/2014  23:20:00      -20.744        4.350       -1.651       24.452       20.716       19.908      597.899      429.148      396.311        0.094        0.071       21.195       13.828        0.426      344.605       21.542      864.108
07/23/2014  23:21:00        5.655       38.918       -2.016       29.621       32.921       21.044      877.404     1083.823      442.857        0.198        0.120       39.327       18.053        0.211      344.529       21.414      864.102
07/23/2014  23:22:00      -52.847       99.596      -12.823       39.165       50.342       23.321     1533.886     2534.284      543.870        0.874        0.231      112.748       22.787        0.041      344.515       21.390      864.076
07/23/2014  23:23:00     -127.575       37.737      -20.294       41.726       27.321       22.182     1741.067      746.413      492.042        1.054        0.149      133.039       20.281        0.023      344.559       21.463      864.084
07/23/2014  23:24:00      -99.814      112.790      -23.627       42.178       51.442       24.402     1778.980     2646.234      595.469        1.413        0.251      150.614       22.137        0.022      344.494       21.351      864.086
07/23/2014  23:25:00     -149.652      110.820      -20.169       59.281       96.495       36.887     3514.216     9311.269     1360.677        2.463        0.709      186.217       32.485        0.030      344.527       21.407      864.046
07/23/2014  23:26:00     -127.307      142.345      -41.675       85.895       91.610       38.676     7377.989     8392.481     1495.814        2.773        0.863      190.969       56.379        0.087      344.488       21.342      864.048
07/23/2014  23:27:00     -213.929      172.480      -41.811       89.173      150.202       51.134     7951.794    22560.601     2614.654        5.519        1.656      274.800       61.232        0.050      344.570       21.479      864.072
07/23/2014  23:28:00      -50.884       56.719       -3.990       30.931       40.284       23.053      956.703     1622.807      531.434        0.447        0.156       76.198       19.201        0.063      344.455       21.287      864.093
07/23/2014  23:29:00      -78.845       71.950      -16.000       42.883       58.786       26.642     1838.924     3455.830      709.771        0.883        0.300      106.740       26.251        0.060      344.471       21.313      864.094
07/23/2014  23:30:00      -51.641      152.302      -10.969       44.587       47.537       31.479     1988.041     2259.767      990.897        1.561        0.262      160.819       29.195        0.033      344.441       21.260      864.101
07/23/2014  23:31:00      -51.393       94.199       -5.534       34.403       40.426       25.374     1183.576     1634.237      643.844        0.750        0.173      107.307       21.327        0.040      344.383       21.163      864.117
07/23/2014  23:32:00       -7.770       69.575        9.316       30.319       39.532       20.903      919.250     1562.749      436.926        0.395        0.146       70.008       16.490        0.055      344.412       21.211      864.139
07/23/2014  23:33:00        3.349       51.233       -1.566       25.299       35.332       18.404      640.038     1248.348      338.709        0.243        0.111       51.343       12.434        0.059      344.419       21.224      864.148
07/23/2014  23:34:00      -79.379       88.862      -24.943       70.520       48.291       40.736     4973.125     2332.033     1659.402        1.189        0.448      119.153       50.230        0.178      344.506       21.374      864.140
07/23/2014  23:35:00      -44.445       21.317        1.172       48.891       27.385       28.645     2390.320      749.935      820.517        0.320        0.198       49.293       24.133        0.240      344.460       21.295      864.147
07/23/2014  23:36:00      -24.077       41.540       -6.769       23.371       47.437       20.704      546.212     2250.312      428.646        0.279        0.161       48.013       15.976        0.111      344.455       21.287      864.162
07/23/2014  23:37:00      -84.887       52.720       -8.992       76.921       65.286       24.510     5916.838     4262.232      600.727        1.042        0.539       99.926       16.626        0.028      344.494       21.354      864.174
07/23/2014  23:38:00      -32.480       37.357        2.174       51.537       34.596       30.666     2656.112     1196.909      940.426        0.362        0.240       49.502       18.433        0.139      344.510       21.381      864.163
07/23/2014  23:39:00       24.827      110.478        0.357       98.607       67.267       42.247     9723.433     4524.843     1784.801        1.442        0.802      113.234       37.307        0.109      344.489       21.341      864.172
07/23/2014  23:40:00      -80.362      129.869      -30.716       44.668       43.145       41.027     1995.255     1861.452     1683.202        1.490        0.277      152.722       29.070        0.036      344.562       21.469      864.182
07/23/2014  23:41:00     -132.375      114.814      -23.517       58.232       67.579       34.201     3390.973     4566.957     1169.707        2.019        0.456      175.230       28.937        0.027      344.596       21.526      864.185
07/23/2014  23:42:00      -33.932       70.846       -5.341       39.792       41.318       34.127     1583.398     1707.151     1164.680        0.533        0.223       78.553       23.919        0.093      344.494       21.352      864.195
07/23/2014  23:43:00      -76.761       37.868      -11.632       29.492       31.875       13.815      869.767     1016.001      190.859        0.477        0.104       85.593       11.255        0.017      344.492       21.349      864.203
07/23/2014  23:44:00       -3.193        1.817       -6.948       27.528       17.117       12.631      757.775      292.990      159.537        0.064        0.061        3.674        7.838        4.552      344.536       21.426      864.218
07/23/2014  23:45:00       40.861      -24.039       16.509       26.672       39.596       28.546      711.380     1567.822      814.900        0.281        0.155       47.408       31.691        0.447      344.465       21.303      864.208
07/23/2014  23:46:00       -3.595       11.431       28.508       20.027       26.324       25.966      401.093      692.948      674.223        0.136        0.088       11.983       22.697        3.587      344.410       21.210      864.201
07/23/2014  23:47:00       -4.728      -75.543      -15.847       24.420       26.924       17.251      596.335      724.908      297.611        0.380        0.081       75.691       11.662        0.024      344.512       21.382      864.222
07/23/2014  23:48:00       -0.116      -56.444       -2.031       37.608       20.767       23.611     1414.351      431.256      557.482        0.280        0.120       56.444       20.110        0.127      344.399       21.190      864.251
07/23/2014  23:49:00        8.415      -47.492        5.003       40.430       38.806       25.635     1634.572     1505.931      657.165        0.307        0.190       48.232       26.912        0.311      344.335       21.081      864.262
07/23/2014  23:50:00       45.261      -91.030       -3.470       46.518       56.662       34.887     2163.952     3210.533     1217.097        0.847        0.330      101.661       36.547        0.129      344.405       21.200      864.261
07/23/2014  23:51:00        2.027      -17.719       27.721       25.971       33.767       26.531      674.508     1140.188      703.877        0.180        0.126       17.834       25.861        2.103      344.259       20.951      864.246
07/23/2014  23:52:00       31.498      -24.149        4.936       23.079       40.914       21.578      532.627     1673.931      465.610        0.214        0.134       39.690       22.612        0.325      344.176       20.808      864.247
07/23/2014  23:53:00        3.767        6.180        7.969       20.422       23.743       19.218      417.051      563.709      369.330        0.073        0.068        7.237       17.298        5.713      344.244       20.926      864.246
07/23/2014  23:54:00       -3.126       34.044       -3.685       16.243       14.614       10.307      263.842      213.569      106.237        0.088        0.029       34.187       11.171        0.107      344.351       21.108      864.249
07/23/2014  23:55:00      -15.774       45.811       -7.659       10.583       12.957        5.723      112.009      167.890       32.756        0.136        0.016       48.451        3.201        0.004      344.376       21.150      864.248
07/23/2014  23:56:00        7.141       30.990       -9.887       18.096       25.304       17.752      327.451      640.285      315.129        0.120        0.064       31.802        9.551        0.090      344.417       21.224      864.252
07/23/2014  23:57:00        1.190        9.913       -0.549       17.950       24.004        9.946      322.201      576.170       98.929        0.055        0.050        9.984       11.104        1.237      344.386       21.168      864.239
07/23/2014  23:58:00       24.250       21.249       14.791       22.807       28.408       15.508      520.141      806.990      240.495        0.141        0.078       32.243       10.119        0.099      344.368       21.136      864.211
07/23/2014  23:59:00       52.624      124.617      -21.441       31.311       48.771       27.277      980.384     2378.634      744.012        1.143        0.205      135.273       28.949        0.046      344.211       20.868      864.195
